GFSNGP_700_spd_009.txt.gz
Wind_Speed
14 12 9 11 13 14 16 17 15 19 21 16 16 15 13 14 19 23 26 28 30 29 28 32 35 37 37 36 32 32 34 38 41 44 45 47 47 46 45 42 40 35 29 24
15 15 13 15 15 17 19 22 24 24 25 17 15 16 15 14 15 19 24 29 29 27 31 30 36 35 34 34 31 33 35 38 42 45 47 47 46 44 43 40 37 33 28 24
8 14 16 15 22 22 23 23 22 24 19 18 19 16 15 16 15 15 19 25 26 26 28 32 33 33 33 30 31 33 36 40 43 46 47 46 44 43 41 38 34 31 27 24
7 9 3 18 20 19 19 18 19 21 21 20 21 19 17 15 13 16 18 21 21 26 29 32 33 34 29 29 31 35 38 41 44 47 46 44 43 43 39 35 32 29 26 24
5 10 17 13 14 18 22 23 18 21 22 22 20 18 15 16 20 18 17 21 24 27 30 32 32 28 27 30 33 37 40 43 45 46 44 42 42 40 37 33 29 26 24 23
10 5 4 8 9 13 19 23 21 14 13 15 16 16 20 23 20 19 20 22 26 29 31 30 26 25 28 32 36 39 41 44 45 43 42 40 40 37 35 30 26 24 24 24
17 12 10 15 18 20 11 15 10 11 12 18 21 25 27 24 23 23 22 24 29 35 27 25 21 24 29 34 38 39 43 43 43 41 39 38 37 34 30 25 24 24 24 25
8 7 7 9 9 10 13 18 20 20 25 25 26 27 27 24 26 22 24 28 30 36 28 21 19 25 32 36 38 40 42 42 41 38 36 36 33 31 26 22 24 25 24 25
10 9 15 21 22 20 21 20 21 26 26 27 28 29 27 29 33 30 29 33 32 27 19 15 22 28 34 36 38 39 40 40 37 36 34 34 31 29 25 23 25 26 25 25
22 22 21 22 23 23 22 23 24 28 29 28 29 30 32 36 33 32 34 34 28 17 12 18 25 32 34 36 37 38 38 35 35 33 31 31 29 27 24 23 25 26 25 25
26 24 22 21 21 23 23 24 26 28 29 29 30 32 34 32 33 33 40 34 17 11 16 22 28 30 32 34 36 36 34 34 32 30 29 29 26 25 24 22 24 25 25 25
21 17 19 21 22 25 26 27 27 29 29 30 31 30 30 31 34 40 30 19 9 14 18 24 27 29 31 34 34 33 34 32 30 28 28 27 25 24 22 21 22 23 25 24
23 22 23 23 23 26 27 29 31 33 32 32 30 29 30 36 39 31 15 8 12 15 20 24 25 27 31 33 32 32 32 30 28 27 27 27 25 23 21 21 21 22 25 23
24 26 26 27 29 30 32 33 33 31 29 29 31 30 35 30 20 2 11 15 16 19 22 23 24 28 31 31 31 32 30 29 28 27 27 26 25 23 22 21 22 22 23 21
28 29 31 32 33 34 34 32 30 30 29 28 31 30 26 20 14 13 15 17 19 22 23 24 25 29 29 29 31 31 30 28 27 27 28 26 25 22 21 20 21 22 21 19
33 33 32 32 35 34 31 29 28 23 22 26 26 22 19 14 15 16 18 21 22 23 24 25 26 27 28 30 31 30 29 29 28 28 28 27 25 22 20 20 20 21 20 18
28 28 28 29 29 29 27 27 28 24 20 15 12 9 13 17 17 19 22 23 22 22 24 26 28 29 31 31 29 31 32 31 30 29 28 27 25 23 20 19 18 19 18 18
25 25 26 26 24 23 22 21 15 11 10 10 15 18 20 20 20 20 22 23 23 24 26 30 30 31 32 31 31 31 31 31 31 30 29 28 25 22 21 20 18 18 18 17
25 25 21 17 17 12 8 7 9 14 18 22 25 22 20 20 22 23 24 25 25 27 28 30 31 32 33 33 34 33 33 32 32 31 29 28 26 22 21 21 21 21 20 20
9 6 4 6 8 11 14 17 19 21 21 21 20 20 21 23 25 26 28 27 27 29 32 34 35 35 35 34 34 35 35 35 33 31 29 28 26 24 21 22 23 24 24 23
9 9 9 10 10 12 14 16 18 19 19 20 21 23 24 25 27 29 31 32 31 33 35 36 37 37 36 37 38 38 39 37 34 31 28 27 25 23 23 22 24 26 27 25
7 8 9 10 13 17 19 19 20 22 23 24 25 27 28 29 31 33 34 37 39 39 40 40 40 40 41 42 42 41 40 37 32 29 26 24 23 22 23 24 25 27 29 29
9 11 13 15 17 19 21 22 24 25 26 28 29 31 33 36 38 40 40 41 42 42 42 42 42 42 41 37 36 34 34 31 30 27 24 23 23 23 24 24 25 26 28 30
12 15 18 19 21 22 22 23 25 28 30 32 35 37 38 40 41 43 44 44 42 41 41 40 39 36 37 37 34 32 31 28 28 28 25 24 24 25 24 24 24 24 25 26
18 19 20 21 22 24 27 29 31 33 35 37 38 40 43 44 45 46 46 44 42 41 39 38 36 34 31 32 33 32 30 28 27 27 29 27 26 24 24 24 24 24 25 26
19 20 22 24 26 28 31 35 38 40 42 44 46 48 49 50 50 49 46 43 41 39 38 36 35 30 27 35 37 32 30 28 28 27 28 29 27 24 25 25 26 27 27 28
20 21 23 25 29 33 37 40 42 46 48 50 51 51 52 53 53 52 50 46 42 37 35 30 30 25 29 34 34 32 30 30 28 28 28 29 28 26 26 27 28 29 30 31

GFSNGP_700_spd_012.txt.gz
Wind_Speed
19 15 13 13 13 20 22 18 13 13 15 12 13 15 16 16 17 22 26 28 29 32 36 35 33 34 37 32 32 35 33 32 34 36 39 41 44 45 44 42 42 40 36 33
18 18 17 17 17 18 20 21 24 22 23 18 15 16 19 18 17 19 22 24 26 29 32 32 31 34 31 34 35 35 31 31 33 37 39 42 44 44 43 42 41 37 34 25
8 16 18 15 25 25 25 24 24 21 18 22 17 18 18 18 17 17 18 20 23 27 30 30 32 32 34 32 34 29 29 30 34 37 40 43 44 43 42 40 38 34 27 27
7 6 4 13 19 18 21 21 22 20 22 22 20 19 20 17 16 14 17 20 22 26 29 30 33 35 31 33 27 25 27 33 35 38 41 43 44 41 39 37 34 32 27 26
5 8 16 15 14 16 19 19 18 19 18 20 21 20 19 14 17 21 21 19 22 26 30 32 35 38 35 26 22 24 30 33 35 39 41 43 42 38 36 34 32 29 25 25
8 4 4 7 10 13 14 14 12 9 11 14 11 15 13 20 24 24 21 21 23 25 28 33 38 44 33 23 21 26 30 33 36 38 41 41 38 34 33 31 30 25 23 24
16 10 7 12 15 15 5 6 9 18 18 19 22 18 22 24 24 24 23 24 25 27 32 36 39 32 25 19 22 27 30 33 36 38 39 37 35 31 30 29 27 24 24 24
7 7 6 4 4 5 10 19 23 18 19 22 24 25 24 26 26 26 27 29 29 32 37 38 43 21 17 18 23 27 31 32 35 37 36 34 31 28 28 26 25 23 22 23
7 6 12 18 17 17 19 22 23 22 24 26 28 30 29 29 30 31 32 35 36 36 44 41 30 15 15 20 25 28 30 32 34 35 33 30 28 27 27 25 24 23 22 23
17 17 16 21 22 22 22 21 21 23 25 27 29 30 31 31 31 33 35 35 40 41 44 30 18 11 18 22 26 27 29 32 33 31 29 28 26 26 26 24 24 23 21 22
21 20 20 20 20 20 20 23 25 26 27 28 28 29 31 31 32 32 34 37 43 38 23 11 8 14 17 23 25 26 29 31 31 30 28 26 24 25 25 24 23 21 21 22
16 14 19 21 22 23 23 24 25 27 29 30 31 31 31 32 30 32 36 43 31 22 10 8 12 16 20 23 25 27 29 29 29 28 26 24 25 26 25 24 23 21 20 22
22 22 21 23 24 23 24 26 29 31 33 34 33 31 30 31 30 38 35 25 18 9 7 11 16 19 21 23 25 28 29 28 28 27 25 24 27 27 26 26 23 21 20 21
23 23 23 22 25 26 28 30 30 32 34 32 30 29 28 28 28 27 24 19 11 11 12 15 19 21 22 25 27 28 28 28 27 27 26 26 27 27 27 26 24 21 19 20
25 26 26 27 28 29 29 30 31 29 29 29 25 26 26 24 21 18 13 13 16 15 17 20 21 23 24 26 27 28 29 28 28 28 28 28 28 28 27 26 24 21 19 20
28 30 30 29 27 27 24 27 27 26 26 25 20 20 17 17 12 15 21 21 17 16 21 23 22 24 26 27 28 29 29 29 29 29 29 29 29 29 27 26 25 21 19 18
22 23 22 24 24 25 24 25 24 21 16 12 10 9 12 16 18 17 16 16 18 20 22 24 25 26 27 28 30 32 31 30 30 31 31 31 31 30 28 26 25 23 21 19
20 20 21 23 21 18 15 14 11 9 10 11 12 14 15 15 16 17 19 20 21 23 23 26 28 29 30 31 33 34 34 34 33 33 33 33 32 31 29 27 25 24 22 22
13 13 13 11 10 9 7 8 9 10 12 13 14 14 15 17 19 20 21 22 23 26 26 29 31 33 34 35 36 36 36 36 37 38 37 36 34 33 30 28 26 25 24 24
11 9 8 8 9 9 10 11 11 12 14 15 17 18 18 21 23 25 25 26 26 31 33 35 36 37 38 39 39 39 39 40 42 43 42 39 35 32 30 27 25 25 24 25
10 9 8 8 9 10 12 14 15 15 16 18 19 21 23 24 26 29 32 34 34 36 38 39 40 41 41 41 41 41 41 42 41 39 36 33 31 30 28 24 23 22 23 25
8 9 9 10 12 14 14 15 17 19 20 22 24 27 29 31 34 35 36 39 40 42 43 44 43 42 42 41 42 40 38 38 38 35 31 28 29 29 27 24 23 24 25 25
10 11 12 14 15 16 17 19 21 23 25 27 30 33 36 38 40 43 45 46 47 47 46 45 43 41 39 38 38 34 36 37 33 32 30 29 30 30 28 26 25 26 26 25
12 13 15 17 18 18 20 21 23 26 29 32 35 38 41 44 46 48 50 50 49 48 47 46 44 41 38 37 35 34 32 33 33 34 31 29 30 29 30 31 29 26 26 25
15 18 19 19 20 21 23 25 28 32 35 38 40 44 47 49 51 52 53 54 53 52 48 45 41 37 36 34 33 30 32 31 32 34 32 30 30 29 30 32 31 27 26 26
19 20 20 21 22 24 27 31 35 38 41 45 49 51 52 53 53 53 50 48 46 44 41 38 35 31 31 29 26 28 31 32 32 33 32 31 30 29 29 30 31 29 27 28
20 21 22 23 25 29 33 37 41 44 48 51 53 53 52 50 48 46 43 41 39 38 35 33 30 27 27 28 28 31 33 31 30 31 33 33 31 30 29 29 29 30 27 25

GFSNGP_700_spd_015.txt.gz
Wind_Speed
19 12 13 11 12 15 21 22 19 17 15 13 14 13 14 15 15 18 24 28 32 34 36 38 40 42 41 41 38 38 36 33 33 33 32 34 37 38 40 42 43 43 40 36
17 14 18 16 16 18 19 21 22 23 22 19 18 16 16 15 20 20 23 26 28 31 33 35 38 40 40 37 40 40 35 36 32 31 30 35 36 38 40 42 42 39 34 29
9 10 10 15 25 22 21 21 20 23 22 18 15 17 17 15 19 19 20 23 25 27 29 33 37 37 37 38 41 41 41 35 29 29 32 34 36 37 40 40 39 36 30 27
6 4 1 11 13 15 17 20 22 23 21 19 16 16 17 19 17 20 18 18 22 26 30 33 35 38 37 40 43 44 39 32 27 29 32 34 36 38 39 37 36 33 31 29
5 10 12 14 12 12 11 13 10 10 12 13 17 17 18 18 17 16 21 24 24 25 27 30 35 38 40 44 44 48 43 22 26 29 33 34 36 37 36 35 33 31 28 27
8 4 4 3 9 9 10 10 6 9 5 7 16 18 15 17 19 24 26 22 22 23 24 29 34 39 42 46 49 45 28 24 24 29 33 34 37 36 35 33 31 30 28 27
12 8 7 10 14 11 5 4 10 12 15 20 19 12 18 22 25 27 27 28 28 27 30 33 38 41 46 48 42 22 21 20 24 30 32 36 35 33 31 30 29 28 27 25
8 7 7 9 3 2 8 16 23 23 16 21 23 25 27 29 29 28 29 30 32 34 34 40 43 45 49 47 31 20 18 22 25 28 33 35 33 30 29 29 29 28 27 23
7 3 11 10 17 15 20 22 22 24 23 22 25 25 26 29 30 29 29 33 35 39 43 42 47 51 47 34 16 15 18 22 25 30 32 31 30 29 27 26 28 28 26 25
13 6 10 11 19 21 20 18 19 20 22 23 26 26 28 28 33 32 35 37 38 40 42 45 47 42 35 19 14 13 17 23 28 30 31 29 28 27 26 26 26 26 25 24
15 17 13 11 11 14 19 22 23 24 25 27 26 27 30 33 35 35 37 36 38 40 41 41 39 30 16 12 12 16 21 25 29 30 31 30 27 25 24 24 26 25 25 25
11 12 17 13 21 25 24 26 26 25 26 29 29 32 34 35 35 34 34 36 34 40 38 29 22 17 16 15 16 20 25 28 29 31 30 29 28 28 26 26 25 24 24 25
18 22 22 23 29 26 26 26 27 28 31 35 34 35 34 33 32 31 32 33 31 27 23 20 16 19 19 17 21 25 28 29 31 31 30 29 29 29 30 28 27 25 25 24
25 23 24 23 28 25 26 27 30 31 33 31 31 31 29 26 28 25 25 20 15 14 17 20 19 15 18 22 25 27 29 30 31 31 30 30 30 30 30 30 30 28 28 25
26 25 26 26 25 28 29 28 29 29 29 30 26 27 22 19 17 14 13 16 20 20 18 17 17 21 25 26 27 30 32 32 31 31 32 32 30 31 31 30 31 31 29 27
28 28 28 29 26 24 22 23 26 26 25 22 20 17 14 14 14 14 14 14 15 16 20 23 23 24 27 28 30 33 34 35 33 33 33 33 32 32 31 31 32 32 31 27
25 23 23 22 21 22 22 20 19 17 15 14 14 14 14 14 15 15 17 19 20 21 23 25 27 29 30 31 32 34 36 34 38 38 37 36 36 35 34 34 34 33 32 29
21 20 19 18 17 15 13 14 13 13 13 13 14 14 16 16 17 19 20 22 23 24 26 28 30 32 33 34 36 38 38 40 40 40 40 40 40 40 39 37 35 35 32 29
11 8 9 10 10 10 11 12 12 14 15 15 15 16 17 19 21 22 24 24 26 29 31 34 35 37 37 38 40 41 43 43 42 42 41 41 42 40 38 36 34 34 31 28
7 8 9 10 11 12 13 13 13 14 15 16 17 19 20 23 24 26 28 30 32 37 38 39 40 42 44 45 45 45 44 42 40 38 37 36 36 37 33 30 31 30 28 26
9 10 11 12 13 13 14 16 17 17 18 19 20 22 23 25 28 31 34 37 38 41 44 47 49 49 49 47 45 41 38 40 43 40 40 39 41 35 28 28 29 28 27 25
11 12 14 14 14 15 16 17 18 19 20 22 23 26 28 31 34 36 39 43 46 49 51 52 52 52 50 48 46 42 39 39 39 42 40 39 40 32 28 31 34 32 29 28
14 15 15 15 16 17 18 19 20 21 23 24 27 31 34 37 41 44 48 51 53 55 54 54 53 49 46 43 41 38 36 35 30 33 37 38 34 31 31 32 33 36 34 33
15 14 15 17 19 20 20 21 23 24 26 30 34 37 40 43 47 50 51 52 52 51 49 49 46 44 41 38 34 32 30 32 33 35 37 36 29 28 31 32 32 32 31 31
15 17 19 20 21 21 22 23 25 28 32 36 40 43 46 49 51 51 50 49 47 45 43 43 43 41 39 35 32 29 31 34 31 32 31 29 28 27 28 32 33 31 30 29
19 20 21 22 22 24 25 27 30 34 38 42 45 48 51 51 49 48 45 43 42 42 43 43 42 40 37 33 30 29 28 28 28 29 29 28 28 29 30 32 34 32 30 29
21 22 23 25 25 26 29 32 36 40 44 47 49 51 50 47 44 42 40 40 41 42 42 41 40 37 35 33 31 31 30 30 29 29 30 29 30 30 32 34 34 32 30 29

GFSNGP_700_spd_018.txt.gz
Wind_Speed
18 18 8 12 9 12 17 19 20 19 17 15 12 8 9 8 14 15 15 22 23 31 37 41 42 39 37 38 39 41 35 37 40 43 41 36 36 32 33 34 36 38 39 37
17 14 16 17 17 17 18 17 21 22 22 17 17 16 14 15 13 19 17 18 26 32 35 40 40 37 36 38 41 38 36 38 40 45 35 39 32 32 30 34 36 38 38 34
10 10 11 15 22 22 22 19 19 21 20 17 17 16 11 14 12 18 19 19 20 27 28 30 33 34 36 38 41 38 40 40 45 40 38 32 26 25 30 34 34 35 35 33
6 5 1 13 8 10 12 13 15 18 19 16 16 15 17 20 15 14 18 18 18 20 26 28 30 33 35 37 40 40 42 44 46 43 34 28 22 26 30 33 35 33 33 31
6 9 11 17 9 7 5 8 8 7 11 7 13 15 14 11 13 15 18 20 25 27 24 23 25 28 32 37 39 42 45 45 41 34 25 19 21 26 31 35 36 35 32 30
7 3 4 3 9 7 6 6 4 9 4 9 15 18 13 17 19 21 20 25 19 23 23 25 27 31 36 41 44 44 49 53 44 26 20 22 24 26 32 36 35 32 30 28
12 7 7 9 12 13 5 6 11 10 14 20 15 11 18 21 23 25 27 27 23 23 25 28 35 38 42 43 50 49 54 46 34 23 16 19 26 31 34 35 30 29 28 26
11 7 8 11 8 4 8 9 17 20 20 21 21 23 22 23 19 28 25 23 30 33 34 37 40 43 46 52 52 49 41 35 23 16 17 22 27 33 34 29 28 28 29 29
9 2 9 7 11 11 14 18 21 21 20 18 17 19 20 23 21 29 28 31 35 37 36 37 39 41 45 48 46 43 29 23 19 18 20 25 31 32 30 28 27 26 29 29
14 8 6 8 12 12 13 11 12 18 21 20 23 23 22 22 24 33 35 38 35 33 32 32 36 39 45 44 31 29 21 18 18 19 24 29 31 30 28 27 28 29 28 28
11 12 11 10 11 15 17 19 22 23 24 26 25 24 26 30 33 36 34 34 32 32 35 33 32 31 27 27 21 18 18 16 20 26 29 30 32 32 28 26 28 29 28 28
12 13 16 16 22 23 25 28 27 25 27 25 25 27 31 32 34 32 30 30 28 29 29 25 22 19 17 19 17 15 19 24 27 29 30 32 32 31 30 29 28 28 28 29
20 23 21 25 28 28 28 28 26 25 25 27 30 29 30 33 29 25 26 23 21 19 17 14 16 18 16 16 19 22 25 27 29 31 32 33 33 33 33 32 31 29 28 27
21 21 26 27 30 27 25 26 27 27 30 29 30 30 29 27 21 18 18 17 15 15 18 17 16 17 21 23 25 27 28 30 32 33 34 35 35 34 34 35 35 33 29 28
28 26 27 27 27 27 28 29 30 26 25 27 27 24 21 19 18 17 16 16 17 17 19 21 21 23 26 27 29 30 31 33 35 36 36 36 36 37 36 35 34 34 32 30
30 29 28 28 28 29 27 23 23 24 23 21 17 16 16 15 15 15 17 17 18 20 22 24 26 28 29 30 32 33 35 37 38 42 40 39 40 40 40 39 37 36 35 32
29 29 27 26 23 22 23 22 17 15 15 14 15 15 15 16 17 18 18 20 22 24 25 27 29 30 32 34 36 38 40 42 41 35 40 44 42 40 42 41 39 39 35 32
25 23 22 22 20 18 13 13 13 13 14 15 16 17 18 17 17 19 21 22 24 26 30 32 34 35 36 38 40 41 43 45 45 45 45 42 42 38 39 38 34 36 33 30
20 18 15 11 11 11 12 12 13 13 14 15 16 17 18 19 21 22 24 26 29 32 34 36 38 42 44 46 48 50 50 50 48 46 41 38 37 35 37 37 36 36 28 29
12 9 10 11 11 11 11 12 13 14 16 16 17 19 21 23 24 26 28 31 35 38 40 43 46 49 51 52 52 51 50 49 47 45 38 37 43 37 36 34 32 33 28 28
10 10 10 10 10 11 13 15 16 17 18 19 21 23 25 26 28 31 34 37 40 43 46 49 52 51 51 51 49 47 45 44 41 39 38 34 34 37 40 38 35 27 25 29
10 10 11 12 13 14 16 17 18 20 22 23 25 26 27 30 33 36 40 43 46 49 51 53 53 50 49 46 43 41 40 38 36 29 28 30 30 39 34 30 34 29 27 28
12 12 14 15 16 17 18 19 21 22 23 26 27 28 31 35 39 42 45 48 51 51 51 50 47 45 43 42 42 41 39 37 33 30 29 29 31 32 35 36 35 28 26 27
13 15 16 17 18 20 21 21 23 24 25 28 31 33 37 41 44 47 48 50 49 48 46 44 42 41 41 42 41 40 38 35 31 30 30 32 32 34 37 33 29 27 25 26
15 16 17 19 21 21 22 22 25 28 29 32 34 39 42 46 48 49 50 48 46 44 41 41 41 40 40 41 40 38 35 34 31 28 27 28 28 28 28 28 27 26 26 27
18 19 19 21 22 22 24 25 26 29 32 36 39 44 47 49 49 47 45 44 41 40 40 40 40 40 39 38 36 34 33 32 31 30 30 29 28 28 28 28 28 28 28 28
21 22 22 23 23 25 26 28 30 33 37 41 44 47 49 48 46 44 42 39 38 38 38 37 37 37 36 34 33 32 32 31 31 30 28 28 29 29 29 29 30 31 31 31

GFSNGP_700_spd_021.txt.gz
Wind_Speed
17 17 15 10 11 9 16 15 18 19 16 12 14 2 7 7 6 6 9 10 22 28 30 31 34 36 39 40 41 40 39 37 35 38 41 42 41 37 39 38 29 27 30 30
15 18 19 16 14 19 16 13 16 14 18 13 10 14 10 10 9 7 10 15 18 22 25 29 33 37 40 40 41 40 39 36 37 40 43 46 45 45 37 32 23 25 27 31
14 15 16 18 22 22 18 20 19 18 17 15 15 15 12 11 13 13 17 17 17 21 27 32 35 36 36 37 38 38 37 39 42 44 46 50 50 45 35 20 24 24 29 32
6 7 0 8 3 8 6 2 7 8 10 8 7 11 8 10 15 18 18 19 18 18 19 24 29 28 30 33 36 37 39 44 48 48 51 54 49 36 26 22 23 27 31 34
6 12 11 11 8 9 8 4 7 8 9 12 8 10 12 15 20 21 18 20 20 21 27 24 23 24 28 32 35 39 44 48 53 54 58 52 36 30 24 21 25 30 35 34
10 5 6 3 4 6 5 8 9 12 14 14 15 15 23 22 21 20 22 25 24 29 28 28 28 30 33 37 40 43 49 51 55 59 50 36 33 25 19 22 28 35 33 31
14 7 6 9 11 13 9 9 11 11 11 16 21 19 21 21 23 26 27 26 24 24 26 28 31 32 34 37 43 46 49 55 57 47 38 41 22 16 19 26 33 32 31 29
14 7 9 12 12 12 12 14 12 13 21 21 21 20 20 22 25 26 25 26 27 28 27 26 28 33 38 42 43 51 55 51 44 41 34 20 18 18 27 32 32 30 29 29
7 3 6 5 9 10 12 13 19 22 23 20 18 19 20 22 25 28 29 26 28 30 28 24 26 30 33 34 40 40 40 37 31 23 20 16 20 27 30 30 31 30 29 29
9 6 8 4 8 16 18 21 23 17 21 21 20 21 23 24 25 26 29 29 28 24 23 26 29 31 32 31 31 28 26 22 21 18 17 22 27 29 31 29 28 29 30 30
14 13 15 15 16 20 21 23 23 22 25 25 23 23 23 23 25 31 31 31 31 29 30 27 27 28 24 20 19 19 20 20 19 22 25 27 29 31 33 32 31 28 27 30
17 15 20 22 22 23 23 24 26 26 27 24 23 23 24 29 29 29 31 30 27 26 22 20 17 17 17 18 20 21 20 22 24 27 29 30 31 33 34 35 33 32 31 31
18 18 20 22 22 23 24 25 27 27 25 26 24 27 29 28 28 27 24 19 18 17 17 17 18 20 21 22 23 23 25 27 28 30 32 34 34 35 37 36 33 35 35 33
20 22 24 23 23 25 26 26 26 27 26 28 28 26 24 26 21 17 15 15 16 18 19 19 19 22 25 25 26 27 28 28 30 32 34 37 38 38 40 38 37 37 33 34
21 23 26 26 25 25 26 27 28 28 28 24 23 22 18 15 15 15 15 16 18 19 20 21 23 24 26 27 29 31 33 35 37 38 39 41 42 43 39 39 42 41 38 36
23 23 25 25 25 26 28 28 27 22 20 18 16 15 14 14 15 16 16 17 18 20 22 24 26 27 28 31 33 35 37 39 41 43 44 45 41 41 43 44 45 42 37 40
26 25 24 25 28 28 25 22 19 16 13 13 13 13 14 15 15 16 17 20 23 24 26 27 29 30 32 34 37 40 43 46 47 48 49 48 48 47 44 43 41 39 36 30
27 27 26 25 22 20 17 14 12 13 13 13 13 14 15 15 17 18 20 23 24 27 28 30 33 36 40 43 46 49 51 52 51 50 49 48 47 45 41 38 38 38 33 31
27 24 20 16 13 10 10 12 13 12 12 13 14 15 16 18 20 21 23 26 27 29 32 35 39 42 45 49 51 52 52 51 49 47 44 42 41 39 37 36 40 42 32 23
20 16 13 10 10 10 10 10 11 12 13 14 16 17 19 21 22 24 26 30 32 36 40 43 45 48 50 51 50 48 46 45 43 41 40 38 36 33 32 30 27 28 23 31
13 11 10 9 9 10 10 11 12 13 14 15 17 19 22 24 26 29 32 35 38 41 44 47 50 51 51 50 48 46 43 42 41 40 38 36 32 27 26 27 33 36 37 28
8 8 9 10 10 10 11 13 14 15 17 18 20 23 26 27 30 33 36 39 43 45 48 50 49 49 48 46 44 42 42 41 39 38 35 33 31 29 27 28 30 29 26 25
10 10 11 11 12 12 14 15 17 19 20 22 23 26 28 30 33 36 40 43 46 48 48 48 47 44 42 41 41 40 39 39 36 35 34 32 31 30 31 33 36 39 35 27
11 12 13 14 14 14 17 19 19 20 23 25 27 29 31 33 37 41 44 46 47 45 44 43 42 40 39 39 38 37 37 35 34 33 32 31 31 31 29 29 30 30 29 28
14 15 17 17 16 18 19 21 22 23 25 27 28 32 35 38 42 45 44 44 44 43 41 39 39 39 38 36 35 34 34 33 33 33 31 31 30 29 30 31 29 27 26 26
17 19 20 20 20 20 21 22 24 26 27 28 31 35 40 43 44 42 41 42 41 39 38 37 38 37 35 34 33 32 32 32 32 31 30 29 29 28 27 27 28 29 28 28
21 22 23 24 22 21 21 23 26 28 30 33 36 41 43 42 41 40 40 40 38 37 37 37 36 34 33 31 31 31 31 31 30 29 28 27 26 25 25 24 23 23 23 25

GFSNGP_700_spd_024.txt.gz
Wind_Speed
16 15 15 12 9 10 11 11 10 14 20 15 14 16 8 13 11 11 13 14 19 22 25 27 29 31 32 33 30 30 31 33 33 35 37 39 43 46 48 49 52 51 43 39
23 22 21 21 17 15 17 19 16 11 11 9 16 13 11 10 18 17 16 15 14 18 21 28 30 30 31 29 28 30 33 33 34 37 39 44 48 53 55 57 54 40 39 34
17 14 14 16 24 25 22 24 22 21 19 13 12 15 13 12 14 19 17 16 17 17 20 21 20 22 25 27 30 31 32 34 38 42 44 47 50 54 57 56 41 38 36 22
14 14 1 15 11 10 14 14 12 8 9 8 10 12 8 7 9 11 13 15 18 19 20 21 21 24 27 26 28 31 36 40 43 44 47 52 57 58 55 39 39 32 20 22
8 14 12 11 9 13 12 9 9 8 10 10 9 7 6 11 12 14 14 16 20 20 21 23 25 22 23 26 31 35 40 43 46 49 54 55 55 51 37 40 31 20 22 28
12 5 7 9 20 15 14 14 13 10 8 7 9 10 14 16 18 18 19 21 22 24 22 20 20 22 25 30 34 38 43 49 54 56 55 55 42 41 43 30 20 22 27 32
19 12 9 14 13 11 13 11 16 15 14 13 14 18 24 26 26 24 23 21 19 20 21 22 22 21 24 30 35 42 50 53 52 47 51 40 40 38 25 24 22 27 31 31
19 12 11 15 18 20 15 12 13 12 12 15 22 23 21 20 20 20 20 21 23 25 28 30 28 24 25 28 30 31 32 34 39 38 39 38 30 25 24 24 27 30 31 31
13 9 9 8 12 11 11 11 11 12 17 18 17 18 19 20 21 22 23 24 26 30 32 30 24 25 29 31 35 35 38 36 37 35 31 27 28 27 27 29 31 31 33 32
13 14 11 10 12 14 15 15 16 16 17 17 19 20 21 22 22 23 25 28 32 32 26 25 27 29 31 33 33 34 29 26 26 27 28 28 29 30 32 32 33 33 32 32
17 14 15 16 16 17 18 19 19 19 19 20 24 26 25 24 25 25 29 32 29 30 28 26 24 23 22 21 21 22 24 25 26 28 29 29 31 32 34 34 36 36 35 34
22 19 18 18 20 20 20 20 20 21 23 25 28 25 23 24 25 30 29 28 29 27 23 21 18 18 19 21 21 22 23 26 28 29 30 32 34 35 35 37 38 38 38 39
16 15 16 16 18 20 21 23 25 27 28 28 25 25 24 26 30 28 27 26 22 20 18 19 20 20 20 22 24 26 28 29 30 32 34 36 38 40 42 40 41 39 38 38
15 15 17 18 20 21 22 24 26 28 27 27 26 27 28 25 26 22 20 19 19 18 19 20 21 22 24 26 28 30 31 33 35 37 38 40 41 43 45 46 47 47 37 35
16 17 22 23 24 24 24 26 28 28 28 27 28 26 22 20 17 17 18 18 18 19 20 21 22 25 27 29 31 33 35 37 39 41 44 47 49 50 50 50 50 48 44 43
18 21 25 26 25 25 27 27 27 27 27 25 21 19 17 17 16 17 17 17 18 19 21 23 25 27 29 31 33 36 38 41 44 46 48 50 50 51 52 51 50 49 48 46
22 26 28 27 27 25 24 25 26 23 18 16 15 16 16 16 16 16 17 18 20 22 24 26 28 30 33 36 39 41 44 47 49 51 51 50 50 48 46 44 44 43 43 37
25 29 29 25 24 25 24 23 20 14 12 14 15 14 14 14 15 16 18 21 23 25 28 29 32 35 38 41 44 47 49 51 51 51 50 48 45 43 41 40 39 37 37 36
32 28 23 22 22 21 20 16 13 14 14 13 13 13 14 15 16 18 20 22 25 27 30 33 36 39 43 46 48 50 50 50 49 47 45 43 42 41 39 37 33 31 31 27
26 22 21 19 16 14 13 13 12 13 13 13 14 15 15 17 19 21 23 25 28 31 35 38 41 44 47 48 49 50 49 47 45 43 42 41 40 39 37 34 30 29 26 25
21 17 12 10 10 11 13 12 12 12 13 14 15 16 17 19 21 24 27 30 32 35 39 42 46 47 48 49 49 47 46 44 43 42 41 40 39 37 35 33 31 30 30 30
12 9 8 10 13 12 10 11 11 12 13 14 16 18 20 23 25 28 30 33 37 40 44 46 46 46 47 46 45 44 43 42 41 40 39 38 37 36 34 32 31 31 33 36
8 11 14 12 10 10 11 12 12 14 15 16 18 21 23 26 28 30 33 37 41 44 44 45 45 45 44 43 42 42 41 39 39 37 36 36 35 34 32 31 31 30 30 31
12 11 10 10 11 12 13 14 15 17 18 20 22 25 27 29 31 34 38 42 44 43 43 43 42 42 41 40 39 39 37 37 36 34 34 33 32 31 31 30 30 30 29 29
10 11 13 13 13 15 18 18 19 20 22 23 26 28 30 32 34 39 42 42 42 42 41 41 40 40 40 39 37 36 35 34 33 33 32 31 30 29 28 28 28 27 27 26
14 15 16 18 20 22 24 24 24 23 23 25 28 30 33 36 39 41 41 41 41 40 40 40 39 39 40 38 35 33 33 32 31 31 30 29 28 27 27 26 26 26 25 24
19 21 23 24 26 27 28 28 26 24 25 28 30 32 36 39 39 39 39 40 41 40 40 39 39 39 39 37 33 32 31 31 30 29 29 29 28 27 27 26 26 25 25 23

GFSNGP_700_spd_030.txt.gz
Wind_Speed
32 26 23 21 21 18 19 20 22 23 22 19 19 19 19 17 14 14 13 14 14 15 17 19 18 21 24 25 28 29 29 30 26 25 29 31 31 32 36 39 42 47 48 55
22 21 21 21 23 21 22 25 25 24 25 22 20 15 15 17 18 16 14 19 20 19 21 21 23 23 24 25 29 31 31 28 26 28 32 33 34 36 40 40 45 51 59 61
22 20 21 23 28 27 30 33 32 31 29 25 26 24 22 22 19 19 19 21 19 19 18 19 22 24 25 26 26 27 29 30 30 31 33 35 38 41 42 47 54 52 53 56
22 19 4 29 29 28 27 29 31 34 35 34 32 30 21 20 18 15 16 16 16 17 19 23 25 26 28 29 29 28 26 25 28 30 34 38 43 47 50 52 60 56 45 40
16 21 25 22 20 20 18 21 20 20 22 22 23 20 16 16 14 13 12 15 19 22 24 24 25 26 26 24 24 25 26 27 30 32 34 38 43 49 57 60 45 40 38 40
14 9 9 26 23 26 24 27 23 14 11 13 14 15 13 10 11 14 17 19 22 23 24 23 23 23 24 25 27 29 31 31 31 31 33 35 34 37 34 37 39 38 39 36
26 17 18 21 17 14 17 29 19 19 15 14 15 15 14 13 14 17 20 21 21 22 22 23 24 26 27 30 31 30 29 30 30 31 30 33 36 35 36 37 37 35 35 34
25 15 16 23 24 28 28 20 19 14 13 17 17 15 15 16 19 20 20 19 21 23 25 26 28 30 33 34 32 29 26 27 28 30 32 33 34 32 30 32 35 36 37 38
26 28 26 22 22 20 23 22 11 10 11 16 16 16 17 19 19 18 19 21 23 25 27 29 30 34 33 32 30 30 29 27 26 26 26 27 29 31 32 34 37 38 40 41
29 30 30 27 20 16 17 19 18 13 13 15 16 18 20 18 19 20 22 25 26 28 29 30 33 34 32 30 27 26 24 23 24 26 27 29 31 33 35 36 38 41 43 45
34 33 26 21 19 17 16 15 15 15 15 16 18 19 20 21 23 26 27 29 28 28 27 31 34 31 28 24 23 23 23 24 25 27 29 31 33 35 37 39 42 45 47 49
29 27 24 19 14 16 19 18 17 16 16 18 21 22 23 25 27 29 30 27 27 28 33 33 30 25 23 22 22 23 24 25 27 29 31 33 36 37 38 41 44 47 50 54
21 20 18 16 19 19 18 18 18 19 22 23 25 26 27 28 29 30 27 27 29 32 30 27 23 22 22 22 22 23 25 27 29 32 34 37 40 42 45 46 49 50 53 55
22 21 22 21 20 19 20 20 22 24 25 27 28 28 28 29 29 29 29 30 29 26 23 21 21 21 20 22 23 25 28 30 33 36 38 41 44 47 49 51 53 53 52 52
27 24 23 20 19 19 22 23 24 24 26 28 28 29 30 27 27 28 30 26 22 20 21 21 20 20 21 23 26 28 31 33 36 39 42 44 47 49 51 52 53 52 50 47
24 24 24 23 24 25 25 25 26 28 29 29 29 28 28 27 28 28 23 19 19 20 20 19 20 22 24 27 29 31 34 37 39 42 44 45 48 50 51 52 52 50 48 45
22 22 24 27 29 29 26 26 26 28 28 28 27 27 28 29 24 20 19 19 18 18 19 20 22 25 27 30 32 34 37 39 41 43 45 47 49 51 52 51 50 47 44 42
25 27 31 30 29 25 23 24 24 25 29 28 26 27 26 22 18 17 16 16 18 19 21 23 25 28 30 32 34 37 39 40 42 45 47 49 51 51 51 49 46 44 42 40
29 27 27 25 24 25 27 23 22 26 26 25 25 22 17 16 15 15 16 18 19 21 23 25 28 30 32 34 37 38 39 42 44 46 48 50 50 49 47 45 43 41 40 39
25 26 27 26 24 23 21 22 22 23 21 20 16 16 16 15 16 16 17 20 22 23 25 27 29 32 35 38 39 39 41 43 45 47 49 50 48 46 44 42 40 39 37 35
24 22 18 17 16 16 17 17 16 16 15 16 16 14 14 15 15 18 21 22 24 26 27 30 32 35 38 40 40 41 42 44 46 48 48 47 45 43 41 39 37 35 33 32
14 14 12 10 11 11 12 13 15 17 15 13 12 13 14 17 20 22 24 25 27 28 30 32 34 38 40 40 41 42 44 46 46 47 46 44 42 40 37 36 34 32 32 32
7 6 7 7 8 10 13 16 15 12 12 13 14 16 20 22 24 26 27 28 29 30 32 34 37 40 40 41 42 43 44 45 46 44 43 42 39 37 36 34 32 32 32 32
4 4 6 8 11 13 13 11 11 13 15 18 21 23 25 27 29 30 30 31 31 33 35 38 40 41 42 43 43 43 44 44 43 41 41 39 36 35 34 33 32 33 33 33
5 7 10 12 12 11 11 13 16 19 21 24 26 29 30 31 32 32 32 33 34 35 38 41 42 43 43 42 42 43 42 41 40 39 38 36 34 33 32 33 35 36 35 34
8 10 11 12 13 14 16 19 22 24 26 27 29 31 32 33 34 35 36 36 38 40 42 42 42 42 41 41 41 40 39 38 38 37 35 34 32 32 32 33 34 34 33 31
11 12 14 16 17 19 22 24 26 27 29 31 32 33 34 34 34 35 37 39 41 41 41 41 40 40 40 39 39 38 37 37 36 35 33 31 30 31 31 32 32 31 29 29

GFSNGP_700_spd_033.txt.gz
Wind_Speed
28 28 26 25 21 17 25 21 21 20 22 19 18 15 15 16 18 15 14 12 16 15 17 17 18 19 22 22 21 24 28 31 32 32 31 32 31 28 28 29 31 36 40 48
27 25 26 24 27 24 20 21 25 26 30 25 25 21 17 15 12 15 16 17 18 21 21 21 22 22 24 25 25 28 30 32 34 34 34 33 30 30 33 37 36 42 49 49
22 23 21 24 28 25 24 26 29 33 34 26 23 22 22 22 19 19 20 21 22 23 22 21 21 22 22 25 28 30 32 33 32 32 32 33 32 33 37 40 42 50 63 61
19 19 8 24 23 23 27 30 32 34 31 27 28 28 26 26 27 21 21 20 19 18 19 18 19 22 25 27 29 29 28 26 26 27 29 31 33 33 34 41 43 43 35 34
15 22 24 20 20 24 25 34 29 25 19 22 24 23 22 22 19 16 14 14 15 16 18 20 23 26 26 24 23 24 25 26 27 30 31 33 31 33 37 36 33 32 30 33
14 11 11 24 25 24 22 38 31 26 25 19 15 17 17 17 15 14 14 15 16 18 21 22 22 21 21 22 23 25 27 29 29 30 32 33 34 33 33 34 31 31 32 31
29 18 21 18 18 19 18 35 23 17 19 18 14 13 14 17 15 14 15 16 18 19 18 18 19 21 22 24 25 27 27 26 24 25 26 26 27 29 29 28 27 28 30 31
29 20 16 23 21 28 28 23 22 21 15 15 16 18 18 17 15 15 16 16 16 16 18 20 20 22 24 27 30 29 28 27 25 24 22 22 22 23 24 26 28 30 33 34
29 33 35 22 25 26 25 22 18 14 13 17 19 20 19 17 16 15 15 15 16 18 20 21 22 25 28 30 30 28 26 23 22 22 22 23 24 25 27 30 32 34 36 39
29 31 32 32 31 27 26 19 14 14 11 15 21 21 19 17 16 16 16 17 19 21 22 23 27 29 31 31 29 24 21 21 21 22 22 24 26 28 30 32 34 38 41 44
34 32 34 33 32 31 23 19 17 16 16 19 21 21 19 19 18 18 19 20 22 24 24 28 28 32 32 30 24 21 21 21 21 22 24 25 28 30 32 35 39 42 45 49
31 27 27 24 24 21 20 20 18 17 17 20 21 21 21 21 21 21 22 24 25 28 31 29 31 31 29 23 21 21 21 22 23 25 27 29 30 32 34 38 41 44 46 49
26 26 27 23 17 21 20 19 21 20 20 20 21 23 24 25 25 25 26 28 30 30 29 32 30 26 21 21 21 21 22 24 26 28 30 32 34 36 38 40 42 44 47 50
21 27 29 22 23 22 22 23 23 23 23 24 26 27 27 27 29 29 29 31 30 31 30 28 23 20 21 21 21 23 24 26 29 31 33 34 36 39 41 43 46 49 52 53
26 26 27 28 24 24 24 25 25 24 25 26 28 30 30 31 31 30 30 30 32 32 28 22 20 20 20 21 23 24 26 29 31 32 34 37 38 40 42 46 50 53 54 52
29 33 34 30 30 29 26 25 25 25 27 29 32 33 33 33 33 31 30 30 30 26 21 19 18 19 21 23 24 26 29 30 32 34 36 38 40 42 45 49 52 54 53 50
32 30 28 27 28 29 29 29 29 29 30 32 34 35 36 33 28 29 30 30 25 20 17 16 18 21 23 24 26 28 30 32 34 37 38 40 42 44 47 50 52 51 48 45
32 35 25 22 17 19 24 29 29 30 32 33 35 33 27 27 28 29 25 21 18 17 16 18 19 22 24 26 28 29 31 34 36 38 39 42 43 45 48 50 49 47 43 41
29 32 34 21 23 30 29 26 27 29 31 30 30 28 26 24 21 19 18 17 15 15 16 19 22 24 26 27 29 31 34 36 38 39 41 43 44 46 48 48 45 42 40 39
19 26 27 25 24 22 22 25 27 27 29 27 24 21 20 19 18 15 12 12 13 17 21 23 24 26 28 29 31 33 36 38 39 40 41 43 44 45 46 45 42 39 38 36
17 16 16 17 18 18 19 20 22 22 19 17 16 17 18 17 13 11 13 14 19 22 24 26 27 29 30 32 34 36 38 39 40 41 41 42 44 44 44 41 39 37 35 34
14 15 15 13 12 14 16 16 15 14 15 17 19 16 12 11 13 15 18 22 24 26 27 29 31 31 32 34 37 39 39 40 40 41 42 42 43 43 40 38 36 35 33 33
5 5 5 7 8 8 9 11 13 16 16 13 11 11 14 16 19 22 25 27 29 30 32 33 34 34 35 36 39 40 40 40 40 40 41 41 41 40 37 35 34 33 33 33
5 4 2 3 4 7 10 12 12 11 11 12 14 18 20 22 25 28 30 32 33 34 36 36 37 37 38 39 40 41 40 40 39 40 40 39 38 37 35 34 33 32 32 33
2 2 4 6 7 8 9 10 11 12 15 17 20 23 25 27 29 31 33 35 36 37 38 39 39 40 40 40 40 40 39 39 39 39 38 37 35 34 33 32 31 31 31 31
3 5 7 8 9 11 13 15 17 19 21 23 24 26 28 30 32 34 35 37 37 37 38 40 40 39 40 40 39 38 38 38 38 37 36 35 34 33 31 29 29 30 30 29
8 10 12 13 15 16 18 19 21 23 25 27 29 31 32 34 35 35 36 37 38 39 39 40 40 40 40 39 38 38 38 37 36 35 34 33 32 30 28 27 27 28 28 27

GFSNGP_700_spd_036.txt.gz
Wind_Speed
28 23 21 23 23 20 24 23 23 20 19 18 16 16 17 18 15 17 20 17 15 19 19 18 19 20 21 22 23 23 24 25 28 30 32 33 33 33 32 33 34 32 39 34
27 28 25 23 25 25 25 23 22 23 23 20 18 22 22 22 19 16 15 20 18 18 22 22 23 23 24 24 25 25 27 28 28 29 30 32 33 33 35 33 34 36 36 46
24 24 23 20 30 25 25 25 25 24 23 19 21 25 25 23 22 22 20 17 19 22 24 25 24 22 22 22 21 22 25 28 30 32 34 33 33 33 35 32 31 34 37 36
20 19 9 22 19 19 22 24 25 26 25 26 25 24 24 25 26 25 25 21 21 22 21 20 19 20 20 22 24 27 29 30 30 29 29 31 33 34 34 33 30 33 36 39
13 18 20 15 24 24 23 26 21 26 25 25 26 23 25 25 25 25 25 22 20 18 17 17 18 19 22 25 26 26 26 26 27 28 31 33 35 35 35 34 34 35 33 33
19 12 9 20 19 21 22 34 21 22 19 23 24 26 22 19 21 22 21 19 18 16 16 18 20 23 24 22 22 23 24 26 28 27 26 27 28 29 29 28 27 28 27 27
26 12 14 16 16 16 16 32 16 20 18 15 19 22 21 15 18 22 21 19 17 17 19 20 21 20 19 20 22 23 24 25 25 25 24 23 22 22 23 23 24 25 26 27
20 15 15 21 20 24 30 23 22 23 20 20 20 19 19 18 22 22 21 19 18 18 19 18 18 19 20 22 23 25 26 25 25 23 22 21 22 22 23 23 25 27 29 30
27 23 29 27 25 23 21 23 25 25 21 19 19 21 21 23 24 23 20 19 19 19 18 17 18 20 22 24 25 27 26 25 24 23 22 22 22 22 24 26 27 30 31 33
28 31 29 29 28 27 28 29 27 25 20 18 21 22 24 26 25 23 21 20 19 19 19 20 21 23 26 27 29 29 26 23 22 21 21 21 22 23 25 28 30 32 34 36
34 32 29 27 29 28 28 27 27 24 20 21 20 24 28 27 26 24 22 21 21 21 22 23 24 26 28 29 30 28 23 22 21 21 21 22 24 26 28 31 32 33 35 38
37 33 32 31 25 24 25 26 23 23 23 24 25 26 29 29 28 26 25 24 24 24 25 26 26 30 31 32 28 23 22 21 21 21 22 24 26 30 29 30 33 36 38 40
35 32 26 23 23 22 24 23 22 22 23 23 25 29 31 31 30 28 28 29 29 28 28 28 31 32 32 28 23 21 21 20 21 22 24 26 28 29 31 35 35 36 38 42
23 29 32 28 26 24 23 23 25 25 26 27 28 28 30 32 32 33 33 32 31 31 31 33 32 31 30 24 21 20 20 21 23 24 26 28 30 31 34 35 37 39 43 46
26 27 25 21 29 29 26 23 26 28 29 30 31 33 34 35 36 36 35 34 33 32 32 32 31 29 24 22 20 20 22 23 24 26 28 29 31 33 35 37 39 42 45 48
34 34 30 28 27 27 33 29 27 30 31 32 34 35 37 39 40 38 36 34 33 33 29 26 28 23 20 19 20 21 22 24 26 27 29 31 33 35 37 39 42 44 46 49
30 28 27 30 31 35 33 27 31 33 34 38 39 40 41 41 42 45 44 42 34 26 26 21 20 18 17 19 21 23 24 25 27 28 30 32 34 37 40 41 43 45 47 49
23 24 24 29 30 29 34 37 35 34 35 36 34 35 37 40 42 38 30 27 27 22 20 18 16 16 17 20 23 25 27 27 29 31 33 35 37 39 40 42 43 45 46 46
28 30 28 30 30 39 39 35 31 28 30 32 37 37 35 33 32 29 24 20 20 18 15 14 16 17 20 24 27 28 29 31 32 33 35 37 39 40 41 42 43 44 44 43
25 23 25 24 20 25 21 23 28 24 26 27 28 29 28 22 17 17 18 18 14 13 15 17 19 22 26 28 30 31 33 34 35 36 37 39 41 42 42 43 43 43 42 40
16 16 19 19 17 17 16 14 15 19 21 20 18 16 15 16 17 17 15 14 15 18 20 22 25 28 31 32 34 35 36 37 38 38 40 41 41 42 42 42 41 41 39 37
3 4 8 8 8 10 12 11 10 10 10 11 12 12 14 15 14 14 16 19 22 23 26 29 32 34 36 37 38 38 39 39 39 40 41 42 42 41 41 41 40 39 37 34
1 1 2 2 3 2 1 2 3 6 8 10 12 13 14 15 17 20 22 24 26 29 31 33 35 36 38 39 40 41 41 41 41 40 41 42 42 41 40 39 38 36 34 32
7 7 5 5 4 3 2 3 5 7 9 11 13 15 17 19 22 24 26 28 31 34 35 37 38 40 41 41 42 42 41 40 40 40 41 41 40 39 39 37 36 34 32 30
5 4 3 3 4 5 6 7 9 11 13 15 18 20 22 25 27 29 31 33 35 36 38 40 41 41 41 42 42 41 40 40 41 40 40 39 39 38 37 35 34 32 30 29
4 5 6 6 7 9 10 12 14 16 18 20 22 23 25 27 29 31 34 36 37 38 40 41 42 43 43 43 42 41 41 40 40 39 39 38 37 36 34 33 32 30 28 27
7 8 9 11 12 13 14 16 17 19 20 23 25 27 30 32 33 35 36 38 40 42 43 44 44 44 43 42 41 41 40 40 40 39 38 37 35 34 32 31 29 28 26 25

GFSNGP_700_spd_039.txt.gz
Wind_Speed
33 27 24 27 26 27 30 28 27 27 23 23 20 16 14 11 11 15 17 18 21 20 19 21 21 21 21 21 23 22 22 23 26 25 27 30 32 33 34 36 37 37 36 33
34 30 30 30 27 25 27 27 27 28 28 22 18 16 16 17 19 20 22 17 18 23 24 25 27 27 26 25 24 22 24 27 29 30 33 33 32 32 34 35 34 32 34 33
28 29 29 33 29 27 27 27 26 27 26 21 20 19 19 20 20 21 24 24 21 20 24 25 29 30 30 29 27 28 31 32 31 30 31 33 34 33 31 32 33 34 34 36
23 23 21 26 25 25 28 28 25 26 26 24 22 22 22 23 21 24 26 27 27 23 21 24 27 27 26 25 24 24 24 26 29 32 32 31 31 32 34 35 36 37 36 36
24 23 20 23 26 20 22 23 24 25 24 22 22 22 30 30 28 27 27 31 31 28 24 23 24 23 21 21 22 25 28 30 30 29 30 30 32 32 33 33 33 32 31 30
15 22 19 23 28 17 18 30 21 20 20 20 21 27 24 24 24 24 24 25 25 25 23 23 21 21 22 24 26 27 27 27 27 27 29 29 29 29 29 28 27 25 25 26
26 17 17 17 17 18 18 19 7 13 15 18 20 23 20 23 25 22 21 22 24 25 23 22 22 23 23 25 25 25 25 25 26 27 28 27 26 25 24 24 25 25 25 26
21 23 20 15 19 21 25 19 17 18 17 18 19 27 27 25 23 22 21 24 26 25 23 23 23 24 25 24 24 24 24 24 26 25 24 24 24 24 24 24 24 25 25 27
18 16 25 21 24 23 21 21 20 20 18 24 27 26 26 25 24 24 24 27 27 26 24 24 25 25 25 24 24 24 25 25 25 24 23 23 23 23 23 23 24 26 28 29
25 18 16 18 20 19 23 22 22 27 26 27 27 25 25 25 26 26 28 29 28 27 26 26 27 26 26 26 25 26 27 28 26 24 23 23 23 23 24 24 26 28 30 31
29 32 30 27 22 22 23 24 24 26 26 27 26 24 26 27 27 29 30 31 29 28 27 28 28 28 28 28 29 29 30 28 25 24 23 23 23 24 25 25 27 29 30 32
32 22 25 26 25 21 22 23 21 22 26 28 26 23 25 26 29 31 33 32 31 30 30 30 31 31 31 31 32 32 30 26 24 23 23 23 24 23 24 27 29 29 31 33
29 28 27 28 28 28 24 17 19 21 24 25 25 26 28 30 32 35 35 35 35 33 33 34 35 35 35 34 33 32 28 24 24 23 23 23 23 25 29 26 27 30 32 35
27 32 31 26 31 32 33 24 24 21 24 27 28 29 29 33 36 38 38 38 38 38 38 39 39 39 38 36 33 28 24 23 23 23 23 23 24 26 26 28 31 34 36 38
30 33 34 33 31 30 27 31 31 31 29 28 29 31 32 34 37 43 44 45 45 43 43 44 43 42 40 36 29 25 23 21 22 23 24 25 26 27 28 29 31 34 37 40
29 27 27 26 28 28 28 31 32 29 27 31 33 35 37 39 43 47 48 48 48 47 47 46 47 45 36 27 24 23 22 21 22 24 25 27 28 29 30 32 34 36 39 41
31 30 33 35 36 37 37 38 33 30 33 33 37 41 43 47 48 49 50 51 50 48 49 47 39 30 25 22 21 19 19 19 23 27 29 30 31 32 33 35 36 39 41 43
29 27 32 33 30 29 32 34 34 39 41 38 41 45 47 49 47 44 46 46 45 42 35 26 26 22 20 19 20 22 22 24 27 30 31 33 34 35 36 37 39 41 42 43
32 30 24 23 23 24 25 27 29 31 34 37 38 39 38 37 38 39 34 31 28 24 22 22 21 20 19 20 22 24 27 29 31 33 35 36 37 37 38 40 41 43 43 43
26 27 25 30 30 27 27 32 32 28 28 25 25 24 23 23 21 19 19 16 17 18 19 18 17 19 22 25 28 29 31 34 37 38 39 40 40 40 41 42 42 42 42 42
30 29 23 21 17 18 22 24 20 15 13 12 9 8 8 9 11 13 13 13 14 15 16 19 22 25 26 28 31 33 36 38 39 41 42 42 42 42 42 42 42 42 42 41
1 1 1 2 2 3 4 3 2 2 2 3 4 6 7 9 10 11 12 13 16 19 22 24 25 27 29 33 36 38 40 41 42 43 44 44 43 42 41 41 41 41 41 40
7 8 9 10 9 9 8 6 5 4 1 2 5 7 8 10 12 15 19 21 23 25 27 28 30 33 36 38 40 42 43 44 44 44 44 43 42 41 41 41 41 41 40 39
10 9 8 8 7 5 2 1 1 2 3 5 7 10 13 16 19 22 24 25 27 29 32 34 36 38 40 42 43 44 44 44 44 44 43 42 42 41 41 41 40 40 39 37
7 7 7 7 6 6 7 7 8 9 11 14 16 19 21 23 25 26 28 30 32 35 37 37 40 41 42 43 44 45 45 45 44 43 42 42 41 40 40 40 39 38 37 35
6 7 8 9 11 12 13 14 16 17 19 20 22 23 25 26 28 30 32 34 36 37 40 43 44 45 45 46 46 45 45 44 43 42 41 40 40 40 39 38 37 36 34 32
9 10 11 12 13 14 15 16 18 19 21 23 25 27 29 31 33 35 37 39 40 42 43 45 46 47 47 47 46 46 45 44 43 42 40 40 39 38 36 35 33 32 31 29

GFSNGP_700_spd_045.txt.gz
Wind_Speed
43 34 27 25 29 34 34 35 33 30 23 27 27 26 24 26 27 26 20 18 17 18 21 21 17 19 20 21 24 27 28 27 22 22 19 19 21 22 23 24 27 30 33 35
28 34 35 38 29 32 32 23 29 31 31 28 22 21 26 24 23 15 28 25 24 24 24 28 27 23 23 23 23 26 25 22 20 21 21 23 24 24 26 29 31 34 35 35
33 33 32 37 48 35 26 28 30 31 27 26 28 26 21 20 17 22 33 30 26 27 26 25 31 28 23 25 24 25 29 30 27 27 27 25 25 28 31 33 31 32 32 32
26 29 12 36 38 40 27 33 30 21 22 19 20 19 27 24 21 19 28 28 29 30 31 31 31 29 26 24 28 30 33 34 31 27 27 28 31 28 28 30 30 30 30 32
24 32 22 31 17 16 29 34 29 23 24 31 25 23 24 27 20 18 24 25 26 29 31 33 30 28 28 27 27 28 30 30 28 30 30 26 28 31 31 29 28 29 30 31
14 13 16 25 28 26 18 33 23 23 21 23 28 27 28 25 26 26 25 26 29 29 30 27 30 31 30 29 27 27 27 27 26 25 27 29 30 29 28 28 29 30 31 33
9 4 10 7 23 26 25 25 25 18 23 12 25 32 26 23 22 22 23 27 29 27 28 30 29 27 27 28 27 26 25 25 25 26 27 29 28 27 28 29 30 31 32 32
5 6 9 10 18 22 19 29 23 29 23 18 20 17 16 19 23 22 23 25 27 26 27 28 26 24 24 25 25 25 25 25 25 27 29 28 28 29 30 31 32 31 32 32
14 11 8 15 17 17 14 16 15 22 25 30 23 27 23 22 21 23 25 28 27 25 25 26 24 23 24 26 26 26 26 27 29 30 30 30 31 32 32 32 31 31 33 33
18 24 19 27 24 26 24 15 13 10 13 18 21 19 21 23 22 24 26 28 25 25 25 26 25 26 28 29 28 29 30 30 32 33 34 35 35 35 33 32 33 32 33 33
26 19 15 16 18 21 36 20 14 19 19 17 20 24 23 24 23 24 26 26 25 25 27 29 30 31 32 32 33 34 34 34 36 36 38 37 36 35 34 34 34 32 30 29
25 19 19 17 21 24 22 21 17 24 20 23 20 20 18 22 24 25 26 25 25 26 29 32 34 36 37 38 39 38 38 38 40 40 40 38 36 35 35 33 33 30 27 26
22 18 17 21 20 21 25 23 25 25 23 22 24 17 15 15 18 23 27 26 27 28 31 35 39 41 43 44 44 43 42 42 43 41 40 38 37 37 33 31 26 26 29 28
28 26 25 25 23 26 28 27 30 27 20 18 20 27 31 25 28 30 31 31 31 32 34 37 40 44 47 48 49 47 46 44 43 41 39 40 37 30 26 28 31 30 28 29
24 27 30 29 29 29 29 29 28 28 28 25 24 29 31 26 31 37 37 36 36 35 37 40 43 47 49 49 51 48 44 40 39 41 42 36 29 30 32 30 28 29 31 32
30 28 27 27 27 28 29 28 27 26 24 23 24 26 26 30 38 36 36 40 41 37 41 45 46 48 48 49 48 46 45 46 41 32 30 28 28 29 29 29 29 31 36 38
20 19 19 20 19 19 20 23 22 22 22 23 23 24 27 32 34 36 40 36 42 45 46 45 41 39 38 38 38 36 29 25 27 27 25 25 25 26 27 29 32 34 36 37
16 17 19 20 19 21 22 21 22 22 20 20 23 23 25 29 34 37 36 39 39 41 36 33 31 30 28 25 22 22 22 22 21 21 22 24 27 29 31 33 34 36 38 40
29 30 28 28 27 28 31 30 26 22 24 26 27 26 23 27 28 28 29 30 30 27 25 23 17 13 13 14 15 17 19 20 23 25 28 29 31 33 35 37 38 39 40 41
24 26 28 28 27 22 21 22 26 31 27 21 20 19 16 16 17 16 16 18 17 14 10 9 10 11 13 15 17 20 23 26 28 31 32 34 36 38 39 40 41 41 42 42
4 2 2 3 4 6 6 4 3 3 2 2 1 2 2 3 3 3 3 4 6 8 9 10 12 14 18 21 24 27 29 32 33 35 37 38 39 40 41 42 43 43 43 42
14 13 14 14 13 12 13 12 11 11 10 9 7 6 4 3 4 5 6 7 8 11 13 17 20 22 25 28 30 32 34 35 37 38 40 41 43 44 44 44 44 43 42 41
15 14 14 13 12 11 11 10 9 8 7 6 6 5 5 6 8 9 11 13 16 19 21 24 26 28 30 33 34 36 38 40 41 43 43 44 44 44 43 42 42 41 40 39
9 8 7 8 8 7 5 5 5 5 5 6 7 9 10 12 14 17 19 21 22 24 26 28 31 33 35 36 38 39 40 41 42 42 42 42 41 41 41 41 40 40 39 37
6 7 8 8 7 8 9 9 9 10 11 12 14 15 16 18 19 21 24 26 28 29 31 32 33 35 36 37 38 39 39 40 41 40 40 38 38 36 35 35 35 34 33 32
8 8 9 10 11 12 13 14 15 15 16 17 19 20 22 23 25 27 28 29 31 33 34 35 34 34 34 34 35 35 35 35 35 34 33 31 31 30 29 28 27 27 27 27
10 10 11 12 14 15 16 17 18 19 20 21 23 24 25 26 27 28 29 28 28 28 29 30 31 31 32 32 32 31 30 30 29 28 27 26 26 25 24 24 23 23 23 23

GFSNGP_700_spd_048.txt.gz
Wind_Speed
34 32 38 26 34 32 29 33 30 28 34 29 26 24 20 23 24 24 29 27 26 27 24 21 19 19 20 21 22 19 22 24 28 24 22 19 18 20 21 23 26 28 28 31
25 30 31 35 36 33 38 32 37 33 39 33 29 28 29 28 24 24 25 31 27 33 26 26 25 25 20 22 22 23 24 25 26 25 23 21 23 25 26 23 26 28 30 32
15 25 20 32 49 38 36 31 20 32 23 20 25 28 26 27 30 24 26 21 21 33 32 32 27 26 30 28 22 24 25 25 25 26 26 26 26 27 26 24 27 32 35 37
11 15 16 35 24 37 44 42 35 25 26 19 20 21 17 18 19 25 27 21 23 28 28 29 30 29 30 31 24 24 24 27 27 29 31 30 29 29 28 30 33 34 34 35
13 10 18 26 22 15 29 48 46 33 23 24 23 32 29 25 21 23 24 25 22 27 30 27 28 32 30 26 26 27 28 28 29 32 34 34 33 32 33 33 31 32 33 32
19 8 6 18 18 24 7 17 13 20 27 28 28 30 31 35 32 26 23 23 23 22 23 25 28 30 28 26 27 29 30 29 31 32 32 33 34 32 30 31 32 33 32 33
19 9 21 35 22 20 28 25 16 18 18 15 18 25 24 28 24 20 20 20 22 25 26 25 27 27 28 30 30 29 30 32 32 29 28 27 26 28 30 32 33 32 32 33
11 9 15 28 8 22 13 13 21 20 23 26 20 17 17 14 18 20 19 21 24 24 26 25 26 26 28 30 29 28 28 29 27 25 25 26 28 30 31 32 32 32 33 33
10 15 22 29 27 12 12 12 16 23 26 21 24 20 14 14 19 19 20 21 20 21 23 24 24 25 28 29 27 25 26 26 26 27 28 30 31 32 32 32 32 32 34 34
29 32 27 21 19 23 23 20 14 13 20 22 25 15 16 20 21 18 18 21 22 23 25 26 26 25 26 27 26 26 27 29 31 32 33 33 34 34 33 34 34 34 34 33
34 31 30 26 16 12 15 27 23 22 19 23 17 8 17 16 21 22 24 22 24 25 25 25 25 25 26 28 28 30 33 35 36 36 37 37 38 37 37 37 36 35 35 35
24 22 23 19 17 14 16 15 18 28 33 15 6 16 17 16 17 21 21 21 23 26 26 26 26 26 28 30 32 35 38 40 40 41 42 41 41 40 39 38 37 37 36 34
21 19 22 19 19 22 24 21 20 19 21 44 27 12 23 18 14 16 20 22 23 23 24 26 28 28 30 32 36 40 42 43 44 45 45 44 44 43 42 40 38 35 28 28
28 25 20 19 22 21 21 21 23 25 23 19 18 21 24 19 23 26 29 33 33 30 30 32 32 33 34 36 38 41 43 44 45 45 46 46 44 43 43 43 38 34 37 39
17 20 21 23 22 22 22 23 23 24 24 25 24 24 27 29 30 29 28 31 30 33 32 31 34 36 37 38 39 41 44 45 46 45 44 45 46 45 40 37 36 35 36 39
27 23 23 24 24 24 25 28 28 29 28 25 21 21 21 25 26 28 31 32 32 33 33 36 38 38 39 41 40 39 37 36 37 38 37 36 34 33 33 31 31 32 33 33
24 25 26 23 20 20 21 20 18 15 15 16 19 20 19 21 27 30 32 35 38 39 39 39 40 35 31 29 30 30 32 33 32 29 26 26 25 25 26 28 30 32 33 36
20 19 18 21 14 23 25 25 20 20 21 20 16 16 17 19 24 30 35 40 39 36 34 30 27 24 25 26 28 28 25 22 21 21 21 22 24 26 29 31 33 36 38 40
22 20 20 24 26 24 24 25 25 25 23 19 18 15 16 20 22 25 27 27 26 24 20 19 21 22 21 20 19 18 17 18 20 21 23 26 29 32 34 36 38 41 42 43
21 21 21 22 23 20 17 16 15 15 15 14 14 14 15 16 16 15 15 16 16 18 19 18 16 15 15 15 16 17 19 21 25 28 30 33 35 37 39 41 42 44 45 45
4 3 2 4 3 3 3 5 7 5 5 4 3 1 2 3 4 5 6 7 8 10 11 12 13 14 16 18 21 24 27 29 32 35 37 38 40 42 43 44 45 46 47 47
13 12 12 12 11 10 11 10 8 8 6 5 3 2 1 1 3 5 7 8 9 11 13 16 19 21 24 26 29 31 33 35 37 39 41 42 43 44 44 45 46 47 47 47
12 11 10 9 9 10 10 8 7 7 7 7 7 7 8 9 10 11 13 15 17 19 21 23 25 27 30 32 34 36 38 40 41 42 42 43 44 44 44 45 45 45 44 43
9 8 7 7 7 8 7 7 7 8 8 9 10 11 13 14 16 17 19 20 22 24 26 28 30 32 34 35 36 37 38 38 37 37 38 38 39 39 39 39 39 38 38 38
6 7 8 9 8 8 9 10 11 11 12 13 14 16 17 18 20 21 23 25 26 27 29 30 30 31 31 31 31 32 32 33 33 33 34 33 33 32 32 32 31 31 30 30
8 8 9 10 11 12 13 13 13 14 16 17 18 20 22 23 24 24 25 26 27 26 25 26 26 26 27 27 28 28 29 29 29 30 30 30 30 30 29 28 27 27 27 26
9 10 12 13 14 15 16 17 18 19 21 22 23 24 24 24 23 22 22 22 23 24 25 25 25 25 26 26 26 26 27 28 28 28 28 27 27 26 26 26 26 25 25 24

GFSNGP_700_spd_051.txt.gz
Wind_Speed
21 21 22 26 31 24 32 36 32 28 32 33 29 26 27 26 25 20 20 22 23 25 21 22 24 22 16 14 13 15 21 25 28 31 36 38 35 29 28 33 31 26 28 30
24 16 20 28 34 33 39 35 39 29 30 29 28 27 27 29 25 28 30 31 31 26 26 27 29 27 20 16 16 18 21 25 26 29 29 30 34 30 30 28 28 29 30 32
11 15 20 23 33 38 36 37 37 37 33 26 32 31 27 26 30 32 35 28 23 23 27 25 29 29 22 21 18 23 26 27 27 27 28 31 32 30 32 32 30 30 30 30
13 16 5 9 12 18 33 39 38 41 32 25 21 24 26 28 25 26 27 30 24 24 25 23 24 28 24 24 23 25 29 29 27 26 27 29 32 31 31 30 30 32 33 36
6 3 20 36 19 11 21 21 29 41 41 38 26 24 26 25 24 24 19 22 25 27 29 24 25 24 26 27 28 29 32 27 26 26 26 28 30 31 32 31 35 35 37 38
10 4 5 44 39 37 31 37 19 23 37 49 45 43 38 28 27 28 33 27 25 25 31 27 28 27 28 29 29 29 27 26 27 28 29 29 31 34 36 37 38 38 38 35
20 12 17 36 31 23 18 21 19 19 12 22 37 47 33 29 31 32 32 32 33 29 28 26 24 27 28 26 27 25 27 27 28 30 31 33 34 33 35 36 37 33 34 35
16 11 12 16 15 14 10 13 14 19 26 22 20 23 24 23 18 20 22 23 23 25 24 22 21 22 25 27 26 27 28 29 30 30 30 29 27 29 30 31 33 34 34 34
17 17 15 17 21 25 21 19 16 9 18 28 30 32 31 22 15 15 15 21 22 21 19 20 21 22 24 24 26 28 29 31 31 30 29 27 28 30 31 33 34 34 35 35
29 29 25 27 36 23 21 17 22 24 13 17 17 24 24 27 20 18 16 19 19 16 17 21 22 22 23 25 27 29 30 31 31 30 29 30 32 34 35 36 37 37 38 39
25 29 29 27 33 22 19 18 16 20 20 14 16 20 25 31 30 27 26 20 19 20 21 21 21 22 23 26 28 29 30 30 31 31 33 35 36 37 38 39 40 41 41 41
29 27 27 25 21 21 21 21 20 22 19 17 19 19 22 29 30 21 23 19 18 22 22 20 21 23 24 24 27 28 30 31 32 35 37 39 40 41 42 43 43 43 42 43
34 27 26 23 21 24 21 21 21 25 20 18 17 21 29 27 23 34 25 32 18 19 23 24 23 23 24 27 30 30 30 31 34 38 40 41 42 43 45 46 47 48 47 47
32 31 29 28 22 21 20 22 26 23 22 22 22 21 21 16 25 30 23 22 21 25 26 23 25 28 30 28 31 32 32 33 33 35 38 41 43 43 43 43 43 45 45 43
28 26 27 26 22 21 23 25 27 23 24 26 29 28 25 23 25 25 21 26 30 32 30 29 29 29 33 32 33 35 36 35 34 33 32 30 31 33 35 36 37 38 37 37
32 36 37 20 18 17 19 23 24 25 23 23 25 26 24 22 20 23 30 31 29 36 29 32 35 35 37 36 35 32 31 29 28 28 29 31 33 34 34 34 32 32 32 32
28 26 27 22 19 19 19 19 19 21 21 21 20 17 19 20 20 22 27 34 36 36 32 35 37 38 35 31 26 23 23 25 28 30 32 33 32 31 30 29 29 30 31 33
16 14 17 20 19 21 18 22 21 24 25 25 23 23 21 20 20 24 27 31 31 33 32 31 27 21 19 20 22 24 27 29 29 28 26 25 24 25 26 28 30 32 35 37
21 24 23 23 20 20 25 26 23 23 23 22 18 17 18 19 19 20 21 21 20 17 16 16 16 19 21 23 23 22 22 21 20 21 22 23 25 27 30 33 36 38 40 42
11 12 16 15 14 14 14 11 7 7 8 6 5 5 7 8 10 9 9 10 12 13 13 14 15 15 15 15 16 17 18 20 22 25 27 30 32 35 37 39 41 43 45 47
3 3 3 4 5 6 8 9 8 6 7 7 5 3 2 3 3 4 6 8 9 10 12 13 14 15 17 19 21 24 27 29 31 33 35 37 39 40 42 44 45 46 47 48
13 12 12 12 11 10 10 10 9 8 8 6 6 6 7 7 8 10 11 13 14 16 17 19 21 23 25 27 29 31 32 34 36 38 39 40 40 41 41 41 42 42 43 44
12 11 11 10 9 7 7 7 7 7 7 8 9 10 11 12 13 15 16 18 19 21 23 25 26 28 30 32 33 34 35 35 35 35 35 36 36 37 38 38 39 39 38 38
9 8 7 6 6 7 7 8 9 9 10 11 12 13 15 16 18 19 21 22 24 26 27 29 30 31 31 31 31 30 30 31 32 32 32 33 33 34 34 34 33 33 32 32
4 5 6 7 7 8 9 10 12 12 13 14 16 17 19 21 22 23 24 26 26 27 27 26 26 26 27 27 28 28 28 28 28 28 29 30 30 31 31 31 30 29 28 27
6 7 8 10 12 13 13 14 15 16 17 18 19 20 21 22 22 22 22 21 21 22 23 23 24 24 24 24 24 25 25 25 26 26 28 28 28 29 29 28 27 27 26 26
10 12 12 13 13 14 14 16 17 18 19 20 21 20 19 18 17 18 19 20 21 21 22 22 22 23 23 23 23 23 23 24 25 26 27 28 29 29 28 28 27 26 25 25

GFSNGP_700_spd_054.txt.gz
Wind_Speed
10 11 15 19 20 18 20 22 30 29 32 29 26 26 26 24 25 24 24 23 22 22 23 21 19 18 18 18 12 15 16 15 13 18 26 28 30 30 34 33 27 33 33 31
11 11 16 19 19 23 27 26 31 28 32 27 24 24 22 24 22 24 26 25 24 22 22 26 21 21 24 23 15 14 13 14 16 20 23 28 28 30 33 35 38 33 31 33
8 9 14 15 5 7 15 21 21 30 34 32 29 29 27 27 30 29 28 24 26 29 32 28 26 20 21 25 23 18 18 19 22 24 26 26 28 31 34 34 32 33 31 30
11 7 3 10 14 15 11 8 11 22 22 30 30 32 35 23 21 23 22 23 26 26 26 22 21 22 20 23 27 22 22 24 25 28 29 27 28 29 31 32 32 33 33 35
5 8 17 21 20 22 28 31 33 35 28 22 26 36 37 30 26 19 18 21 18 18 20 21 26 26 23 23 26 27 28 25 23 27 29 27 28 28 30 31 33 34 36 37
10 2 4 17 11 16 19 32 32 29 31 25 18 29 34 39 35 29 24 20 23 26 23 24 29 31 29 27 27 28 28 26 24 30 31 32 32 31 33 34 37 37 38 38
19 8 16 19 17 16 10 19 16 24 24 29 18 17 24 31 40 43 39 31 30 27 28 30 30 32 31 29 28 27 28 28 31 32 33 32 34 35 37 36 37 38 40 40
14 8 13 8 2 7 15 24 26 19 23 31 23 16 16 19 22 27 26 29 29 29 30 31 32 30 28 26 28 32 32 34 33 33 35 35 35 37 37 38 38 38 39 38
12 13 14 14 17 22 28 32 29 23 16 26 23 10 15 17 21 22 23 23 25 23 18 16 16 17 19 22 26 28 28 31 33 34 35 34 33 33 29 29 33 36 37 39
22 20 20 24 29 27 31 31 22 19 18 16 18 5 15 18 19 20 24 21 19 15 13 13 23 24 27 29 30 28 29 31 32 33 32 31 30 27 32 35 37 37 37 39
25 25 23 21 20 25 29 27 23 21 21 20 21 24 19 16 15 18 23 23 25 25 20 22 23 24 25 25 25 26 28 29 30 30 29 28 27 31 34 34 36 37 38 40
27 27 24 19 21 24 25 23 20 22 23 21 21 22 20 20 21 19 19 24 31 33 28 30 24 26 23 23 24 24 26 28 27 28 28 28 29 30 32 34 35 37 39 40
32 32 35 34 32 25 30 29 19 17 18 19 20 19 18 18 20 21 23 26 25 29 34 25 22 23 27 28 25 26 27 26 27 29 29 30 29 30 33 34 35 35 36 38
32 29 30 31 29 28 29 28 28 31 24 19 20 19 24 25 24 24 22 21 25 25 23 24 30 29 26 24 23 22 24 28 28 26 27 28 28 27 26 26 27 28 29 31
31 30 29 28 27 25 26 23 30 22 23 23 23 25 26 27 25 24 25 28 29 28 25 27 29 26 34 32 30 27 28 28 28 28 27 24 24 26 26 27 29 31 32 34
28 30 30 28 27 30 33 32 26 30 21 18 19 20 23 22 20 21 23 23 25 31 36 35 35 34 33 33 31 30 27 26 26 23 21 23 25 28 30 32 33 34 34 34
25 20 22 26 25 24 24 22 18 20 21 22 25 25 26 27 21 20 20 22 25 27 27 27 29 26 21 23 22 21 19 19 20 23 25 27 28 28 28 28 28 28 28 29
15 18 19 16 15 16 18 21 21 24 24 24 25 24 23 23 22 21 21 22 22 21 20 19 15 14 14 15 17 19 21 22 22 23 24 23 23 22 23 24 25 27 30 33
20 20 20 23 23 21 21 22 24 25 20 18 16 16 15 14 11 10 10 10 11 12 13 14 14 15 17 18 18 19 18 18 18 19 20 22 24 26 28 30 32 34 37 39
5 8 9 10 13 14 12 12 9 6 5 2 4 5 6 6 6 7 8 9 10 10 10 11 12 14 15 16 17 18 20 21 23 26 28 29 31 33 34 36 37 39 40 42
4 4 3 1 1 3 5 7 8 6 7 7 7 6 6 6 6 7 9 10 11 12 14 15 16 18 20 22 23 25 27 28 29 31 32 34 35 36 36 37 37 37 38 39
13 13 13 12 11 9 9 8 7 7 7 6 6 7 8 9 10 11 13 15 16 17 18 20 22 23 25 27 28 30 30 31 31 31 31 31 32 32 33 33 34 34 35 35
12 11 9 8 6 5 5 4 5 5 7 8 10 11 12 13 14 16 17 19 20 22 23 24 25 26 27 27 28 27 27 27 28 28 28 28 28 29 29 30 31 31 32 32
7 5 4 5 5 5 5 7 9 10 12 13 14 15 16 18 19 20 21 23 24 25 25 25 25 24 25 25 26 26 26 27 27 27 26 26 26 27 28 29 30 30 31 31
0 3 4 6 7 8 10 12 13 14 15 16 18 19 20 21 22 23 23 23 22 21 22 22 23 24 24 24 24 25 25 25 25 25 25 25 27 28 28 29 29 29 28 28
6 7 8 9 10 11 12 13 14 15 17 18 20 21 22 22 21 20 19 20 20 21 21 22 22 23 23 23 24 24 24 24 24 24 25 26 27 28 28 29 28 28 27 26
9 10 11 12 13 14 15 16 17 18 19 19 19 18 16 16 16 17 17 18 19 20 21 22 22 23 23 23 23 24 24 24 24 24 25 25 26 27 27 27 27 26 26 26

GFSNGP_700_spd_057.txt.gz
Wind_Speed
2 4 5 6 7 11 13 11 10 11 13 12 16 17 18 21 21 20 23 24 23 22 19 20 19 18 16 17 17 17 18 21 23 23 22 23 26 27 27 30 38 36 37 47
2 5 7 10 12 16 15 16 17 14 14 16 18 18 16 15 18 22 24 21 20 25 25 21 22 20 17 19 22 22 19 16 15 17 16 16 18 22 27 29 32 37 44 45
8 8 9 12 8 4 8 10 9 6 10 17 21 25 26 19 15 23 28 29 29 26 28 30 26 28 28 25 23 25 25 21 21 23 21 21 22 23 26 30 31 33 33 38
5 6 5 9 14 14 12 9 9 17 25 27 21 22 29 25 24 24 23 24 27 23 28 30 33 33 29 29 24 25 30 28 25 24 23 25 27 25 26 30 32 32 32 34
4 8 10 8 8 11 12 16 18 24 23 21 22 23 18 29 33 29 28 23 25 21 21 20 26 28 28 29 27 26 28 32 32 29 29 28 31 34 32 32 33 34 35 36
7 3 4 3 10 5 10 17 6 12 15 21 20 23 19 19 33 38 32 28 29 31 22 22 22 22 29 32 33 30 29 31 34 34 31 37 37 37 37 36 37 37 36 36
14 7 7 13 15 12 6 5 11 16 17 18 16 15 21 20 19 18 26 38 38 34 37 31 29 26 28 31 34 33 36 35 36 37 36 36 37 39 39 37 37 37 38 39
18 8 10 1 11 3 7 12 17 20 19 18 18 18 18 20 27 20 14 18 23 28 33 34 34 37 34 36 36 40 39 37 35 35 35 35 38 41 40 40 40 40 40 39
10 7 7 7 9 14 19 20 23 26 23 23 19 16 19 19 25 27 15 16 16 17 22 27 32 35 33 35 36 37 32 30 31 30 33 40 40 38 39 39 39 37 35 31
17 14 16 23 22 23 25 27 29 29 26 23 24 22 19 16 23 25 16 17 15 16 20 18 19 22 22 21 20 21 23 26 28 30 38 42 37 36 35 33 27 26 28 28
20 19 19 20 20 18 18 18 21 21 23 26 25 25 20 20 19 17 11 11 14 17 15 21 18 17 20 22 24 26 27 30 32 39 38 35 33 31 26 25 29 33 35 35
20 18 20 22 26 23 25 28 25 24 26 31 29 34 29 14 18 18 23 18 19 21 21 30 27 24 21 19 21 25 25 25 29 27 26 25 24 22 22 28 31 33 34 33
28 27 28 28 28 29 28 25 26 24 24 23 27 32 25 17 14 18 22 23 25 20 24 26 23 29 33 40 21 24 28 28 31 25 21 18 17 17 19 22 24 27 29 30
28 28 30 31 31 30 30 27 24 25 24 26 25 29 30 25 26 25 24 26 26 23 24 25 25 30 33 32 26 24 28 25 26 19 21 21 22 23 23 25 25 24 23 25
25 25 24 24 29 30 27 29 26 30 30 32 26 27 23 19 22 23 24 22 24 24 23 26 29 29 30 29 28 30 27 26 23 24 24 24 23 22 21 21 22 24 26 28
16 20 26 25 29 33 32 29 31 22 19 15 16 20 21 14 22 25 26 23 19 19 18 21 23 24 26 26 20 18 18 19 16 15 16 17 19 21 23 25 26 27 28 29
18 23 21 20 18 22 22 23 22 19 19 19 20 21 20 20 20 21 20 21 21 21 21 19 15 15 15 14 13 14 14 15 17 18 19 20 22 23 24 24 25 25 24 25
21 20 21 20 22 21 17 16 17 18 18 22 20 19 21 17 14 13 10 9 10 9 10 11 10 9 9 10 11 12 14 15 16 17 18 18 19 19 19 21 23 25 28 30
21 22 23 27 26 23 23 17 14 14 15 11 6 4 3 3 3 3 4 5 7 8 8 7 8 9 10 11 11 12 12 14 15 17 18 20 22 24 26 27 28 29 31 33
14 10 13 11 8 6 3 3 1 1 2 5 5 5 5 5 6 7 7 7 8 8 8 9 10 12 13 15 16 17 18 19 20 21 23 24 25 25 26 27 27 28 29 30
5 4 3 3 4 6 8 10 11 9 9 8 7 7 7 8 9 10 12 14 15 16 15 16 17 18 20 20 21 22 23 24 24 25 24 24 24 25 25 26 26 27 28 28
13 14 14 13 11 9 8 7 6 6 6 6 7 8 10 11 12 14 15 16 17 18 19 20 21 22 22 23 22 22 22 22 22 22 22 22 22 22 23 23 23 23 25 26
13 11 9 7 4 3 4 5 5 6 8 9 10 11 12 13 14 15 16 17 18 19 19 19 19 19 18 19 19 19 19 19 19 19 19 20 20 20 20 21 22 24 25 26
7 5 2 2 5 5 5 7 8 10 11 12 13 14 15 16 18 18 19 18 18 18 18 17 18 18 19 19 20 20 20 20 20 19 20 20 20 20 21 22 24 25 26 27
1 2 5 5 7 8 9 9 10 11 13 14 16 17 18 18 18 17 16 15 15 16 16 17 18 19 19 20 20 20 20 20 21 21 21 21 22 23 23 24 25 25 26 26
6 6 8 9 10 11 12 13 14 15 16 16 17 17 16 15 14 13 13 14 14 15 16 18 19 20 21 22 22 22 23 23 23 23 23 23 23 23 24 24 25 25 25 25
10 11 12 12 12 13 13 14 15 16 16 16 15 14 12 12 12 12 13 14 16 17 18 19 20 21 22 23 23 23 23 23 23 23 23 23 23 23 23 23 24 24 24 23

GFSNGP_700_spd_060.txt.gz
Wind_Speed
3 6 6 8 9 9 11 12 11 10 13 12 13 20 19 19 22 22 20 17 18 19 20 21 19 22 23 22 22 20 18 18 23 29 31 32 33 32 32 34 34 36 39 43
2 3 3 5 8 10 10 12 14 15 16 13 16 18 19 18 24 25 24 23 15 20 20 22 25 24 29 27 24 24 26 23 22 25 29 33 33 33 33 33 33 35 39 41
10 6 6 10 16 11 10 6 7 10 8 7 9 9 14 25 26 23 24 31 31 26 26 24 26 28 26 30 30 25 24 28 29 26 25 26 27 25 27 27 27 32 37 40
9 6 7 7 9 12 11 7 7 5 8 13 16 14 16 17 23 33 32 28 30 34 36 31 32 33 33 33 34 34 33 30 33 33 30 30 29 29 30 31 31 31 33 36
9 17 11 5 10 15 12 7 8 4 8 10 11 12 9 16 21 24 28 35 35 36 37 35 31 27 28 39 42 39 35 35 33 38 37 37 38 37 37 35 36 35 36 36
9 9 6 4 11 13 10 8 2 4 8 10 12 7 11 18 20 23 21 22 35 39 35 33 36 28 26 28 28 36 35 38 37 36 42 43 41 42 42 41 39 38 39 38
17 12 8 13 10 9 10 4 7 6 9 11 9 10 15 19 21 20 24 22 23 35 41 42 39 42 34 31 30 30 36 40 41 39 39 45 47 46 43 43 42 38 42 45
20 13 10 8 13 9 9 6 11 12 16 16 15 15 17 21 26 29 26 23 23 25 32 44 44 43 39 45 41 37 35 35 37 43 42 43 47 46 43 45 42 41 42 48
13 12 8 9 13 14 11 17 19 19 21 20 18 18 17 19 22 27 33 23 20 27 21 21 28 37 42 43 46 45 48 44 41 43 46 40 40 43 42 38 39 41 46 46
9 7 9 11 14 19 20 20 18 16 17 16 19 22 24 25 24 26 26 30 23 19 19 12 15 19 20 28 39 44 44 44 40 37 38 39 35 35 36 39 39 40 47 40
12 12 15 19 19 16 12 15 19 22 24 22 23 24 26 29 27 28 28 18 24 24 31 12 15 16 19 19 21 23 26 26 25 27 31 33 34 35 36 42 45 43 35 32
13 15 15 19 17 18 23 24 25 28 28 27 25 26 27 31 32 30 32 17 15 20 21 17 19 22 25 22 22 21 22 26 27 29 30 35 38 33 28 33 32 27 27 28
15 16 20 25 28 27 28 29 25 24 25 25 24 26 29 28 28 28 28 24 19 20 19 23 27 21 23 26 26 34 37 41 38 31 30 29 28 22 21 19 21 24 26 29
19 16 21 23 29 28 23 24 26 26 25 27 28 32 31 31 28 26 23 22 19 19 21 18 26 23 21 28 26 25 22 23 24 26 26 21 17 18 20 21 22 23 24 24
21 22 26 29 27 24 22 24 27 30 31 25 23 20 17 19 24 20 19 17 20 21 20 19 20 26 25 20 22 23 20 19 18 17 16 16 15 15 18 17 18 20 23 24
23 26 24 24 23 22 23 26 23 24 24 23 21 21 19 17 13 15 17 19 17 16 16 17 16 17 15 14 11 11 11 14 14 15 15 15 17 18 19 21 23 24 25 25
24 27 24 19 21 23 25 23 21 20 18 18 19 17 14 18 19 18 14 13 10 10 10 11 12 10 12 11 10 10 11 12 13 14 15 16 18 20 21 21 22 21 21 22
23 23 21 22 22 25 23 22 21 18 16 16 13 12 10 10 8 8 7 5 5 6 7 8 8 7 7 9 10 11 11 11 12 13 14 15 17 18 19 21 22 24 26 27
20 23 24 23 22 23 21 18 15 14 11 9 5 2 2 2 3 3 3 5 6 7 7 7 7 8 10 11 13 14 15 15 16 17 18 19 21 22 24 26 27 28 29 29
19 20 16 12 9 6 4 4 3 3 3 4 5 4 4 3 3 4 5 6 8 10 11 12 12 12 13 14 15 17 18 19 20 21 21 22 23 23 24 24 25 25 25 25
7 5 3 3 3 4 6 8 9 7 6 5 4 2 4 7 7 7 8 9 11 12 13 14 15 16 17 18 18 18 19 19 19 19 19 19 20 20 20 21 21 22 22 23
9 11 12 12 10 7 7 6 4 2 3 4 5 6 7 8 10 11 12 14 15 16 17 17 17 17 17 17 17 17 17 17 17 18 18 18 19 19 19 20 20 21 22 23
14 12 10 7 5 2 2 4 5 5 6 7 8 10 11 13 14 15 17 17 18 18 18 17 17 16 16 16 16 17 18 18 18 18 18 19 19 19 19 20 20 21 22 23
8 5 3 1 3 5 5 6 7 8 10 11 13 14 15 16 17 17 17 16 16 15 15 15 15 15 16 17 17 18 18 19 19 19 20 20 20 20 21 21 22 23 23 24
2 2 4 6 6 8 9 10 11 13 14 15 16 17 17 17 16 15 14 13 13 13 13 14 15 16 17 18 19 20 21 21 22 22 23 23 23 23 23 23 23 24 24 24
5 7 8 9 10 12 12 14 15 16 16 17 17 16 15 13 12 12 12 12 12 13 15 16 17 18 19 20 22 23 24 24 24 24 24 24 24 24 24 24 23 23 24 24
10 11 12 13 14 14 15 16 17 17 17 16 15 13 11 11 11 12 12 13 15 16 17 19 20 21 22 22 23 24 25 25 25 25 25 25 24 24 23 23 23 23 23 23

GFSNGP_700_spd_066.txt.gz
Wind_Speed
18 17 17 23 18 20 20 17 8 10 19 12 12 8 9 14 17 18 6 7 6 8 7 11 8 13 15 14 15 15 22 24 23 21 18 19 23 26 27 29 30 29 29 30
15 13 13 16 15 21 20 20 16 12 16 10 8 6 8 3 15 16 20 23 18 17 14 15 12 12 13 18 23 20 19 19 27 28 27 23 23 24 28 30 32 34 34 33
6 9 8 15 16 18 17 18 14 15 16 14 9 8 2 6 9 12 15 19 24 19 21 28 26 25 25 23 21 25 25 24 26 29 33 31 31 30 28 30 33 36 39 39
8 6 4 0 7 18 12 17 8 12 9 9 5 5 3 6 9 13 15 17 17 21 24 24 26 26 24 25 28 27 28 31 32 32 34 35 34 33 32 34 36 36 37 42
6 7 5 2 5 5 21 11 20 7 11 8 5 3 6 3 8 16 20 17 19 24 25 24 25 29 31 31 30 28 28 26 27 30 32 35 39 37 37 38 39 41 41 43
11 6 3 2 12 10 10 8 8 11 6 4 4 5 7 5 10 15 21 23 23 25 26 29 31 30 30 33 33 37 38 37 36 35 36 36 37 41 43 43 46 47 47 47
23 12 7 8 5 9 13 8 9 10 10 10 9 9 6 11 17 21 20 19 22 25 26 27 27 28 31 33 31 32 42 45 41 39 42 44 38 36 37 43 47 49 49 51
24 15 16 3 4 4 11 13 13 12 6 5 8 10 16 19 16 17 19 21 23 26 26 28 30 32 32 31 35 36 35 39 41 43 42 41 44 44 43 39 36 42 44 48
19 25 7 14 14 17 16 12 8 4 5 6 8 11 14 17 17 19 20 22 24 26 29 32 34 35 36 36 35 33 39 37 35 40 44 45 45 44 43 46 40 43 42 47
11 12 19 11 13 17 18 12 7 5 7 7 11 14 16 19 19 21 22 23 24 27 28 29 32 32 34 30 29 33 35 35 31 33 38 42 44 44 43 43 45 44 47 45
14 11 15 17 16 8 13 6 9 12 15 15 17 19 22 23 24 25 25 26 28 29 29 28 26 27 26 29 27 29 30 35 34 29 28 29 32 35 39 41 42 49 47 52
10 1 20 15 8 4 4 8 13 16 21 23 23 24 24 23 24 25 26 28 28 29 29 29 31 30 28 27 28 27 26 23 22 26 12 9 13 17 24 28 32 25 33 25
4 6 6 6 7 12 15 17 21 23 25 28 25 23 21 24 25 27 27 25 25 26 26 26 27 27 26 27 29 27 28 22 24 23 30 22 26 24 27 13 13 19 16 9
6 16 16 14 14 16 18 20 23 25 26 24 22 22 24 27 27 24 24 24 23 20 19 21 21 23 25 25 26 22 19 20 19 19 16 15 16 15 15 15 12 12 14 16
12 15 18 16 17 19 24 27 27 25 24 22 23 24 25 27 27 22 20 18 18 20 21 23 22 20 20 18 18 16 14 13 13 14 13 12 12 12 11 12 14 16 17 18
17 17 14 17 17 20 22 23 22 21 21 19 20 22 24 24 22 20 18 19 19 19 19 19 18 17 16 15 15 15 14 14 14 14 15 16 16 17 17 19 19 20 20 21
24 23 22 18 22 25 25 24 21 18 20 22 23 23 22 20 20 18 17 17 16 15 15 14 14 14 13 12 12 12 12 12 13 14 14 15 16 17 19 20 20 21 23 24
23 21 22 26 28 25 23 19 19 20 20 21 20 20 17 15 14 13 12 11 11 10 9 8 9 11 13 14 15 16 16 16 17 17 18 19 20 21 22 23 23 24 25 26
21 21 21 21 20 19 19 19 18 17 14 11 11 10 8 7 7 7 7 7 9 11 13 14 14 15 16 17 18 19 20 21 21 21 22 22 22 22 23 23 23 23 24 24
15 15 16 15 15 14 12 10 8 6 4 3 4 2 3 4 6 9 12 13 13 14 16 17 18 19 20 21 22 22 22 22 22 21 21 20 19 20 21 21 21 21 21 21
9 7 6 5 4 3 3 2 1 2 3 1 1 4 7 10 11 12 14 16 17 19 20 22 22 23 23 23 23 23 21 20 19 19 19 19 19 19 20 20 21 22 22 23
3 2 2 3 5 5 5 4 2 1 4 6 7 9 11 13 15 17 18 20 21 22 22 23 23 22 22 21 20 19 19 19 19 20 21 21 22 22 23 24 24 25 25 26
5 8 8 7 5 2 1 4 5 7 9 11 12 14 15 17 19 20 21 22 22 22 21 20 19 18 17 17 17 18 19 20 20 21 21 22 22 23 24 24 25 25 25 26
8 5 3 1 4 6 8 9 10 12 13 15 17 19 20 21 21 22 22 21 20 19 18 17 16 16 17 18 19 20 20 21 22 22 23 23 24 25 25 25 26 26 26 26
2 1 4 7 10 11 12 14 15 17 19 20 20 21 22 23 22 21 20 19 18 16 15 15 15 16 18 19 19 21 22 22 23 25 26 27 27 28 28 29 28 28 28 27
5 8 11 13 15 16 17 19 21 21 22 22 22 23 22 21 20 19 18 16 15 14 14 15 16 17 19 21 22 24 26 27 27 29 29 30 30 30 30 30 29 29 28 28
12 14 16 17 18 20 21 22 24 23 23 24 22 21 20 19 18 16 15 14 14 14 14 16 18 20 22 25 26 27 28 29 29 29 30 30 29 28 28 28 27 27 27 27

GFSNGP_700_spd_072.txt.gz
Wind_Speed
10 15 21 16 19 21 24 30 15 14 15 21 23 12 11 8 8 9 9 9 10 15 17 18 21 17 13 11 10 10 12 14 11 10 10 9 13 20 22 22 23 23 24 26
13 11 13 23 24 22 25 25 29 27 23 18 20 14 15 10 4 9 14 4 5 5 4 3 3 8 16 17 17 19 18 20 18 17 14 15 16 14 15 22 27 28 29 30
7 10 18 15 18 21 29 20 28 21 17 19 10 15 15 20 14 3 6 11 7 13 9 7 8 5 6 10 13 18 21 25 26 24 24 24 25 24 24 23 22 26 30 34
11 18 4 4 7 10 18 21 25 18 12 21 17 18 15 14 13 10 7 6 8 8 4 8 13 14 16 17 21 23 24 27 29 30 31 31 30 31 30 30 29 29 28 28
8 12 22 21 3 5 10 14 19 16 19 28 26 21 14 10 7 5 4 2 0 2 5 7 8 11 19 21 19 21 23 25 28 30 34 36 37 36 36 35 36 33 34 35
12 3 4 4 6 6 4 12 16 20 21 15 23 21 17 9 5 3 2 5 7 8 10 12 12 12 14 16 19 21 21 23 25 28 31 34 37 40 41 40 40 41 43 41
23 13 14 26 18 11 6 4 18 23 29 23 21 18 12 8 5 5 7 11 12 13 13 14 16 17 17 17 18 20 22 23 23 24 28 32 35 36 38 42 45 45 45 47
23 12 13 9 8 15 12 11 21 22 24 15 15 16 7 4 8 10 11 14 15 16 17 19 19 18 18 19 20 21 20 19 20 22 24 25 27 34 38 39 39 41 46 50
15 16 0 7 13 14 13 16 18 17 17 15 15 5 6 7 10 14 16 17 19 21 21 22 23 23 24 25 24 24 25 26 29 30 28 26 25 25 30 33 35 35 35 39
15 15 23 20 12 16 15 15 13 3 4 6 7 8 11 12 13 15 17 19 20 20 21 21 21 22 24 25 27 27 28 28 29 30 30 30 28 25 22 23 23 24 29 34
22 14 19 19 19 25 22 18 16 15 13 11 10 10 11 13 16 17 18 18 18 18 19 20 22 23 24 25 25 26 27 27 26 26 26 27 26 24 22 21 20 18 17 20
20 23 20 21 17 17 14 17 14 15 12 12 12 13 15 16 16 16 16 16 16 18 20 22 23 22 23 23 22 22 23 24 24 25 26 25 24 22 19 19 17 16 16 17
19 15 16 16 17 7 7 7 3 3 7 9 11 14 16 16 14 13 14 15 17 17 18 19 19 20 21 21 21 21 21 21 21 21 21 20 20 20 18 16 16 15 14 15
17 15 13 8 6 5 0 2 3 5 6 8 10 11 11 11 11 11 12 13 15 16 17 17 18 19 20 20 19 19 20 19 19 19 18 18 18 17 17 17 15 16 17 16
7 6 4 0 1 3 5 5 4 7 8 9 10 11 11 11 11 12 14 15 16 17 17 17 18 18 18 17 17 17 16 16 16 16 15 15 15 16 16 17 18 18 18 18
2 1 6 9 10 9 8 10 10 12 13 13 12 12 12 13 13 14 15 15 14 15 15 14 15 15 14 14 13 13 13 14 14 14 15 16 18 18 19 19 19 20 22 23
14 12 10 11 11 11 12 14 15 15 14 13 13 13 13 13 13 12 12 11 11 10 10 10 9 9 11 12 13 14 15 16 17 18 20 21 22 23 24 24 24 23 23 23
19 17 13 10 11 13 13 13 13 12 12 12 11 10 10 9 8 7 7 7 7 7 8 9 11 12 14 14 16 18 20 21 22 23 24 24 24 24 23 23 23 22 21 20
11 12 12 11 10 9 8 8 8 7 6 5 4 3 3 3 3 3 4 6 8 11 12 13 15 17 19 20 21 22 23 22 23 23 23 23 22 22 22 22 22 22 22 22
9 9 9 9 9 8 6 5 4 3 2 1 0 1 0 2 4 7 9 11 13 14 16 17 19 21 22 23 23 23 23 22 21 21 21 21 21 21 21 21 22 22 22 21
8 7 5 4 2 1 0 0 1 2 2 1 2 4 7 9 12 13 15 16 17 19 20 21 22 23 24 23 23 22 21 20 19 19 19 19 20 21 21 22 23 24 24 25
4 3 1 1 3 4 4 4 1 2 4 6 9 10 12 14 15 17 19 20 21 22 23 24 24 24 23 22 21 19 19 18 19 19 19 20 22 22 23 24 25 26 26 27
3 4 5 6 6 4 1 3 5 7 10 12 14 15 17 19 21 22 23 24 24 24 24 23 23 23 21 19 19 18 17 19 19 20 21 22 23 24 25 27 27 28 29 30
8 8 6 3 3 4 7 9 11 13 15 17 19 20 21 23 24 24 24 24 24 24 23 22 21 20 19 17 16 17 18 20 21 23 24 25 25 26 27 27 28 28 27 26
5 3 3 6 9 11 13 15 17 18 20 21 23 25 24 23 24 24 23 23 22 23 22 20 19 18 17 16 17 18 19 22 24 26 26 26 27 26 26 26 25 24 22 21
4 7 9 12 14 16 18 19 20 20 20 22 22 23 24 25 23 22 23 22 21 19 19 18 17 16 16 17 19 21 23 24 25 26 27 26 25 24 23 23 22 21 20 20
10 13 16 18 20 21 22 22 23 24 23 22 22 22 23 22 21 20 19 18 17 18 17 16 16 16 18 20 22 24 26 26 25 25 25 24 23 23 22 22 22 22 21 21

GFSNGP_700_spd_075.txt.gz
Wind_Speed
12 12 15 19 23 20 19 19 15 20 12 19 24 22 2 6 9 7 9 17 25 30 33 31 29 26 20 16 11 12 15 15 14 16 16 16 17 19 21 21 20 21 21 22
13 14 13 21 22 25 28 24 26 21 33 19 19 19 17 5 14 16 12 16 14 13 13 11 13 19 22 23 15 11 13 14 13 15 16 15 14 15 16 18 21 21 24 26
7 10 22 18 7 13 16 26 24 30 22 18 19 17 22 21 9 9 12 10 8 11 12 7 6 7 8 12 16 19 31 32 29 25 25 24 21 21 23 24 24 22 23 25
12 13 4 9 11 11 17 17 18 19 18 18 22 21 21 26 26 15 11 13 10 8 5 3 8 7 6 8 10 13 18 21 24 26 27 31 31 31 30 29 30 32 32 31
5 6 19 23 5 9 14 10 16 16 22 17 28 21 19 15 13 11 10 10 9 7 4 6 6 7 9 10 13 15 18 20 22 25 28 31 34 35 34 34 36 35 37 40
10 3 4 6 3 19 18 16 13 16 20 27 21 25 24 18 19 14 8 5 5 3 1 3 4 7 9 11 15 17 20 21 22 24 26 29 31 33 35 36 38 41 43 44
22 12 13 23 24 18 10 7 8 16 20 19 18 27 12 9 11 14 7 3 1 2 5 7 9 11 13 14 14 15 17 18 20 22 24 24 24 25 27 31 36 40 42 44
11 9 13 11 10 9 12 15 15 21 24 23 25 19 17 15 8 4 2 4 6 8 9 12 13 13 13 14 15 17 18 18 18 19 21 23 23 24 25 26 28 31 34 38
9 6 14 9 5 10 14 12 14 17 27 23 13 13 12 9 5 6 6 10 13 15 15 14 14 14 14 14 15 16 17 18 20 21 22 22 22 23 23 24 24 25 28 31
12 14 22 22 21 21 15 11 9 11 9 1 4 4 5 3 5 6 9 12 14 15 15 14 14 14 14 15 16 15 15 15 16 18 19 20 20 20 20 21 21 22 24 25
18 20 20 17 18 18 16 17 15 13 9 6 5 4 5 6 8 10 14 15 16 15 14 14 14 14 14 15 15 15 16 17 17 18 19 19 19 18 18 19 18 19 19 19
10 16 21 14 12 12 13 16 16 14 9 4 6 7 9 11 12 14 14 14 13 14 14 14 13 13 13 15 16 17 18 18 19 20 20 20 20 20 19 19 18 18 18 18
11 13 12 16 20 14 9 12 8 7 4 6 9 11 13 14 13 13 14 13 14 13 13 13 13 14 14 15 16 17 18 18 19 19 20 20 20 19 19 19 18 18 18 18
12 14 12 11 8 10 5 3 1 2 6 9 10 11 11 11 10 10 11 11 12 13 14 14 14 14 15 17 17 17 18 19 18 18 18 18 18 18 17 17 18 18 18 19
5 6 6 5 3 1 2 5 6 5 8 10 11 11 11 12 12 11 12 12 13 14 15 14 15 15 15 16 15 15 15 15 15 15 15 16 16 16 17 18 19 21 21 22
3 2 4 6 7 9 10 11 11 10 12 12 13 12 12 13 14 14 14 14 14 14 13 13 14 14 13 13 13 13 14 15 16 16 17 18 20 21 22 23 24 25 26 26
11 11 13 13 13 12 12 11 13 15 17 16 14 13 14 14 14 14 14 14 13 12 12 12 12 12 13 13 15 16 17 18 20 21 22 23 24 25 25 25 25 25 25 26
16 14 12 10 10 12 13 13 13 14 14 14 14 13 12 12 13 12 11 11 10 9 9 11 12 14 15 16 18 19 21 22 23 24 25 25 25 25 25 25 25 24 24 24
10 12 10 10 11 11 9 10 11 11 10 10 9 9 8 8 9 9 8 8 9 11 13 15 16 17 18 20 22 23 24 25 25 26 25 25 25 25 24 24 24 24 24 24
9 9 8 9 8 6 7 8 8 7 5 5 5 6 6 6 7 8 10 13 14 16 17 18 19 21 22 24 24 25 25 25 25 25 24 24 24 23 23 23 22 22 23 24
5 3 3 3 2 3 4 5 5 6 6 5 5 6 8 10 12 13 15 16 17 19 20 22 23 24 25 26 25 25 25 24 24 23 22 22 23 23 23 23 24 24 25 26
3 2 1 1 3 4 5 5 3 2 3 5 8 11 12 14 15 17 19 20 22 23 23 24 25 25 25 25 25 25 24 23 22 22 22 22 23 24 25 26 27 27 28 28
2 1 2 3 3 1 1 3 6 8 10 12 15 17 19 20 22 23 24 24 25 25 26 26 26 26 25 25 24 23 23 22 22 21 22 23 25 26 27 28 29 29 29 29
2 3 3 1 2 5 7 10 12 15 17 19 21 22 23 24 25 26 27 27 27 27 27 27 26 25 24 24 23 22 22 21 21 22 23 25 26 27 28 28 28 27 26 26
4 3 4 6 9 11 13 15 17 19 21 22 23 24 26 26 26 27 27 28 28 27 27 26 25 24 23 23 21 21 21 21 23 24 26 27 27 27 27 27 26 25 24 23
4 6 9 11 14 17 18 19 20 20 21 23 24 26 27 28 27 27 26 26 25 25 24 24 23 22 21 21 21 20 21 23 24 26 27 27 26 26 26 26 25 24 23 22
9 12 15 17 18 19 21 22 23 24 24 24 24 24 23 22 23 22 22 21 21 21 21 21 22 22 21 21 21 22 23 25 26 26 26 27 27 27 26 25 25 25 24 23

GFSNGP_700_spd_081.txt.gz
Wind_Speed
4 3 1 4 8 9 13 14 11 21 22 26 22 17 21 21 18 7 9 10 11 16 22 20 28 31 32 30 29 25 23 22 21 20 17 14 12 11 11 12 13 14 14 14
1 2 5 12 13 13 10 9 17 19 27 18 9 13 19 14 17 4 17 14 11 14 23 24 25 26 27 28 27 21 18 17 16 16 13 11 7 7 8 9 8 9 11 13
4 5 12 4 5 6 6 8 14 21 24 18 15 15 13 11 11 6 12 21 21 17 18 17 18 19 22 26 25 26 22 22 23 15 14 15 12 12 12 9 11 13 14 16
7 5 1 7 5 3 7 10 15 20 21 15 16 15 15 13 13 17 3 21 23 24 24 21 23 21 21 25 26 27 26 28 24 24 24 24 27 24 21 26 25 27 28 26
2 1 10 5 4 4 16 13 11 17 17 17 14 15 17 17 18 19 15 16 20 24 24 24 20 20 20 12 13 10 14 12 18 21 23 23 23 24 24 27 29 32 37 39
2 2 3 4 6 13 15 9 6 18 20 19 24 22 22 23 21 19 20 18 17 9 19 22 18 13 9 7 6 9 11 13 16 19 19 20 22 23 25 27 29 31 31 31
10 5 6 8 10 9 2 9 20 24 16 20 20 24 23 27 25 12 16 19 18 15 12 13 10 8 6 7 10 11 13 14 16 17 18 18 18 19 20 21 22 23 24 25
6 5 5 1 4 10 10 18 20 22 22 19 16 16 18 21 25 24 17 13 11 8 5 5 4 6 7 8 8 10 12 13 15 15 15 15 16 17 18 19 20 21 22 22
6 5 11 17 17 17 17 16 16 16 16 17 12 8 18 24 22 22 19 15 10 6 3 3 3 3 4 6 8 9 11 11 12 13 14 14 14 16 16 17 18 19 20 21
6 9 14 15 19 15 10 11 13 11 5 14 13 15 13 11 13 13 8 6 5 4 4 4 5 5 6 7 8 9 9 10 11 12 12 13 14 15 16 17 18 19 20 21
12 18 20 19 11 7 7 9 10 7 9 12 12 16 15 11 8 3 2 4 4 4 4 5 5 6 6 7 8 9 10 11 12 13 14 14 15 15 16 17 18 20 21 23
14 15 14 11 7 5 3 5 2 4 7 10 11 11 8 5 5 3 4 6 6 6 6 6 7 7 7 7 8 9 10 11 12 13 14 15 16 16 17 19 20 21 22 22
7 11 9 9 8 8 5 3 1 2 5 7 5 4 2 3 3 6 7 7 7 8 7 6 6 6 7 8 9 11 12 13 13 14 14 14 15 16 16 17 17 18 18 18
7 9 7 8 6 5 4 3 1 1 2 2 1 2 4 3 4 6 6 7 6 7 7 7 8 9 10 11 12 12 13 13 13 13 14 13 13 13 13 14 14 15 16 18
8 8 6 5 4 1 1 1 2 3 3 3 4 4 5 5 6 6 7 7 9 10 10 11 11 11 11 12 12 13 13 13 13 13 13 13 13 14 15 16 17 18 20 21
8 7 4 4 5 7 7 7 7 7 7 8 8 9 8 8 8 8 8 9 10 12 12 12 13 12 12 13 12 12 12 12 13 14 14 15 16 17 18 19 20 21 21 22
11 11 11 11 12 11 8 7 8 8 9 10 10 10 9 8 9 9 10 10 12 12 12 11 11 11 11 11 12 13 14 15 16 17 17 18 19 20 20 21 22 22 23 23
15 16 15 12 10 10 8 7 8 9 9 8 8 9 9 9 9 9 9 10 10 10 10 10 11 12 13 14 15 16 17 18 19 20 20 21 22 22 22 22 22 23 23 24
13 11 11 11 11 9 8 8 7 7 6 6 5 4 5 5 6 6 7 7 7 8 10 11 13 14 15 17 18 19 20 21 21 21 22 22 22 22 22 22 23 23 23 23
10 9 8 9 9 9 8 7 5 5 5 4 4 4 4 4 4 6 7 9 11 13 14 16 17 18 19 20 21 21 22 22 22 22 23 23 23 23 23 23 23 23 23 24
8 7 7 7 7 7 6 5 5 6 6 5 5 5 7 8 10 12 13 15 16 17 19 20 20 22 22 23 23 23 23 23 24 23 23 23 23 22 22 23 23 23 24 25
4 4 4 5 5 5 5 5 5 6 7 9 10 12 14 15 17 19 21 21 22 23 24 24 25 25 26 26 25 25 24 24 24 23 23 23 22 22 22 22 23 24 25 26
3 3 3 3 3 3 4 6 7 9 11 13 15 17 19 21 22 23 23 23 24 24 25 25 25 25 25 25 25 24 24 23 23 22 22 21 21 22 22 23 24 25 25 25
3 2 1 1 2 4 6 8 11 13 15 17 19 20 21 22 23 23 23 23 23 24 24 24 23 23 23 23 23 22 22 22 21 21 21 21 22 22 23 24 25 25 25 25
1 1 1 3 5 8 11 13 15 17 18 19 20 21 22 22 23 23 23 23 23 22 22 21 21 21 20 20 20 20 20 20 19 20 20 21 22 23 24 24 25 25 25 25
1 3 5 8 11 14 16 16 18 19 21 22 22 23 24 24 23 22 21 20 19 18 17 17 17 17 17 18 18 18 18 19 19 20 21 22 23 24 25 26 26 26 26 25
5 8 11 12 14 15 17 19 20 21 21 22 21 21 21 20 18 18 17 17 17 17 18 18 19 19 19 19 20 19 20 20 21 22 24 25 26 26 27 27 28 27 27 27

GFSNGP_700_spd_084.txt.gz
Wind_Speed
5 4 6 8 8 8 10 9 9 12 20 21 18 16 18 19 19 19 12 14 13 13 15 18 24 27 33 38 42 41 32 24 24 24 23 20 18 17 15 13 12 13 14 15
5 5 3 4 6 9 10 10 12 14 17 12 17 14 17 18 16 17 14 17 20 16 18 19 22 27 32 38 39 35 28 23 24 25 24 22 20 16 13 11 10 10 12 15
1 3 6 7 8 2 2 2 7 13 18 18 14 12 15 18 15 16 14 18 22 19 23 21 22 28 29 32 33 29 25 25 25 24 23 21 20 16 15 13 13 12 12 13
1 4 3 4 2 4 2 1 4 6 10 7 10 14 17 19 21 20 11 11 19 25 26 27 26 24 28 30 30 28 28 26 26 27 26 20 17 18 17 15 15 17 17 18
1 1 5 4 2 2 5 5 7 12 14 14 15 14 18 19 17 11 12 9 8 17 26 30 32 34 30 32 31 30 32 34 33 33 30 28 33 25 22 20 21 23 26 26
1 2 1 2 4 8 9 8 10 14 15 14 17 15 18 19 17 16 15 13 13 5 13 20 23 27 30 22 21 20 24 24 20 29 28 24 24 25 25 24 24 24 24 25
7 4 3 5 7 3 4 7 13 15 15 19 16 14 16 18 13 9 13 11 11 9 9 9 16 16 18 14 9 5 2 2 2 7 8 12 15 17 20 21 22 21 22 23
7 6 5 5 7 5 9 14 14 14 15 19 3 7 14 15 13 15 18 17 14 12 10 10 9 11 10 7 6 6 6 7 9 10 11 14 14 15 17 18 18 19 19 20
4 2 8 9 9 11 13 8 9 12 12 9 5 3 9 12 13 13 14 14 11 4 4 4 3 4 5 4 5 7 9 10 12 13 14 14 15 15 16 17 17 17 17 17
6 8 12 11 12 13 5 7 8 6 4 8 8 11 15 16 11 9 9 8 6 3 1 2 1 1 3 4 6 9 11 10 12 12 11 12 13 13 14 15 14 14 15 16
7 18 18 16 6 3 3 5 4 3 2 4 10 11 10 8 7 4 4 3 1 3 4 4 4 4 4 4 5 5 6 7 7 8 10 11 13 13 14 14 15 16 18 19
9 16 15 9 6 2 2 4 5 3 3 4 7 7 6 5 6 6 6 1 3 1 2 3 4 5 5 6 6 7 7 7 9 10 12 13 14 15 16 17 18 19 20 20
8 6 7 3 4 3 3 1 1 1 1 2 3 4 6 4 3 3 2 3 5 5 4 5 5 6 6 7 7 8 9 11 12 13 14 14 15 15 16 17 18 18 19 20
6 7 4 5 4 4 4 3 2 2 3 3 3 2 2 3 4 4 6 6 6 6 5 5 6 7 8 9 9 10 11 12 12 13 13 14 15 15 16 16 17 17 18 19
7 8 8 7 5 3 2 2 2 1 1 0 1 3 5 5 5 6 7 8 8 8 9 9 9 10 10 11 11 11 11 12 12 13 14 14 15 16 17 17 18 19 20 21
7 5 3 3 3 4 5 6 7 6 5 5 6 7 8 8 8 8 9 9 11 11 11 11 12 12 12 12 13 13 13 13 14 15 16 17 18 18 19 20 21 22 23 24
8 7 6 8 8 7 5 5 7 7 6 7 7 8 9 9 9 10 10 11 11 11 12 11 11 11 11 12 13 13 13 14 15 16 18 19 20 21 22 23 24 25 26 26
10 10 8 6 6 5 5 5 5 6 6 6 6 7 7 8 8 8 9 10 10 10 10 10 11 11 12 13 14 15 17 18 19 20 21 22 23 24 25 25 26 26 27 27
7 8 7 6 5 4 3 3 4 4 4 5 5 5 5 5 6 7 8 8 9 10 11 12 13 15 16 17 19 20 21 22 23 24 25 25 26 26 26 27 27 28 28 28
5 4 4 4 4 3 3 2 1 1 1 1 2 3 3 3 4 5 7 9 11 13 15 16 18 19 21 22 23 23 24 25 26 26 27 27 27 27 27 27 27 27 27 27
4 3 2 2 2 1 2 3 3 2 2 1 1 3 4 6 8 10 12 14 16 17 19 20 21 22 23 24 24 25 25 26 26 26 26 27 27 27 27 26 26 26 26 26
3 3 2 2 3 3 3 4 4 4 5 6 7 9 11 13 15 17 18 20 20 21 21 22 23 23 24 25 25 26 26 26 26 26 27 27 26 26 26 25 25 25 25 26
2 2 1 2 3 3 3 4 6 7 9 11 14 16 18 19 20 21 22 22 23 24 24 25 25 26 26 26 26 25 25 25 25 25 24 24 24 24 24 24 24 24 25 26
1 1 2 2 3 4 6 8 11 13 16 18 19 20 21 22 23 23 24 24 25 25 25 25 24 24 24 23 22 22 22 22 22 22 23 23 23 23 23 24 24 25 26 26
0 1 2 4 6 9 11 14 16 18 18 20 21 22 23 24 25 25 25 25 24 24 23 22 21 21 20 20 20 20 20 21 21 22 22 22 23 23 24 25 25 26 27 27
3 4 6 9 12 15 16 17 19 20 21 22 23 24 24 24 24 24 23 22 22 21 20 20 20 19 20 20 20 20 20 21 21 21 22 23 23 24 25 26 27 28 28 28
5 8 11 13 14 16 18 19 20 21 22 22 22 22 22 21 20 20 19 19 19 19 19 20 20 20 20 20 21 21 21 21 22 23 24 24 25 26 27 28 29 29 29 29

GFSNGP_700_spd_087.txt.gz
Wind_Speed
30 13 7 12 17 16 15 12 10 12 14 17 14 15 14 20 20 17 15 17 13 12 15 18 18 24 32 33 33 38 39 36 31 25 24 23 23 21 20 18 16 14 12 12
23 10 6 6 7 7 8 10 13 12 11 13 12 10 15 18 19 15 14 18 12 15 15 19 25 35 29 29 33 40 42 37 31 27 26 24 24 24 22 20 18 17 15 15
9 5 5 6 11 6 4 2 4 6 11 17 14 12 18 17 19 21 19 19 10 17 19 21 22 23 26 29 35 39 40 36 32 29 28 27 27 26 23 21 19 18 16 14
6 4 5 3 6 6 3 3 4 6 10 14 12 14 14 16 18 22 19 14 12 15 21 25 26 25 29 31 36 36 36 33 32 29 28 27 28 26 25 23 20 19 17 16
6 7 5 8 4 2 2 3 4 7 11 16 14 16 13 14 16 18 14 6 9 12 17 25 28 27 26 37 35 34 33 32 31 29 27 26 26 28 26 24 22 21 22 23
1 2 5 9 1 3 3 8 9 10 12 13 16 20 15 16 14 14 10 5 4 5 9 6 13 19 25 25 33 38 38 33 36 37 36 35 36 29 28 24 25 27 26 25
4 1 4 3 7 2 7 5 14 15 12 14 17 13 13 13 8 9 6 4 5 4 5 5 3 9 13 17 19 17 16 16 18 25 26 33 34 26 29 33 28 16 17 20
4 4 4 3 3 3 6 11 15 13 14 14 7 5 5 4 7 8 8 9 10 9 8 8 7 5 8 8 8 6 6 2 4 3 4 3 2 2 4 7 11 15 15 16
2 3 5 4 8 10 12 6 7 10 11 10 7 4 4 6 9 8 5 4 6 5 4 6 7 6 5 5 4 5 3 0 4 1 1 4 3 5 7 8 10 14 13 14
4 5 7 10 9 13 8 5 6 6 5 6 7 10 11 11 10 8 6 3 5 4 4 5 5 4 2 1 2 3 1 1 2 5 6 7 10 11 13 13 15 17 16 16
7 11 13 14 10 6 4 6 5 4 3 3 5 7 7 6 5 4 3 3 5 6 5 6 5 3 3 3 1 1 2 4 7 9 9 8 7 9 10 12 13 14 16 17
8 12 15 15 11 9 4 4 8 5 4 3 3 3 4 4 2 1 2 2 2 1 2 2 1 0 0 1 1 1 1 2 3 5 5 7 9 10 11 12 14 15 16 18
9 10 11 9 8 7 4 1 3 3 2 1 2 2 2 2 3 2 0 1 2 4 5 6 7 6 6 5 4 5 5 6 7 8 9 9 10 11 12 14 15 16 17 18
2 4 5 6 6 5 3 1 2 4 3 3 2 3 4 4 5 4 4 4 3 4 4 5 6 6 7 8 9 9 9 10 11 11 11 12 13 13 14 15 16 17 18 19
4 8 9 8 6 4 2 1 3 3 3 2 2 2 4 6 5 5 5 6 6 6 7 8 9 10 11 11 11 11 11 12 12 13 14 14 15 16 16 17 18 19 20 21
6 4 3 2 2 1 3 5 7 7 7 7 7 7 7 8 9 8 8 8 9 10 10 11 12 12 13 13 13 13 13 13 13 13 14 15 16 17 18 19 20 21 22 23
5 6 5 5 6 6 5 5 6 7 8 8 9 9 10 10 10 10 10 10 11 11 12 12 12 12 13 13 13 13 14 14 15 16 17 18 19 20 21 23 24 25 26 27
8 7 5 3 3 2 3 4 4 5 6 7 8 9 9 9 10 11 11 11 12 12 12 12 12 13 14 14 15 16 17 18 19 20 21 22 23 24 25 26 27 28 28 29
5 5 3 2 2 2 2 3 3 4 5 6 7 7 8 8 9 10 11 11 11 12 13 13 15 16 17 18 19 21 22 22 23 24 25 26 26 27 28 29 30 30 31 32
4 3 1 1 1 1 1 1 1 2 3 4 5 6 7 8 9 10 11 13 14 16 17 19 20 21 23 24 25 25 26 26 27 27 28 29 29 30 30 31 32 33 33 34
1 1 1 1 1 1 1 2 2 2 2 3 4 5 7 9 11 13 15 17 19 20 22 23 24 26 26 27 28 28 29 29 30 30 30 31 31 31 31 32 31 31 31 31
1 1 1 1 1 1 1 0 1 2 4 5 7 9 12 14 16 19 20 22 22 24 25 25 26 27 28 28 29 29 30 30 30 30 30 30 30 29 29 28 28 28 27 27
1 1 2 2 1 0 1 2 4 6 9 11 14 16 19 20 22 23 24 24 26 27 28 28 29 29 29 30 29 29 29 29 29 29 28 27 27 27 26 26 26 26 26 26
1 1 1 0 1 3 5 7 10 13 16 18 19 21 22 24 24 25 27 28 28 29 29 29 28 28 28 28 28 27 27 27 26 26 26 25 26 25 25 26 26 26 27 27
3 2 1 3 5 8 11 14 16 17 19 20 22 23 25 26 27 28 27 27 27 26 26 25 25 25 25 25 25 25 25 25 25 26 26 26 26 26 26 27 27 28 29 30
2 3 6 8 11 14 15 17 20 22 24 25 26 26 27 27 26 26 25 25 25 24 24 24 23 23 24 24 24 25 25 25 25 25 26 26 26 27 27 28 29 29 30 31
6 8 11 13 15 17 20 22 23 25 25 26 27 28 26 26 25 25 25 25 24 25 24 24 25 25 25 25 25 25 25 25 25 25 26 26 27 27 28 29 30 30 31 31

GFSNGP_700_spd_090.txt.gz
Wind_Speed
25 28 31 28 25 18 23 21 7 4 7 7 9 10 9 16 17 16 16 14 15 6 8 11 12 21 22 19 23 21 29 35 36 34 31 26 23 22 20 18 16 13 10 8
29 22 22 29 13 8 2 5 8 12 4 11 12 13 14 17 20 15 22 14 16 9 11 10 12 14 20 28 35 34 33 32 36 37 33 28 26 25 23 22 20 17 15 13
18 25 14 17 14 6 5 7 5 10 10 11 14 16 15 17 16 17 21 17 17 16 12 12 14 17 22 21 26 33 31 36 37 38 34 31 30 28 27 26 24 22 20 18
23 32 6 8 9 11 12 12 9 7 12 13 13 16 17 15 15 15 17 18 15 18 9 12 14 18 21 23 24 26 30 32 35 37 35 32 31 31 30 29 27 26 24 22
12 2 14 13 8 6 4 10 4 8 12 15 18 20 20 15 15 13 11 12 14 16 9 5 13 17 23 26 27 30 32 34 35 37 36 33 31 31 30 30 28 29 29 24
7 2 3 5 8 1 2 3 12 10 13 16 18 21 19 14 13 9 6 7 8 9 11 11 11 12 16 23 25 31 34 38 37 38 40 35 29 28 29 28 27 28 26 28
13 2 7 4 8 5 1 5 15 16 17 17 17 15 12 10 8 4 2 2 4 6 7 6 4 3 7 6 6 13 15 11 9 25 36 40 39 39 40 36 33 36 33 30
4 1 5 7 3 4 2 9 14 16 12 13 11 5 3 1 1 2 1 5 6 7 6 8 8 7 4 1 5 8 6 5 5 6 10 14 12 12 12 17 28 23 18 23
6 9 1 6 9 8 9 9 10 12 8 7 6 4 5 5 6 7 6 5 5 4 5 8 9 9 10 8 8 8 8 7 8 6 7 6 5 6 7 6 3 1 2 3
2 5 3 9 8 9 8 7 8 7 4 5 8 8 9 8 9 6 5 5 6 7 7 8 9 10 11 10 10 8 6 5 6 1 2 2 2 2 3 3 3 6 7 7
4 1 8 5 6 7 7 8 6 2 3 5 6 5 4 4 5 4 5 6 7 7 6 7 8 8 7 6 7 5 4 3 3 5 6 6 6 6 8 9 10 12 13 14
4 8 11 12 10 7 3 4 8 5 5 5 4 3 3 4 4 4 4 5 5 5 5 5 5 4 5 4 3 3 4 5 5 3 3 2 3 4 5 6 7 8 9 10
10 10 10 9 5 4 3 1 2 4 4 4 4 3 3 3 4 4 4 4 3 2 2 2 3 3 3 3 3 4 5 6 6 7 7 7 7 7 8 8 9 10 10 12
7 4 1 2 4 4 3 2 0 2 3 3 3 4 4 5 5 4 3 2 2 2 3 4 4 5 5 6 7 7 7 8 8 9 9 10 10 10 10 11 12 13 13 14
5 4 4 5 4 3 2 2 1 1 2 2 3 3 4 4 4 5 4 4 4 5 5 6 7 8 9 9 10 11 11 11 12 12 12 12 13 13 14 13 14 15 16 17
6 4 2 1 1 0 2 4 5 4 4 4 5 5 6 6 5 5 6 7 8 8 9 10 10 9 10 11 11 12 12 13 13 14 15 15 16 17 17 17 17 18 19 20
7 6 6 6 5 4 5 4 3 3 4 5 6 6 7 7 7 7 8 8 9 10 10 10 11 12 13 13 13 13 14 14 15 16 17 18 19 19 20 21 21 22 23 24
8 9 9 7 5 4 4 3 3 4 4 5 6 7 7 8 8 8 8 8 8 9 10 11 11 12 13 14 15 16 17 18 18 19 20 22 22 23 23 24 25 24 25 26
6 6 5 5 4 3 2 2 2 2 3 4 5 6 7 8 9 10 10 11 11 12 13 14 14 16 17 18 19 21 22 24 24 23 24 25 25 26 27 27 28 28 29 28
3 3 2 2 3 3 2 2 2 3 4 5 6 7 8 9 11 12 13 15 17 18 19 21 22 23 24 25 25 25 25 26 27 26 28 28 29 29 29 30 31 31 31 30
1 1 1 1 1 1 1 2 2 3 4 5 6 8 10 12 14 16 18 16 20 22 23 23 26 26 27 28 29 29 29 30 30 30 29 29 29 29 29 29 29 28 28 28
2 1 1 1 0 0 0 1 2 3 5 7 9 11 13 16 18 20 21 24 22 26 26 25 27 28 29 30 30 30 30 30 30 30 30 29 28 28 27 27 25 25 25 24
2 1 1 0 0 1 1 2 4 7 9 12 14 17 19 21 23 26 27 26 29 30 31 31 31 31 31 30 30 29 28 27 27 26 26 25 25 24 24 24 23 23 23 22
2 3 3 2 1 2 4 7 10 13 15 17 19 21 23 25 27 26 28 29 30 30 31 30 30 29 29 29 28 27 27 27 26 25 25 24 24 24 23 23 23 23 23 24
4 3 2 2 4 7 11 13 15 16 19 20 21 23 25 27 28 29 29 28 27 28 28 26 27 27 27 27 27 27 27 27 27 27 26 26 26 25 25 25 25 25 25 26
5 4 4 7 10 12 14 15 19 22 23 26 29 29 29 29 29 28 28 27 27 27 27 28 27 26 26 27 27 27 27 27 26 26 26 26 26 26 26 26 26 27 27 28
5 6 9 11 13 16 18 21 23 26 28 29 30 32 32 30 29 28 28 28 28 28 28 28 28 28 28 27 27 27 27 27 27 26 26 27 26 26 27 27 28 28 28 29

GFSNGP_700_spd_096.txt.gz
Wind_Speed
20 18 22 28 27 25 25 27 21 26 12 6 3 5 3 8 12 13 8 10 7 6 8 9 13 11 14 10 9 16 19 24 30 27 24 27 26 27 24 18 20 17 19 15
32 28 25 21 23 22 21 22 23 20 18 6 2 2 2 7 8 9 7 9 6 8 8 7 12 12 10 9 11 13 16 15 25 23 22 27 28 27 19 20 25 21 20 18
27 23 25 24 17 16 13 8 15 4 9 9 2 4 5 6 8 9 8 10 9 11 12 6 13 13 14 14 17 15 24 19 25 23 22 24 28 23 36 24 23 25 23 21
24 21 6 11 8 19 18 16 15 10 6 4 3 5 5 6 7 9 10 11 12 13 15 7 5 12 17 18 17 21 23 20 20 18 18 18 31 38 37 29 26 28 28 24
9 11 23 21 5 3 8 17 11 8 6 5 6 7 4 5 6 7 9 11 12 13 16 16 11 2 15 19 25 19 20 21 26 23 26 27 31 30 24 27 30 29 30 32
10 6 4 15 10 16 15 12 12 10 6 7 5 4 5 6 6 6 8 10 13 15 16 16 15 16 15 8 8 11 21 22 21 17 26 29 25 31 30 31 31 32 30 30
27 9 7 20 9 12 5 1 9 10 8 7 6 4 4 5 6 8 10 11 13 14 12 12 13 12 10 10 7 8 4 9 18 23 22 28 31 32 33 32 32 33 31 33
19 9 4 15 8 7 7 6 8 9 9 10 8 7 7 8 7 7 8 9 9 10 10 11 13 12 10 8 13 15 14 10 9 3 2 6 16 20 21 21 21 27 30 31
6 8 7 12 17 14 10 8 10 11 11 13 12 11 11 11 10 8 7 7 8 8 9 9 10 11 10 12 15 15 14 11 11 11 9 8 8 7 4 3 2 3 2 4
7 10 9 12 11 11 11 10 10 9 11 12 12 12 11 9 7 6 6 6 6 7 8 8 8 9 9 10 11 11 10 10 11 12 11 10 8 6 6 5 4 4 3 2
11 7 5 5 6 7 10 10 9 10 10 9 9 8 8 7 6 5 4 4 5 6 7 7 8 8 8 7 7 7 8 8 7 7 7 7 7 7 6 6 5 3 3 4
2 2 2 1 3 5 7 9 10 10 8 8 7 7 7 7 6 5 4 3 4 4 5 5 6 6 6 6 5 5 5 4 4 3 3 3 3 3 4 5 7 9 10 10
6 6 4 2 5 6 5 5 6 7 7 7 7 6 6 6 5 4 3 3 3 3 3 4 4 5 6 5 5 5 6 6 5 5 5 5 5 5 6 6 6 7 8 8
9 6 6 6 5 5 5 4 4 6 5 6 5 6 4 4 3 3 2 2 3 4 4 4 5 6 7 8 8 8 7 7 7 7 7 7 7 7 8 9 9 10 10 11
9 9 9 7 6 4 3 3 3 4 4 4 3 1 1 1 1 1 2 3 5 6 6 7 8 9 9 10 10 11 11 11 11 10 9 9 10 11 11 12 12 12 13 13
4 6 6 5 3 1 2 3 3 2 2 2 2 3 3 4 4 3 4 4 5 7 7 8 8 8 9 10 10 10 10 11 11 12 12 13 13 13 14 15 16 16 16 17
3 3 5 6 4 2 2 3 3 4 4 3 2 3 4 3 3 3 4 5 5 6 7 7 8 9 10 11 12 12 13 14 15 16 15 15 17 18 19 20 20 20 20 21
4 5 7 6 2 0 1 1 1 2 2 1 1 1 1 1 2 4 5 6 7 8 9 11 12 13 14 15 16 17 18 20 21 21 22 22 22 22 22 23 24 25 25 24
5 6 6 5 2 1 2 2 3 3 3 3 3 2 3 3 3 4 5 6 8 11 13 16 18 19 20 21 23 24 25 25 25 26 27 27 27 27 27 27 27 27 27 28
3 3 2 1 2 3 4 4 5 5 5 5 4 4 5 4 5 7 9 11 12 15 16 18 21 21 22 23 25 26 28 29 30 31 31 32 32 32 31 30 29 28 28 28
1 1 2 2 2 3 3 4 4 4 3 3 2 3 5 7 10 12 14 15 15 18 20 21 23 25 26 26 27 28 28 28 28 28 29 30 30 30 30 30 30 29 28 28
2 2 2 2 3 3 3 3 3 2 0 3 5 7 9 11 13 16 18 20 21 23 24 25 26 27 27 26 26 26 27 27 27 27 27 27 27 27 27 26 26 25 25 25
2 2 2 3 5 5 4 3 1 3 5 8 9 11 14 16 18 19 21 23 24 25 26 26 27 27 27 27 26 26 26 26 26 25 25 26 26 25 25 25 25 25 24 24
2 1 2 3 3 3 2 3 5 7 9 11 13 15 17 19 20 23 25 27 28 29 29 29 29 29 29 29 29 29 29 28 27 26 25 25 25 25 25 25 25 25 25 25
4 4 4 5 5 5 6 7 8 10 12 14 16 19 21 22 24 26 28 29 31 31 30 30 30 30 31 31 30 30 30 30 29 29 28 27 26 25 25 25 24 25 25 25
7 8 8 7 6 8 9 10 11 13 15 17 19 22 24 26 28 30 31 31 31 31 31 31 31 30 30 30 30 30 30 29 29 28 28 27 27 26 26 26 25 26 25 25
7 6 6 8 11 10 11 13 15 18 21 23 26 27 29 29 30 30 30 31 31 31 31 31 31 31 31 30 30 29 29 28 28 28 27 27 27 26 26 26 26 26 26 26

GFSNGP_700_spd_099.txt.gz
Wind_Speed
22 22 23 25 30 30 27 26 22 29 24 26 15 5 5 3 12 12 11 9 9 9 10 8 7 5 11 17 20 21 20 14 16 13 13 18 20 24 25 23 24 24 22 18
24 24 24 26 32 36 33 28 25 26 26 21 14 8 3 7 12 7 7 9 9 11 13 9 7 7 6 8 12 11 13 18 21 19 21 23 22 22 26 22 22 21 17 17
22 20 20 27 22 28 29 26 21 18 15 10 9 9 10 7 5 6 7 9 10 11 14 10 4 6 8 9 11 15 15 24 17 23 29 30 30 26 27 23 21 20 19 17
18 18 6 12 18 6 20 12 12 17 11 6 6 7 4 2 3 6 8 10 12 14 16 16 7 1 7 13 12 19 23 16 35 34 33 20 25 27 26 27 26 23 20 23
7 7 18 24 16 3 16 12 11 10 7 7 5 2 2 2 4 5 8 10 13 16 18 18 16 10 5 7 13 18 18 21 20 28 36 35 17 21 23 24 27 29 31 26
8 4 4 5 20 9 19 9 7 6 3 4 5 1 4 4 4 8 10 13 14 16 17 16 16 18 16 9 6 15 14 11 19 25 22 14 21 20 22 25 31 39 37 39
20 8 10 17 17 25 5 3 4 6 3 4 5 6 6 5 7 8 9 10 13 14 12 14 15 15 13 14 11 10 6 1 10 14 19 25 21 28 30 27 28 29 34 31
15 9 6 18 7 9 9 6 8 8 8 9 9 9 9 9 8 8 7 10 10 11 11 12 14 14 13 11 15 15 15 13 11 9 5 1 3 12 16 18 25 27 26 25
4 6 4 9 12 10 8 10 11 12 13 13 12 13 12 11 9 8 8 8 9 9 11 12 13 13 11 13 16 16 14 13 12 13 10 10 9 8 6 3 2 5 8 7
6 9 8 5 8 8 10 12 12 12 13 14 13 13 12 10 8 8 7 8 8 9 9 10 11 12 11 12 12 13 13 12 11 11 11 10 11 10 10 8 7 7 6 5
10 4 4 5 7 9 10 10 12 11 10 9 10 10 9 8 8 8 7 6 7 7 7 8 9 10 9 9 9 9 9 10 10 10 10 10 8 7 6 6 6 5 4 4
1 2 1 3 7 9 9 10 10 9 9 8 8 8 8 7 6 6 6 5 5 5 6 7 8 8 8 8 7 7 7 6 5 4 5 5 6 6 6 5 6 6 7 8
4 4 3 5 7 8 6 6 7 8 7 7 7 7 7 6 6 5 4 3 4 5 6 7 8 8 8 8 7 8 8 7 7 7 6 7 7 8 9 8 9 9 10 10
8 7 6 5 5 6 6 5 5 6 5 7 8 6 6 6 4 4 4 4 5 7 8 8 9 10 10 10 10 10 10 10 10 10 10 10 10 10 10 10 10 11 12 12
9 8 7 5 4 3 3 3 3 3 3 3 3 4 4 4 4 5 5 6 7 7 8 8 9 10 10 11 11 11 11 11 11 11 11 11 12 12 12 13 13 14 14 15
5 6 5 4 3 2 2 2 2 1 1 1 1 2 3 4 4 5 6 6 6 7 7 8 9 10 10 11 11 12 13 14 14 15 16 17 18 18 18 18 18 19 20 20
2 2 3 4 2 2 4 4 4 3 2 1 1 2 2 3 4 5 4 5 6 7 8 8 9 11 12 14 15 16 16 16 17 18 19 20 21 22 22 23 24 25 25 26
4 1 2 3 1 1 2 3 3 3 2 2 1 1 2 4 4 4 5 6 7 9 11 13 14 15 16 18 19 20 22 24 24 25 25 25 26 26 26 27 27 28 28 29
0 1 2 1 2 4 6 5 4 4 4 4 3 2 2 2 2 4 6 10 12 14 16 17 19 21 22 24 26 27 28 30 31 32 33 33 32 32 32 31 30 30 31 31
1 1 2 3 3 4 5 6 6 6 6 5 4 3 1 2 5 6 9 12 15 17 19 22 24 25 26 27 28 29 30 30 31 32 33 34 34 34 34 34 33 31 31 30
0 2 2 3 5 6 5 6 6 7 6 5 3 0 3 5 8 11 13 16 19 21 23 25 26 28 29 29 29 29 29 30 30 31 31 31 32 32 32 33 33 32 32 30
2 2 2 3 3 4 5 6 5 4 3 2 3 4 7 10 12 15 17 20 23 24 26 27 28 29 29 30 30 30 30 30 30 30 31 31 31 30 30 30 30 29 29 29
3 3 4 4 4 5 5 5 5 4 4 5 6 9 12 14 16 19 21 23 25 27 28 29 30 30 31 31 31 31 31 31 31 31 31 31 31 31 31 30 30 30 29 29
5 4 5 6 6 7 7 6 6 6 7 9 12 14 16 19 22 23 25 27 29 30 31 31 31 32 32 32 33 33 33 32 32 32 32 32 31 31 31 31 31 31 31 30
6 6 7 7 7 7 7 7 9 10 12 14 16 18 21 23 25 27 29 31 32 33 34 34 34 34 34 34 33 34 34 34 34 33 33 32 32 31 31 31 30 30 31 31
7 7 7 8 8 9 10 10 12 14 16 18 20 21 23 25 28 31 33 34 35 36 35 35 35 35 35 35 34 33 34 33 33 33 33 32 32 31 31 31 31 30 31 31
8 9 9 10 10 11 12 14 16 18 19 21 22 24 27 30 32 34 35 36 36 36 36 36 36 36 36 36 36 35 35 36 36 35 34 33 32 32 32 32 31 31 31 31

GFSNGP_700_spd_102.txt.gz
Wind_Speed
16 16 20 25 29 29 28 31 25 35 34 33 32 29 22 21 17 15 16 16 15 15 14 13 7 5 6 14 14 17 20 22 17 18 21 21 18 41 28 30 34 31 30 28
22 23 24 30 33 32 32 32 35 35 35 32 32 29 20 15 18 12 13 12 13 14 14 12 6 6 8 9 7 14 18 20 16 15 18 12 14 18 20 22 24 23 24 23
7 9 15 21 18 12 24 33 29 34 31 30 27 16 13 12 17 5 7 9 11 13 16 13 7 6 7 6 8 5 11 12 15 21 22 21 21 20 21 23 23 20 21 20
11 14 4 6 13 17 6 9 18 20 24 23 16 12 10 15 5 4 5 8 11 15 18 18 16 13 4 4 3 7 12 15 11 16 14 20 20 24 24 19 18 24 25 21
5 7 19 22 12 18 8 2 7 13 20 14 12 8 7 2 1 3 8 10 13 16 18 18 18 20 19 13 7 9 8 13 20 21 27 26 21 33 18 23 20 21 21 22
8 4 4 6 12 27 7 4 4 6 9 10 8 5 6 6 4 8 10 12 15 17 17 15 17 18 17 17 13 7 2 7 10 9 22 19 24 21 21 18 25 20 17 19
19 5 10 19 25 2 3 3 5 3 7 7 7 6 7 7 8 8 10 14 15 14 15 17 18 17 17 16 14 18 19 15 8 4 8 13 14 17 27 26 24 28 30 30
14 8 6 17 3 7 4 5 5 7 10 9 10 8 8 9 9 10 11 12 13 14 15 16 16 16 15 15 20 20 19 17 15 14 11 8 3 2 8 10 13 16 21 23
5 6 4 7 11 9 6 6 9 11 12 12 11 12 12 12 10 9 10 10 12 12 13 13 13 14 14 17 17 18 16 15 15 15 15 15 12 11 9 8 5 3 1 3
5 6 6 5 4 4 6 8 12 14 14 14 13 13 12 10 10 9 9 9 10 11 11 11 11 12 13 14 15 15 14 14 15 13 14 12 12 10 10 10 9 8 8 7
8 4 4 3 5 7 8 9 10 11 12 12 11 10 9 8 8 8 8 8 8 9 9 10 10 11 11 12 12 12 11 12 11 10 10 10 10 9 9 8 7 5 4 4
1 0 2 4 6 8 9 8 7 8 9 9 10 9 9 8 7 7 7 7 7 7 7 8 9 10 11 11 11 11 11 11 11 12 11 10 9 9 8 7 7 8 8 8
3 4 3 6 8 6 7 7 6 6 7 8 7 8 7 8 7 6 6 6 7 8 9 10 10 11 11 11 10 10 10 10 10 10 10 10 10 10 11 10 11 11 11 12
5 5 6 6 6 6 6 5 5 6 6 6 6 7 7 6 6 5 5 7 8 9 10 10 11 11 11 11 12 12 12 13 13 13 12 12 12 12 12 12 12 12 13 14
6 7 8 7 6 5 5 5 5 5 5 4 3 3 4 4 4 5 5 6 7 8 9 9 10 11 11 12 12 12 13 13 13 14 14 14 14 15 15 15 16 16 16 16
4 3 4 4 4 4 4 4 4 4 3 2 2 2 2 2 3 3 3 4 5 7 7 9 10 11 12 13 14 15 15 16 16 17 18 18 19 19 20 20 21 22 22 23
4 2 1 1 1 3 4 4 5 5 5 4 3 2 2 2 2 2 4 5 6 7 7 9 11 13 15 16 17 18 19 20 21 23 23 24 24 25 25 26 26 26 27 27
6 6 3 0 2 3 4 4 5 5 5 5 4 3 3 3 2 2 5 6 7 8 10 13 15 16 18 20 21 24 26 28 29 29 30 30 30 30 30 30 30 30 31 31
7 5 3 2 3 5 6 7 7 7 6 5 4 4 3 2 1 3 6 8 10 12 14 15 18 21 24 26 28 29 30 31 32 33 33 33 33 33 32 32 32 32 32 32
4 3 3 3 4 5 5 6 6 6 6 5 4 2 1 1 4 7 9 11 13 15 18 21 23 26 28 29 31 31 32 32 32 32 32 32 32 33 33 32 32 31 31 31
3 3 4 4 4 5 6 6 6 6 5 4 3 2 3 6 8 10 13 15 17 20 23 26 28 30 31 33 33 34 34 34 35 34 34 34 34 33 32 32 32 31 31 31
2 3 4 5 6 7 7 6 7 6 5 4 4 5 8 10 12 15 17 20 23 26 28 30 32 33 34 35 35 35 35 35 35 34 34 33 33 32 32 32 31 31 31 31
3 3 3 4 5 6 7 8 7 5 5 6 8 10 11 14 16 19 22 24 27 29 32 33 34 35 35 35 36 36 36 35 35 34 34 34 33 33 33 32 32 32 32 32
4 4 5 5 6 6 7 7 7 7 8 11 11 13 15 17 20 23 26 27 30 32 34 35 35 35 35 35 35 35 36 36 36 36 36 35 35 34 33 33 32 32 32 31
5 6 7 7 8 9 10 9 9 11 12 13 15 17 19 22 24 26 28 31 33 34 35 36 35 36 37 37 36 36 36 36 37 36 36 35 35 35 34 34 33 32 32 32
6 7 8 9 10 10 11 11 12 13 15 16 18 21 23 25 27 29 32 34 35 36 37 38 38 37 37 37 37 37 37 37 37 37 37 37 36 35 35 35 34 34 34 33
8 10 11 11 11 12 12 13 14 16 17 19 21 23 25 27 30 32 35 36 37 38 39 39 38 38 39 40 40 40 40 40 40 40 39 38 38 38 37 36 34 33 33 34

GFSNGP_700_spd_105.txt.gz
Wind_Speed
11 13 16 19 19 22 24 26 22 31 37 37 31 33 35 30 29 21 21 28 20 17 16 14 11 7 7 8 14 9 13 19 9 19 18 17 20 23 30 39 42 51 43 42
13 15 16 19 22 25 26 29 31 34 42 32 35 32 29 24 19 13 14 19 12 12 13 14 10 7 7 7 8 12 12 10 11 15 16 17 19 28 35 33 51 35 34 39
5 7 11 18 5 4 9 16 21 31 29 28 26 25 22 15 9 9 9 12 6 11 15 16 14 12 6 8 5 5 7 7 15 14 13 18 14 10 18 32 36 26 32 37
5 8 4 2 5 13 14 14 18 19 19 20 17 17 16 9 2 5 5 2 8 12 15 18 20 21 18 11 7 6 2 7 10 11 14 16 17 20 23 15 24 22 26 31
3 5 14 8 2 10 14 18 8 7 10 10 10 12 7 2 2 3 3 9 13 14 16 17 18 20 21 18 11 8 6 8 5 11 11 9 21 24 20 30 27 28 15 19
7 3 3 3 10 21 21 10 7 8 6 13 11 7 6 8 7 8 11 13 14 15 16 15 18 20 19 17 18 16 14 9 7 4 7 13 13 20 31 25 31 35 32 23
11 4 7 14 22 4 6 4 7 7 13 13 6 5 9 10 9 11 13 13 15 15 14 16 18 19 17 18 20 24 24 21 19 13 8 3 4 6 12 18 10 27 22 21
7 4 5 13 5 3 2 4 2 8 10 9 7 9 11 11 11 12 12 13 13 13 14 15 16 16 16 16 24 23 23 21 21 20 18 17 13 9 7 3 5 10 15 19
7 5 7 7 7 7 6 5 6 7 10 9 9 12 14 13 12 12 12 11 12 13 14 14 15 16 16 18 20 21 20 19 19 20 19 19 17 16 14 12 11 8 6 4
5 3 4 5 6 6 7 8 10 12 14 15 13 14 12 12 11 11 11 10 12 13 13 12 13 14 14 15 16 17 16 16 17 16 16 15 14 13 12 11 10 10 9 8
4 2 3 6 6 7 8 9 9 11 13 13 12 12 12 11 10 10 10 10 11 11 12 12 14 14 14 14 14 14 14 14 14 14 13 12 11 11 10 10 9 9 9 7
3 1 1 3 5 7 8 8 9 10 10 10 12 11 11 10 9 9 9 8 10 10 11 11 12 13 14 14 13 13 14 13 13 13 13 12 12 11 10 9 8 8 8 9
2 3 5 6 6 6 7 8 8 9 9 9 9 10 10 9 9 8 8 8 8 8 9 11 12 12 12 12 13 13 13 13 13 13 13 13 12 12 12 11 11 10 10 10
5 4 5 7 7 6 6 7 7 8 9 9 9 8 7 8 7 7 6 5 5 6 7 9 10 11 11 12 13 14 14 14 14 14 14 14 14 13 13 13 13 13 12 12
6 7 6 6 6 6 6 6 6 7 7 7 6 5 4 4 4 4 4 4 5 5 7 8 9 10 11 12 13 14 14 16 16 16 16 16 16 16 17 17 17 17 17 17
4 4 4 4 5 6 6 6 5 5 5 4 4 3 3 3 2 3 4 4 4 4 6 7 9 11 12 13 14 16 17 18 19 21 21 22 22 22 22 22 22 22 22 23
6 4 2 1 3 6 7 7 7 6 5 5 5 5 5 4 4 4 4 3 3 4 6 8 9 11 12 15 17 19 20 22 23 24 25 26 27 28 28 29 29 28 28 27
7 7 4 3 4 5 6 6 6 6 7 6 6 5 4 3 3 3 2 2 4 6 8 10 12 14 16 19 21 24 26 27 28 29 29 28 28 29 29 30 31 32 32 32
6 5 5 4 4 4 5 5 6 6 6 6 5 5 4 4 3 1 2 4 7 9 11 14 16 18 21 24 26 28 30 31 31 32 32 32 32 32 31 31 31 31 31 31
6 6 6 5 4 5 6 5 5 6 6 6 6 6 5 3 1 3 6 8 11 14 16 18 20 24 26 29 31 32 33 34 34 34 34 34 34 34 33 33 32 32 31 30
6 6 6 5 5 5 5 6 6 7 7 7 6 4 3 4 5 7 10 13 15 18 20 23 25 28 31 34 35 36 36 35 35 35 34 34 34 33 33 33 33 33 32 32
5 5 5 4 5 5 6 7 7 7 7 6 7 6 6 8 10 13 15 17 20 22 25 27 30 33 35 37 37 37 36 36 36 36 35 35 34 33 33 33 32 32 31 31
3 4 4 4 5 6 7 8 9 8 8 8 8 8 10 13 15 17 19 21 24 27 29 32 35 37 37 37 37 37 37 37 37 37 36 36 35 35 34 33 33 32 32 31
5 5 5 6 6 7 8 9 10 10 9 9 10 12 14 16 18 20 22 25 28 31 33 35 37 37 37 37 37 37 37 37 37 37 37 37 36 36 36 35 34 34 32 31
6 6 7 7 7 8 9 9 10 10 11 12 13 15 18 20 21 23 26 28 30 33 35 37 37 37 37 36 36 37 37 38 39 39 39 39 38 38 37 36 36 35 34 33
6 6 7 8 8 9 9 10 11 12 13 15 16 18 20 22 24 26 28 31 33 35 36 36 36 36 37 38 38 39 40 40 40 40 40 40 39 38 37 36 35 35 35 33
6 7 8 8 9 9 10 10 12 14 16 17 19 20 22 23 25 28 30 33 34 35 36 36 37 38 38 39 40 41 41 41 41 41 40 39 38 37 36 35 35 34 34 34

GFSNGP_700_spd_111.txt.gz
Wind_Speed
19 18 14 12 13 17 21 23 24 22 25 25 29 28 28 32 38 34 29 25 24 24 25 21 22 22 23 19 19 22 22 16 19 19 22 24 26 21 24 24 28 34 35 37
14 14 16 19 20 23 26 27 29 30 33 26 26 23 27 31 30 23 19 20 20 21 17 17 15 15 13 12 11 11 9 13 12 12 13 14 20 33 22 29 29 27 32 37
12 8 11 15 21 25 28 27 26 26 24 17 19 25 25 28 21 16 14 17 15 12 9 8 12 18 19 16 14 14 11 7 5 8 10 14 14 17 25 34 27 31 31 37
7 4 9 6 5 6 8 12 15 19 16 25 19 23 25 22 14 11 12 10 8 3 6 10 16 16 21 22 18 14 12 13 12 7 9 9 10 6 13 17 37 39 43 44
13 15 14 10 14 13 12 14 16 19 23 23 18 15 16 16 12 10 7 5 2 5 9 14 15 18 20 22 25 25 23 21 17 15 13 10 9 10 6 11 14 18 33 39
9 10 6 3 9 8 17 19 20 18 16 18 13 6 13 11 10 7 6 6 7 9 11 13 14 16 18 22 25 30 31 32 30 27 21 18 18 14 12 2 4 2 12 23
16 9 4 8 9 15 6 5 8 12 14 12 12 11 10 9 8 7 8 9 9 10 11 13 15 16 17 20 26 29 28 28 29 30 31 31 28 25 21 17 11 6 7 14
12 8 7 7 12 8 11 15 13 9 14 14 7 7 10 8 8 8 9 9 9 9 11 13 12 12 14 17 22 23 23 24 26 27 28 28 27 27 25 24 22 19 14 7
5 2 8 15 9 8 9 7 2 9 12 12 7 8 10 9 9 9 8 8 10 12 11 10 11 12 12 17 20 21 20 21 22 23 23 24 23 23 23 22 21 21 20 19
4 7 8 6 3 1 1 1 4 8 10 8 9 12 12 11 10 9 8 9 11 10 9 8 9 10 12 15 19 19 19 20 21 21 22 21 21 20 20 19 19 19 18 17
8 7 4 3 1 3 5 7 7 8 10 12 13 13 12 11 11 9 9 10 9 8 7 6 10 12 13 15 17 17 17 18 18 19 19 19 18 18 18 18 18 18 16 16
8 6 3 0 2 4 7 8 9 10 11 13 13 12 12 11 10 9 9 9 7 6 7 8 10 12 13 14 15 16 16 16 17 18 18 18 19 19 19 18 17 17 16 14
6 5 3 3 5 6 8 9 10 11 12 12 13 12 11 9 8 8 7 6 6 7 7 9 10 11 12 13 14 14 15 16 17 18 20 20 20 19 18 18 19 17 16 16
4 4 5 6 5 6 8 8 9 10 10 10 10 9 8 7 6 5 4 5 5 5 6 7 8 10 11 12 14 15 16 17 18 18 19 20 20 21 22 22 20 19 20 20
3 4 5 6 7 7 6 7 8 9 8 8 7 6 6 5 4 3 3 3 4 3 4 4 4 5 6 8 10 12 14 16 19 21 23 25 25 25 23 22 22 22 23 24
3 4 5 5 6 6 6 5 5 6 5 5 5 4 3 3 2 3 4 5 4 2 2 3 4 5 7 9 12 15 17 19 21 23 24 26 28 29 29 30 30 29 27 27
5 3 3 3 4 5 6 6 6 6 5 5 5 4 4 4 5 5 5 4 3 0 3 5 7 10 12 15 17 20 22 24 26 27 28 30 31 31 31 31 31 32 32 32
7 6 4 3 3 6 7 8 8 9 8 7 6 6 6 5 5 4 3 2 2 4 7 9 12 15 17 19 22 25 27 29 31 32 33 35 35 35 34 34 34 34 34 34
7 7 6 4 4 5 7 8 8 8 8 7 7 6 5 5 6 6 5 5 6 8 11 13 15 18 20 23 26 28 30 32 34 35 37 39 38 38 37 35 34 34 33 33
6 6 6 6 5 5 5 6 7 7 7 7 7 7 8 8 8 7 7 7 9 12 14 17 19 22 24 27 29 32 33 35 37 38 38 38 38 37 37 37 36 36 36 35
4 5 6 6 4 4 6 6 6 7 8 9 9 10 10 10 9 9 9 11 14 16 19 21 24 26 29 31 33 35 36 37 38 38 38 38 38 37 38 38 37 37 37 37
5 5 4 4 3 4 4 5 7 8 8 9 9 9 9 9 10 11 13 16 18 21 23 25 27 29 31 33 35 37 38 39 39 38 38 38 38 38 39 39 39 39 39 38
4 4 3 4 4 5 5 6 7 7 7 8 8 8 9 10 12 14 17 19 21 23 26 27 30 31 33 35 37 38 38 38 38 37 38 38 39 39 39 39 39 39 39 38
4 5 6 7 7 7 7 7 7 7 7 8 9 10 12 13 16 18 19 21 24 26 27 29 31 33 35 37 38 38 37 38 39 39 39 40 40 40 40 40 39 38 37 36
6 7 7 7 7 7 7 7 8 8 10 11 12 13 15 16 18 19 21 23 25 28 30 30 33 36 36 37 37 37 38 39 40 40 40 41 41 40 39 38 38 37 36 36
7 7 8 8 8 8 9 10 10 11 12 12 14 15 16 17 19 21 23 25 26 29 32 34 34 35 36 36 37 38 39 40 40 40 40 40 39 38 38 37 36 35 35 34
8 8 8 9 10 11 11 12 12 12 13 13 14 16 17 19 20 22 24 26 28 31 33 34 35 34 35 37 38 39 39 40 40 40 39 38 37 37 36 35 34 34 34 33

GFSNGP_700_spd_114.txt.gz
Wind_Speed
19 20 15 16 15 14 19 24 24 24 21 20 19 19 16 20 24 33 35 34 27 24 24 24 27 27 26 26 22 19 16 16 15 18 16 17 19 27 31 14 27 22 46 33
16 15 15 19 20 21 23 23 25 24 26 21 23 23 22 27 31 29 31 26 22 21 20 21 19 18 19 15 12 11 12 13 12 13 10 13 17 18 19 9 13 16 20 34
12 11 13 13 19 22 23 22 24 26 22 19 20 23 25 33 30 26 23 19 16 14 13 11 11 12 17 18 15 12 13 11 8 7 7 7 12 18 14 20 9 16 16 20
12 5 7 8 6 10 11 12 13 14 17 23 29 25 28 21 23 20 19 13 10 7 5 6 9 13 19 24 25 25 22 20 20 17 14 12 13 18 7 12 17 12 21 17
12 13 16 11 10 16 19 18 15 18 20 25 25 22 19 16 17 15 12 8 4 1 3 6 9 14 17 20 24 28 33 34 33 30 25 21 18 15 16 16 10 9 16 16
10 10 7 7 10 9 10 13 18 20 17 18 17 8 14 13 12 9 8 5 4 4 4 5 10 13 15 18 21 26 30 32 31 33 35 35 33 30 27 23 19 12 10 7
16 12 6 13 11 11 6 8 10 10 9 14 16 13 12 10 8 7 6 6 6 4 4 9 12 13 13 15 19 25 26 26 28 30 32 33 32 32 33 31 28 24 18 11
14 9 11 10 11 8 14 19 19 20 15 16 10 6 11 5 5 6 7 6 5 7 12 11 11 11 11 14 21 22 23 24 26 27 28 28 28 28 28 28 28 29 27 26
7 4 7 13 16 16 15 17 14 11 9 10 9 4 6 6 6 6 6 6 9 13 10 9 9 11 11 14 18 20 21 23 25 26 26 26 25 26 25 25 25 25 24 24
6 7 9 12 11 9 9 7 5 6 7 9 7 5 6 7 7 6 5 7 12 10 10 9 11 13 13 15 18 19 20 22 23 23 24 25 25 24 24 24 24 24 23 23
10 10 9 8 6 5 3 1 3 6 7 7 8 8 8 7 7 6 7 10 11 10 9 8 10 10 11 14 16 17 19 20 21 22 22 23 23 23 23 23 23 23 22 21
8 6 4 4 3 2 1 3 6 7 8 10 10 9 9 7 7 6 8 10 9 8 8 7 8 9 11 12 14 15 16 18 20 21 22 22 23 25 25 25 24 23 22 20
9 6 4 1 1 2 4 6 7 8 9 10 11 10 9 8 7 7 8 7 7 6 5 6 7 7 8 9 11 13 15 17 19 20 21 23 23 23 23 23 23 23 23 23
7 7 7 6 5 5 7 8 9 9 10 11 10 10 10 8 7 7 7 7 7 6 5 5 5 7 8 10 13 16 18 19 20 21 22 23 24 24 24 24 24 23 23 22
4 5 7 8 7 7 7 8 9 10 10 10 9 8 8 7 5 5 5 6 6 4 4 4 5 7 8 10 13 14 16 17 19 22 24 25 26 26 28 29 29 27 27 26
4 5 6 7 7 7 8 8 8 8 8 7 6 5 4 4 4 4 4 3 2 1 2 2 4 6 9 11 13 15 18 20 21 23 25 27 28 29 30 30 30 28 27 29
3 4 5 5 5 6 6 6 7 7 7 6 5 4 4 4 4 4 4 3 3 2 3 4 6 8 11 14 16 19 22 23 25 28 29 31 32 32 32 33 33 33 32 28
7 6 5 3 3 5 6 8 8 7 6 5 5 5 5 5 5 5 5 5 5 5 6 8 11 13 15 17 21 24 27 30 32 32 34 35 35 37 36 35 34 34 33 34
9 8 7 4 3 4 5 7 7 7 7 6 5 5 6 6 7 7 8 7 7 7 9 11 14 17 20 23 26 28 30 32 35 36 37 38 38 38 38 38 37 36 36 36
7 8 7 6 5 5 6 6 7 8 8 8 8 9 9 9 8 8 8 8 8 10 13 16 19 21 24 27 29 31 33 34 36 38 39 39 39 38 38 38 39 38 38 37
4 5 5 5 5 5 6 6 7 8 8 9 9 8 8 8 8 9 9 10 12 15 17 20 22 25 27 30 32 33 35 37 38 39 39 39 39 39 39 39 39 39 38 38
5 5 4 4 5 5 6 7 8 8 8 7 7 8 8 8 9 10 12 13 16 18 19 22 24 27 29 31 33 35 37 38 38 38 38 39 39 39 39 39 39 39 39 38
5 6 6 6 6 6 6 6 6 6 6 6 8 8 9 10 12 13 14 16 17 20 22 25 27 29 31 33 35 37 38 38 38 39 39 39 39 39 39 39 39 39 38 37
5 6 5 5 4 4 5 5 5 6 7 8 9 9 11 12 14 15 17 19 21 22 24 26 29 31 32 35 36 36 37 38 38 39 39 40 40 40 39 39 38 37 36 36
5 5 4 5 6 6 7 7 7 8 8 9 10 11 12 14 16 16 18 19 23 25 25 26 29 33 35 36 36 37 38 39 39 40 40 39 39 39 38 38 37 36 35 34
6 5 5 6 6 7 7 8 9 10 9 10 12 12 13 14 17 18 20 22 23 26 29 30 31 32 33 34 36 37 38 39 39 39 39 39 39 39 38 37 36 35 34 34
7 7 7 8 8 9 9 9 10 11 12 11 13 14 14 16 18 19 21 23 24 27 29 31 32 32 33 34 35 36 37 37 38 38 38 39 39 38 37 36 35 34 34 34

GFSNGP_700_spd_117.txt.gz
Wind_Speed
14 14 17 14 14 15 16 20 22 27 25 23 24 15 14 19 24 26 31 31 34 36 32 27 27 26 25 26 26 24 22 22 20 18 19 22 20 22 26 27 28 39 28 29
18 18 18 15 19 20 17 21 24 22 18 14 17 18 21 22 20 29 34 36 32 28 22 20 17 17 20 19 18 15 15 13 11 11 10 10 14 18 21 18 19 14 19 22
6 10 11 13 20 22 24 19 16 15 17 23 26 28 27 25 27 33 35 28 22 18 16 12 10 11 13 17 18 18 16 17 17 16 15 11 10 15 16 10 12 18 12 13
5 5 3 7 6 8 9 15 13 16 22 22 22 25 26 28 32 29 25 18 14 11 7 3 5 8 11 14 19 23 26 30 31 31 29 25 21 17 16 18 8 14 12 3
6 9 12 12 14 13 16 18 21 24 25 24 25 28 26 24 21 17 15 10 10 6 3 2 4 7 10 12 17 18 23 28 31 33 35 35 37 35 33 29 22 21 9 7
7 4 4 8 12 15 11 16 18 17 16 20 18 19 14 12 10 10 8 8 7 5 3 3 5 9 12 15 18 20 23 26 30 30 32 33 35 36 37 38 36 30 24 21
19 9 8 14 12 13 6 10 12 12 12 12 15 11 10 9 6 5 5 5 6 3 4 7 10 10 8 11 14 18 21 24 25 27 30 31 31 30 31 33 34 35 35 33
15 10 11 12 11 12 17 19 21 21 18 15 15 12 7 7 3 4 5 5 4 6 10 10 8 8 9 13 18 20 21 23 25 27 28 29 29 30 30 30 29 29 29 30
10 10 8 8 13 16 15 15 15 13 7 7 9 5 5 6 6 6 5 5 7 11 11 10 10 12 13 14 17 18 19 21 22 24 24 25 25 26 26 27 28 28 27 27
10 10 10 10 12 11 10 10 7 3 6 7 8 2 6 7 6 6 6 8 11 12 11 10 12 13 11 13 14 15 16 17 19 20 22 23 24 24 24 25 26 26 25 26
12 14 13 10 9 8 7 6 1 4 5 6 6 8 8 8 7 7 8 11 12 11 11 11 12 11 11 11 12 13 14 16 18 20 22 23 23 24 25 25 25 25 24 23
10 4 4 4 4 4 3 2 3 6 7 10 11 10 10 9 8 8 10 12 11 10 11 10 10 9 8 8 10 10 12 13 15 17 18 20 21 23 23 24 25 25 25 24
9 6 4 3 1 1 2 4 6 9 10 10 11 11 10 9 9 8 10 10 10 9 9 8 6 4 5 5 7 9 11 14 16 17 19 20 22 23 25 25 24 24 23 23
12 9 8 6 3 3 4 6 8 9 10 11 10 10 9 8 7 8 9 9 8 7 6 4 3 2 3 5 8 12 14 17 20 22 24 25 25 25 24 23 25 25 24 23
7 7 9 10 7 6 6 7 9 10 9 9 8 8 7 6 5 6 6 6 6 5 4 3 1 1 4 7 10 13 15 18 21 23 24 26 27 28 28 28 26 26 28 28
4 6 9 11 10 9 8 8 9 9 8 9 8 8 7 7 6 6 6 6 6 5 4 2 2 4 8 10 13 16 18 21 23 24 26 27 27 28 28 29 30 30 29 27
5 5 7 9 9 9 9 9 9 9 9 9 8 6 5 5 5 6 6 6 6 5 4 4 5 7 10 14 16 19 21 22 24 26 27 28 29 30 30 30 31 30 30 30
7 6 6 7 7 7 8 9 9 8 8 7 7 6 6 6 6 6 6 6 6 5 5 6 9 12 14 16 19 22 24 25 26 28 30 31 32 33 33 33 33 33 34 34
7 7 7 6 6 6 7 8 9 9 9 8 7 7 7 8 9 8 7 7 6 6 8 9 13 15 17 19 21 24 26 28 30 31 33 34 34 35 36 36 36 36 36 35
4 5 7 7 5 4 6 7 8 9 10 9 9 9 8 8 7 6 6 7 8 10 12 13 16 18 20 21 24 26 28 31 33 34 35 35 36 36 37 38 38 38 38 38
4 7 8 7 7 5 6 6 6 7 8 8 8 7 7 7 7 6 8 10 12 12 14 16 19 21 23 24 26 28 30 32 33 34 34 35 35 37 38 38 38 38 38 38
5 5 6 6 6 5 6 7 7 7 7 7 7 7 8 8 7 7 11 12 13 14 16 18 20 22 24 26 28 30 31 33 33 34 35 36 37 38 38 38 38 37 37 37
8 7 7 7 6 6 7 7 7 7 7 7 8 8 8 7 9 10 11 14 14 16 18 20 22 23 25 27 30 31 32 33 34 35 36 37 38 38 38 38 37 37 37 37
7 7 7 8 8 7 7 7 8 8 8 8 8 8 8 9 10 12 14 14 16 16 18 21 23 25 27 30 31 32 33 33 35 36 37 37 37 37 38 38 38 38 37 37
7 7 7 8 8 8 8 8 7 7 7 8 9 8 10 11 10 12 14 16 17 17 19 21 24 27 30 30 31 33 34 35 36 36 36 36 37 38 39 39 38 37 36 35
7 6 6 7 7 8 8 7 7 6 7 8 9 10 10 12 13 14 16 18 20 21 22 24 26 28 28 29 31 32 34 34 35 35 37 38 38 37 35 33 32 31 31 32
6 6 5 5 6 7 6 6 6 6 8 8 9 10 11 12 14 15 16 18 20 22 24 26 26 27 28 29 31 32 33 33 35 36 36 35 34 32 30 30 30 31 31 31

GFSNGP_700_spd_120.txt.gz
Wind_Speed
27 23 13 15 16 17 16 18 26 28 26 20 21 17 20 21 20 17 20 24 30 35 37 33 27 25 26 27 28 26 22 21 21 22 20 20 21 26 25 25 24 27 25 28
20 20 17 14 15 17 21 21 19 17 19 22 18 18 17 19 19 18 21 27 35 38 34 26 21 19 17 18 16 17 18 18 18 16 13 12 11 12 12 16 18 22 23 24
8 14 14 15 21 25 25 24 23 25 26 24 18 18 19 19 20 21 25 30 33 27 23 17 12 11 9 11 17 19 20 22 25 25 25 26 24 21 20 21 16 11 16 16
6 6 4 8 10 11 15 19 19 19 17 18 20 23 25 25 24 24 27 27 23 16 13 9 5 5 8 10 12 13 16 19 23 26 29 31 32 33 31 28 27 26 15 14
7 12 6 6 12 12 12 14 18 20 22 24 26 27 28 25 25 25 21 17 13 9 7 6 3 2 5 9 12 17 20 21 25 25 27 28 29 33 35 36 35 32 30 27
11 4 5 7 13 18 14 19 19 21 21 19 17 18 14 18 16 14 12 11 7 4 4 3 2 5 11 12 11 10 15 19 21 24 27 28 28 28 30 32 35 36 37 37
17 8 8 15 15 14 8 9 8 12 15 17 17 14 13 12 13 11 8 6 3 4 5 6 8 11 8 6 7 13 17 18 19 22 24 27 28 28 30 31 30 30 32 35
18 8 12 13 11 12 14 17 19 20 23 23 22 18 13 13 10 7 5 4 5 6 10 10 11 9 7 6 8 14 15 17 18 20 22 23 24 25 25 26 27 28 30 31
12 11 11 7 9 13 17 17 14 14 12 11 9 14 13 11 8 5 4 5 7 12 12 12 12 7 6 7 12 14 15 15 17 19 20 21 21 22 23 23 25 26 27 28
14 13 14 13 11 14 14 11 9 6 6 8 8 6 7 8 6 6 6 6 10 13 13 11 8 7 7 10 12 13 14 15 16 16 18 19 20 21 22 22 24 24 24 25
20 18 16 16 15 12 9 6 3 5 8 8 9 7 7 7 7 7 8 10 12 13 11 9 8 7 7 10 12 11 12 13 14 16 18 19 21 22 24 25 25 26 25 25
12 8 7 6 6 6 4 2 2 6 8 10 10 9 9 9 9 9 11 13 13 12 10 9 8 8 9 9 8 8 9 11 13 16 18 20 22 23 24 25 25 25 25 25
9 8 7 6 4 2 1 2 5 8 10 11 12 11 11 10 10 10 13 13 12 11 9 8 6 7 6 5 5 6 9 13 16 18 20 21 22 23 25 26 25 25 24 23
13 12 8 6 4 2 2 4 7 10 11 12 11 11 10 10 11 13 12 11 10 10 8 6 4 4 2 3 5 8 12 15 17 19 21 23 24 25 25 25 25 26 25 25
11 11 10 9 7 4 4 6 8 10 11 11 11 10 9 9 9 10 10 9 8 7 5 3 2 0 3 5 8 10 13 16 19 22 24 26 27 28 27 27 27 27 27 27
6 8 9 10 9 7 5 6 7 8 9 9 8 9 9 8 7 7 7 7 7 6 4 3 2 4 6 9 11 13 16 18 21 23 25 26 27 28 29 30 29 29 29 29
5 5 7 9 9 8 8 8 8 8 7 7 7 6 6 6 6 7 8 8 6 5 4 5 5 7 10 13 15 16 18 22 24 26 28 29 30 30 31 31 31 32 32 33
6 6 7 8 8 8 9 9 8 7 7 6 6 7 7 7 8 8 7 7 6 6 7 8 10 12 14 16 18 20 22 24 26 28 29 30 31 31 31 32 32 33 34 35
7 8 8 7 8 8 9 10 10 10 10 9 9 9 8 8 8 9 9 7 7 9 12 13 14 14 16 18 20 23 25 27 29 29 30 31 32 33 33 33 35 36 37 36
8 9 10 10 9 9 10 11 13 13 12 12 11 11 10 9 9 9 9 8 10 12 14 15 15 17 18 20 23 26 26 27 29 30 31 32 32 33 34 36 37 37 38 39
7 7 8 9 9 7 8 11 12 13 13 12 12 11 10 9 10 10 9 9 11 14 14 15 18 19 21 23 24 25 27 29 30 31 31 32 34 35 36 36 37 38 38 39
5 5 6 7 8 7 8 9 9 10 11 11 10 10 9 9 9 8 8 10 12 14 15 17 18 20 21 23 25 27 28 30 30 31 32 33 35 35 36 36 37 38 39 40
8 7 7 7 7 7 7 8 9 9 10 10 10 9 8 8 8 9 10 11 12 14 16 18 20 21 22 24 26 28 29 29 30 32 34 35 36 36 37 38 39 39 38 38
8 8 8 9 9 8 8 9 9 9 9 9 7 6 7 8 8 10 11 12 13 15 17 19 21 22 24 26 27 28 29 30 31 33 34 35 35 37 37 37 37 36 35 33
8 9 10 10 10 9 9 9 9 9 9 7 7 7 8 9 10 12 12 13 14 16 17 19 22 23 25 26 27 28 29 30 31 32 33 35 35 36 36 35 33 33 33 33
10 11 11 11 10 10 9 9 9 9 8 8 9 9 10 11 12 13 13 13 14 16 18 20 22 24 25 26 27 28 29 30 31 33 34 34 35 34 32 31 31 32 32 32
9 9 9 8 9 9 9 9 9 10 10 9 9 10 11 12 12 12 13 14 16 17 19 22 23 23 24 25 27 28 28 29 31 32 33 33 31 29 29 30 30 31 31 31

GFSNGP_700_spd_126.txt.gz
Wind_Speed
30 28 29 27 22 19 25 31 29 41 32 30 32 24 26 24 21 22 23 24 22 22 25 25 27 27 24 20 18 17 16 16 18 20 21 22 21 20 21 23 25 24 21 20
34 31 30 29 32 34 31 33 41 38 38 35 28 24 20 20 21 21 22 23 22 25 26 27 25 21 16 14 14 12 11 11 13 16 21 24 27 29 28 29 30 30 23 19
21 25 26 27 38 33 31 30 31 32 34 29 25 22 20 19 19 19 20 22 25 26 27 28 22 12 11 10 6 3 8 13 18 21 23 24 24 25 28 32 35 35 34 28
19 10 5 18 15 15 18 20 24 28 28 27 23 17 16 16 16 20 22 25 27 26 24 21 15 10 9 6 4 10 10 10 12 16 18 22 23 25 26 28 29 32 36 38
9 14 18 16 14 16 16 16 17 16 15 16 16 16 18 18 19 21 22 21 19 20 20 15 11 9 6 7 11 7 6 9 12 15 17 19 21 23 25 27 29 32 32 32
15 5 8 5 4 8 12 22 21 22 23 23 21 21 18 19 19 16 15 13 14 16 14 11 10 8 8 13 4 4 6 10 14 15 17 19 22 23 25 26 28 28 30 31
22 11 8 12 16 14 10 13 11 9 11 14 16 17 17 16 14 15 14 14 13 13 11 9 10 8 13 6 3 2 7 13 15 16 18 20 22 22 24 25 26 26 27 28
20 12 9 16 15 16 13 13 11 14 19 21 21 21 21 20 18 14 13 12 11 11 8 7 11 13 10 4 3 7 11 13 14 15 17 19 20 21 21 22 23 24 26 27
14 10 15 10 9 8 8 11 16 18 22 22 20 18 16 13 9 9 9 8 7 6 6 11 14 14 6 5 6 8 10 10 11 13 15 16 17 17 18 19 19 21 22 24
19 23 22 20 17 15 16 17 19 22 21 19 14 10 9 9 10 9 7 6 7 8 10 15 16 9 7 6 6 8 8 9 10 12 15 16 17 19 20 20 21 22 22 22
26 24 19 16 15 16 20 21 21 20 16 10 6 6 5 7 7 6 6 6 8 10 15 15 10 8 7 6 6 5 6 8 10 12 13 15 18 20 24 26 27 27 27 27
24 16 16 16 18 17 14 14 15 13 9 7 8 5 6 7 7 6 7 7 9 14 15 12 8 7 5 3 2 4 6 8 10 12 16 19 22 24 26 28 29 30 30 29
19 15 14 12 9 9 9 9 9 8 8 8 8 7 8 8 8 8 9 9 12 13 11 9 7 5 3 1 2 5 8 9 12 15 18 20 22 25 27 29 29 29 28 29
17 15 14 11 9 7 6 6 4 4 6 8 9 9 9 9 8 9 10 11 12 11 10 8 6 4 3 3 5 9 11 12 15 17 20 22 24 26 27 27 27 27 28 29
15 15 14 12 10 7 6 3 3 4 5 8 10 10 9 9 10 10 11 12 10 9 8 6 5 4 4 6 9 11 13 16 19 21 23 25 27 28 29 29 29 29 29 31
11 12 13 12 11 9 6 4 4 5 6 8 10 9 9 9 10 10 12 11 9 8 7 6 5 5 7 10 12 14 16 19 21 23 26 28 29 30 30 31 31 32 34 34
7 8 9 9 10 10 8 7 7 8 9 10 9 9 8 8 8 10 11 10 9 8 7 7 7 8 10 12 14 16 18 21 23 25 27 28 29 30 31 32 34 35 36 37
7 6 6 9 11 9 8 8 8 10 11 10 10 10 9 9 9 11 11 11 9 8 7 7 9 11 13 15 16 18 20 22 24 25 27 28 30 31 33 34 35 35 36 36
9 8 8 8 9 10 10 9 9 10 11 12 11 11 11 11 11 11 10 10 9 9 8 9 10 12 14 16 18 20 21 23 24 26 28 29 30 32 34 35 36 36 37 37
10 9 8 8 8 9 9 9 10 10 10 11 11 11 11 10 10 10 9 10 11 11 11 10 11 13 15 17 19 20 22 24 26 27 29 30 32 33 34 34 35 36 37 39
11 10 9 8 8 8 8 9 9 10 11 11 12 13 12 10 9 9 9 9 9 8 9 10 12 14 16 18 19 21 22 24 26 28 29 30 31 32 33 34 35 36 36 36
8 8 8 8 8 8 8 7 7 9 10 11 12 11 9 9 9 8 8 8 8 9 10 11 13 15 17 18 20 22 24 26 27 28 29 30 31 32 32 33 34 34 34 33
7 7 7 8 8 8 8 8 8 8 8 9 10 10 10 10 10 9 9 9 9 10 11 12 14 16 17 19 21 23 25 26 26 27 28 28 29 30 31 31 31 31 30 30
8 8 8 9 8 6 6 6 7 7 8 9 10 10 9 10 11 10 9 9 10 11 13 14 15 16 18 20 22 23 24 24 25 26 27 28 29 29 29 28 28 28 29 30
8 10 9 9 9 8 7 7 7 7 8 9 10 11 11 11 10 9 10 11 13 14 14 14 16 18 19 20 22 23 23 23 24 25 26 27 27 27 26 25 25 26 27 29
7 8 9 9 9 8 8 7 7 8 8 9 11 12 12 10 9 10 11 12 13 14 15 16 17 18 19 21 21 21 22 23 23 24 25 25 24 23 23 23 24 25 25 26
7 7 7 8 8 7 7 7 8 8 10 11 12 11 10 9 10 11 12 14 14 15 16 17 17 18 19 19 19 20 21 22 22 23 24 23 21 21 21 21 21 21 22 25

GFSNGP_700_spd_129.txt.gz
Wind_Speed
30 29 29 32 32 27 29 32 25 41 33 37 35 34 28 29 25 25 24 27 25 26 28 25 27 29 29 28 22 19 17 13 11 13 19 23 24 26 28 30 31 34 33 26
32 30 29 30 35 35 33 33 38 42 45 39 36 35 28 24 23 20 23 23 24 24 26 26 29 30 27 23 19 14 9 7 13 17 19 21 23 24 26 28 29 33 36 37
28 20 20 19 38 38 40 38 39 37 37 31 27 26 23 20 21 21 20 21 23 25 26 28 29 27 22 19 16 8 5 9 8 9 10 12 17 20 21 22 25 27 32 34
24 19 10 27 29 25 22 21 23 26 27 26 22 20 20 20 18 17 18 20 23 25 27 28 24 20 17 16 14 2 5 5 5 8 11 15 18 20 22 23 25 25 28 31
17 16 24 33 25 22 21 27 20 23 21 17 15 14 15 15 16 17 18 20 22 22 21 18 16 15 14 13 7 6 1 3 5 9 12 15 17 19 21 23 23 25 26 26
23 7 9 23 13 16 16 26 23 21 19 17 17 17 14 15 18 19 19 18 16 16 15 14 12 11 12 12 10 4 2 3 6 10 12 14 17 19 21 22 22 22 22 23
34 21 23 22 13 12 8 15 9 8 6 6 9 13 15 16 17 17 16 16 16 15 13 11 9 8 16 15 10 5 3 5 8 11 13 15 17 18 20 21 22 22 22 22
26 18 17 18 19 17 14 14 11 8 9 11 14 18 18 17 16 16 16 15 13 11 9 7 6 13 18 13 7 6 5 7 10 11 13 14 15 17 18 18 18 19 20 22
21 17 19 9 9 13 10 9 10 12 14 16 20 19 18 16 15 12 11 9 9 8 7 7 13 17 15 7 6 6 6 7 8 10 10 11 13 14 15 16 17 18 20 20
24 27 24 21 18 19 15 13 15 16 18 20 18 17 13 11 10 9 8 8 8 8 8 11 18 16 10 7 5 5 5 6 8 9 10 11 13 14 16 18 18 20 21 21
26 26 21 19 17 16 14 16 18 19 18 16 12 7 7 9 10 10 9 8 8 10 13 19 18 12 11 8 4 3 3 5 8 9 10 12 14 17 19 22 24 25 26 26
24 23 20 18 15 15 16 15 13 13 13 10 7 8 7 9 10 11 10 9 10 13 18 18 13 11 9 6 3 1 4 7 9 10 13 15 18 21 23 24 25 26 26 27
24 22 18 13 12 10 9 10 10 11 9 7 9 10 9 10 10 9 10 12 13 16 19 15 13 11 8 5 2 2 5 8 10 12 15 17 20 22 23 25 26 26 27 27
20 20 17 13 10 8 8 8 8 8 7 9 10 10 10 10 9 11 13 14 16 18 16 14 12 10 8 5 3 4 7 10 13 15 17 19 20 22 23 24 25 28 29 30
17 16 15 13 10 9 8 7 6 6 7 8 10 10 10 10 11 12 14 15 17 15 14 13 11 9 7 5 5 7 10 13 15 17 19 21 23 24 24 24 26 27 29 30
14 15 14 13 12 10 9 7 7 7 8 9 9 9 10 11 12 12 14 17 16 14 13 12 10 9 7 6 7 9 11 14 16 18 21 23 24 25 26 27 27 28 28 29
10 11 12 11 11 11 11 10 9 10 10 10 10 10 10 10 11 12 14 16 16 13 11 10 9 8 6 7 9 11 13 16 18 20 22 23 25 26 28 29 31 32 33 33
8 8 9 10 12 12 11 10 10 10 10 10 10 11 10 11 11 11 14 15 15 13 11 10 8 7 7 8 10 13 15 17 19 21 22 24 25 26 28 29 30 32 33 34
9 8 8 8 10 12 12 12 11 11 11 11 11 11 11 10 10 11 13 14 14 14 12 10 7 7 8 10 12 14 16 18 20 22 23 24 25 27 28 29 30 31 32 33
10 9 8 8 9 10 11 12 12 11 11 11 11 11 10 10 10 11 13 13 13 13 11 9 8 8 9 11 13 14 17 19 20 22 23 24 26 27 28 29 29 30 31 31
10 9 8 8 9 9 9 10 10 10 11 11 12 12 12 12 11 12 12 12 11 9 8 7 7 9 9 11 14 15 17 19 21 23 23 24 25 26 27 28 29 29 29 29
8 8 8 8 8 8 9 9 9 10 11 11 12 12 11 11 11 11 11 10 10 9 7 7 8 9 11 13 14 16 18 20 21 22 23 23 24 26 26 27 26 26 25 26
6 6 6 7 7 7 7 7 8 9 10 11 11 12 12 12 11 10 10 10 9 7 6 8 9 11 13 14 15 17 19 20 21 21 22 23 24 24 24 24 23 22 23 24
6 6 7 7 7 7 7 7 7 8 9 10 11 11 11 10 10 10 11 9 7 7 8 10 11 12 13 15 16 18 19 20 20 20 21 21 22 22 21 20 20 21 20 19
7 8 9 8 8 8 8 7 7 7 8 9 10 10 11 11 11 11 10 9 9 9 10 11 12 13 15 16 17 18 19 19 19 19 20 20 20 19 18 18 18 16 16 18
6 6 7 8 8 8 8 8 8 9 10 10 11 11 11 11 11 11 9 9 9 10 10 11 13 15 15 16 17 18 18 18 18 18 19 19 18 17 16 15 13 13 15 18
6 6 7 8 8 9 9 9 9 10 10 10 11 11 10 11 11 10 9 9 10 10 12 13 14 16 17 17 18 17 17 17 17 17 18 17 16 15 13 12 11 13 16 18

GFSNGP_700_spd_132.txt.gz
Wind_Speed
26 27 25 28 29 30 32 34 32 40 30 34 27 25 22 21 28 25 25 26 27 27 26 28 28 28 27 30 29 24 20 17 11 6 6 9 12 15 17 20 23 28 31 36
27 24 25 29 34 36 35 37 38 40 41 29 30 30 33 31 30 27 25 24 24 23 25 27 26 27 28 28 24 19 16 12 4 5 6 7 9 11 15 18 21 24 26 28
30 19 17 21 38 34 36 34 34 36 36 26 28 30 28 26 27 26 23 23 23 21 24 24 26 28 28 24 19 15 12 5 4 6 4 6 8 11 14 17 20 23 23 24
30 23 15 31 26 29 26 28 26 30 29 33 29 28 26 24 23 22 22 22 22 22 23 24 26 26 22 19 15 12 6 1 6 4 3 6 9 11 14 16 18 21 22 23
25 28 29 39 31 31 28 35 26 26 27 31 26 23 20 18 17 18 19 20 21 21 23 24 22 19 17 14 11 7 4 2 3 2 3 6 9 11 14 16 18 18 20 21
29 23 20 40 19 17 19 31 23 20 28 28 24 20 20 18 19 20 20 21 20 21 21 19 18 15 12 11 10 8 5 2 3 1 3 6 9 12 15 16 18 20 20 19
33 33 32 28 21 19 15 19 14 15 17 15 15 16 13 15 17 19 20 21 21 19 18 17 14 12 11 13 12 12 5 5 3 2 5 8 11 14 15 17 19 20 20 21
22 26 24 24 23 27 22 18 19 15 11 12 12 13 16 17 18 18 18 18 18 18 17 14 12 12 15 17 13 7 7 5 3 4 5 9 11 13 14 16 16 17 18 19
20 19 22 22 20 21 18 17 16 13 13 14 15 17 20 18 17 17 17 16 15 14 12 11 11 14 18 15 8 8 6 4 3 3 5 8 10 11 13 14 15 15 15 16
23 32 36 37 23 21 20 15 17 16 17 17 18 19 17 16 14 14 13 13 12 11 11 12 15 22 16 12 10 8 5 3 0 3 6 8 10 12 14 16 17 18 17 18
30 35 34 20 17 18 18 19 18 18 19 19 17 15 13 11 11 13 14 12 12 12 14 17 21 22 16 11 9 7 4 1 2 5 8 10 11 14 16 18 19 21 22 23
22 24 22 13 17 17 18 20 20 19 17 14 13 11 10 10 12 13 12 11 12 15 18 22 21 17 14 12 9 6 4 3 4 7 10 13 15 17 19 21 22 23 23 24
17 14 17 20 15 14 15 17 16 15 14 12 10 11 11 11 12 12 12 12 15 18 22 24 20 16 14 12 8 6 5 4 5 8 11 13 16 18 20 20 21 22 23 24
16 19 20 17 16 15 14 13 13 13 11 9 11 12 12 11 12 12 13 14 18 20 23 22 18 15 14 11 8 7 5 5 7 10 12 14 16 18 19 20 22 24 25 26
20 19 19 18 17 15 14 13 11 9 8 9 10 12 12 13 13 13 15 17 19 21 22 19 16 15 12 10 8 7 7 7 9 12 13 15 16 17 19 20 22 24 26 27
18 18 18 18 17 15 14 12 10 8 8 9 10 12 13 13 13 14 16 18 20 21 18 16 15 13 11 10 9 8 8 9 11 13 14 16 17 19 20 22 23 24 25 25
15 16 16 16 16 15 13 13 11 10 10 10 11 12 12 12 14 15 17 19 21 20 17 15 13 12 11 11 10 9 10 11 13 14 15 16 18 20 21 23 24 24 25 26
11 11 13 15 15 15 13 13 12 11 11 11 12 12 12 13 14 14 16 20 22 21 20 17 14 13 13 11 10 10 11 12 13 14 15 17 19 21 22 23 24 25 26 27
10 10 10 11 12 13 14 13 12 12 11 11 12 13 13 13 13 14 15 18 19 20 19 18 15 14 13 12 11 11 12 12 13 15 16 18 19 21 22 23 24 25 25 26
11 9 9 9 9 10 11 12 13 12 12 12 12 13 12 12 12 12 14 17 18 18 17 16 16 15 14 11 10 11 12 13 14 16 18 19 20 20 21 22 23 23 23 23
10 9 9 9 9 9 10 11 11 11 11 12 12 12 12 12 12 12 12 13 14 15 16 16 13 11 9 10 11 12 13 14 16 17 18 19 20 20 21 21 21 21 20 20
9 8 8 8 8 9 9 9 10 11 12 12 12 12 12 12 12 12 13 14 14 14 13 12 11 8 10 11 12 13 14 15 16 17 18 18 19 19 20 19 19 18 18 16
8 7 7 8 8 9 9 9 10 11 11 12 12 13 13 13 13 12 12 13 13 13 13 10 8 10 11 12 12 14 15 16 17 17 18 18 18 18 19 18 17 16 14 12
8 7 6 6 6 7 8 9 9 10 11 12 12 13 14 13 13 14 14 13 13 13 10 9 11 12 12 12 14 15 15 16 17 17 17 17 18 18 17 16 15 12 11 11
6 6 7 7 7 8 8 8 8 9 9 11 12 13 13 14 15 15 14 13 13 11 10 11 11 12 12 13 14 15 16 17 17 17 17 17 17 16 15 14 12 10 10 12
7 7 8 9 9 9 9 10 10 11 11 11 12 12 13 13 13 13 13 13 11 11 11 11 12 12 13 14 15 16 16 17 17 17 17 17 16 15 14 12 10 10 11 13
8 9 9 10 10 10 11 11 11 11 12 12 13 13 13 13 13 13 12 12 11 12 12 12 13 13 14 15 16 17 17 17 17 17 17 16 15 14 12 11 10 11 12 14

GFSNGP_700_spd_135.txt.gz
Wind_Speed
25 27 27 28 30 35 34 37 37 42 37 39 31 33 28 21 20 20 27 26 25 29 28 29 29 26 27 25 27 28 30 25 19 16 13 10 11 10 8 8 11 14 18 21
27 26 27 30 34 38 37 39 40 41 44 40 35 30 27 19 20 24 32 30 29 28 29 27 22 24 26 26 26 29 24 19 16 13 9 12 10 8 8 9 11 15 18 21
28 19 20 25 39 33 35 35 35 39 40 37 31 32 24 19 20 24 32 30 28 28 26 24 23 24 24 25 27 24 17 14 13 10 9 9 8 6 7 9 12 15 17 19
31 25 19 37 31 28 25 28 29 31 31 28 27 26 22 26 27 27 29 24 24 25 23 23 23 23 24 25 22 17 12 11 9 8 8 6 8 6 7 9 11 13 16 18
31 32 31 35 38 26 28 41 33 31 30 26 29 34 33 30 28 25 20 21 22 22 22 23 22 23 23 21 17 12 10 10 7 6 7 7 6 5 6 8 10 13 15 16
30 26 22 47 33 27 23 35 27 22 22 20 29 29 24 25 20 20 22 22 23 24 23 21 21 21 20 18 14 10 10 8 6 7 8 6 3 4 6 9 12 14 16 17
38 33 37 39 29 24 20 29 21 16 15 21 22 23 21 20 16 17 19 22 23 23 21 20 20 20 19 15 13 13 12 8 6 7 4 3 3 6 9 11 14 16 17 18
23 28 27 23 21 22 21 23 26 29 25 21 19 15 14 17 19 20 21 22 22 22 21 20 20 18 15 14 14 12 10 7 7 4 5 4 6 9 11 13 14 16 17 19
28 26 21 27 26 25 29 26 29 23 20 18 16 17 19 20 22 22 21 20 20 20 19 19 16 14 13 12 12 14 7 8 5 3 5 5 8 9 11 12 13 15 16 17
22 26 28 32 39 31 36 37 30 19 21 19 20 21 22 23 22 21 19 18 19 18 17 15 13 13 13 15 15 10 8 8 6 5 4 6 9 10 12 14 15 16 17 19
21 23 30 31 31 32 27 21 16 21 22 21 22 23 23 21 20 17 15 15 14 14 14 13 15 16 18 15 11 10 9 8 5 4 5 8 10 11 13 15 16 17 18 19
23 21 23 20 17 11 13 13 17 19 21 23 23 20 20 18 15 13 13 14 14 14 14 16 18 22 18 15 12 10 9 7 6 6 7 10 11 13 16 18 19 20 21 23
18 22 18 16 17 17 14 13 16 19 20 20 19 19 16 14 12 12 13 14 14 15 16 19 20 22 20 15 12 11 10 8 7 8 10 12 14 16 17 16 18 21 21 23
22 21 20 19 21 17 16 16 16 16 16 17 17 16 13 13 12 12 13 14 14 16 18 22 21 19 17 14 13 12 10 8 9 10 13 14 15 16 18 19 20 22 22 23
23 23 24 23 20 18 17 16 15 15 15 14 14 14 13 13 13 13 14 14 15 18 21 24 23 19 16 16 14 13 11 10 11 13 13 14 15 16 17 18 19 20 22 23
22 24 24 21 19 18 16 16 15 15 14 13 12 12 13 14 13 14 14 16 18 21 23 24 21 19 17 16 14 13 12 13 14 13 14 15 16 17 18 19 20 21 22 23
21 20 19 18 17 16 16 16 16 15 14 12 11 11 12 12 13 15 16 17 18 21 24 23 19 18 16 15 14 13 14 14 14 14 15 16 16 17 18 19 21 22 22 23
22 18 15 15 17 16 16 16 15 14 13 12 10 11 11 12 13 13 14 16 19 21 22 19 18 17 15 14 14 14 14 15 15 15 15 16 17 17 19 20 20 21 21 21
17 15 12 11 12 14 15 15 14 13 12 10 11 12 13 13 13 14 14 16 18 21 22 24 25 22 19 16 15 16 16 16 16 15 16 17 17 18 19 19 19 19 20 20
14 12 10 9 9 10 11 11 11 11 11 11 11 12 12 12 12 13 13 14 17 18 21 22 23 22 21 20 19 16 13 15 16 15 16 17 18 18 19 19 19 19 19 19
12 10 9 9 9 9 9 10 10 10 10 10 11 11 11 12 12 12 13 13 13 16 18 19 19 18 16 15 14 12 14 16 16 16 17 18 18 18 18 18 18 18 18 17
10 9 8 8 8 8 8 8 9 10 10 11 11 11 11 12 12 13 14 14 14 15 16 15 14 14 15 15 11 13 16 16 16 17 17 18 18 18 18 18 17 17 16 14
8 8 7 7 7 8 8 8 8 9 10 11 11 12 13 13 14 14 13 12 12 12 13 14 15 16 15 11 13 15 15 16 17 17 18 18 18 18 18 17 17 16 14 12
8 8 7 6 6 7 7 8 8 9 10 11 12 13 14 15 15 14 13 14 13 15 14 14 16 15 12 14 15 15 16 17 17 18 18 18 18 17 17 17 16 15 14 12
7 7 8 8 8 8 8 8 8 8 9 10 11 12 13 14 14 14 14 13 14 15 15 17 16 13 14 14 15 16 17 17 18 18 18 18 18 18 18 17 17 15 14 13
9 9 9 10 10 9 9 10 10 10 10 10 11 12 13 13 13 13 13 14 14 15 17 15 14 14 14 15 16 17 17 18 18 18 18 18 18 18 18 18 17 16 14 14
11 10 10 10 11 11 11 11 12 12 12 12 13 13 13 14 13 13 14 14 15 16 15 14 14 15 16 16 17 18 18 18 18 18 18 18 18 18 19 18 17 16 15 15

GFSNGP_700_spd_138.txt.gz
Wind_Speed
25 29 27 28 28 30 31 30 30 35 32 35 35 31 27 32 33 32 35 34 29 25 32 27 25 25 25 27 23 24 24 25 27 24 20 17 15 14 13 12 11 9 9 10
25 26 26 28 31 34 33 33 36 36 39 37 36 35 33 21 23 24 17 25 28 36 30 24 23 24 23 20 23 23 23 24 22 19 17 14 13 13 12 10 9 8 9 10
26 26 25 18 39 30 29 29 30 34 31 28 26 28 29 30 23 29 25 29 35 33 27 24 24 21 20 22 22 22 22 20 17 16 14 13 12 10 11 9 8 9 10 13
26 22 17 34 29 26 27 29 33 30 28 28 28 27 30 24 23 24 22 29 30 26 23 24 24 21 20 20 21 20 19 17 14 13 12 10 9 10 10 8 8 10 11 13
29 29 29 35 38 24 27 34 35 31 31 28 25 29 30 30 25 24 29 25 21 22 22 22 21 19 20 20 20 18 17 15 13 10 8 8 9 11 8 8 7 9 11 12
30 24 19 47 30 20 16 33 26 22 21 19 21 27 26 27 25 21 21 21 22 22 23 22 20 20 20 19 17 17 14 12 10 8 6 7 8 9 7 7 8 9 11 13
38 28 31 46 33 27 25 29 19 20 19 19 25 25 23 21 22 20 17 18 19 22 23 22 20 19 19 18 16 14 12 10 8 7 6 6 5 6 7 9 10 12 13 15
23 22 21 24 20 18 21 20 22 23 33 31 33 22 24 20 18 18 20 22 23 24 21 20 19 19 18 16 14 12 11 10 9 7 7 4 5 6 8 10 12 13 15 16
31 30 21 24 28 32 23 26 26 33 37 31 32 19 18 18 20 22 24 25 24 21 20 19 17 17 16 14 12 11 10 10 7 6 8 9 7 7 9 11 12 13 14 15
25 34 26 25 28 29 30 28 29 35 38 32 19 19 20 22 23 25 26 25 21 18 17 16 16 15 13 12 11 12 12 8 7 6 7 7 7 9 11 12 14 14 15 16
21 19 27 26 15 23 28 28 31 27 22 16 18 20 22 24 25 24 22 21 16 15 15 14 14 13 12 13 14 16 10 8 8 7 8 7 8 10 12 14 15 16 17 18
19 18 20 21 24 24 25 17 16 17 18 18 19 20 23 24 22 20 18 15 13 13 15 13 12 13 14 16 15 11 9 8 8 9 8 8 10 13 15 17 17 17 18 19
22 23 20 20 21 20 21 18 16 17 17 18 19 20 20 20 18 14 13 13 13 14 15 13 13 13 16 16 14 11 9 9 10 10 9 11 14 14 15 16 17 19 19 21
30 29 25 24 25 22 23 22 19 19 17 17 16 18 17 16 13 13 12 13 14 15 15 14 14 18 20 17 14 11 10 11 11 11 12 13 16 18 19 19 20 20 20 21
26 23 21 23 25 24 23 20 20 17 16 15 16 15 13 12 12 12 13 14 15 16 16 15 17 18 18 17 16 12 12 13 12 12 13 15 17 18 19 20 20 21 22 22
17 19 19 22 22 24 21 19 18 15 15 14 13 12 11 12 12 13 14 14 15 16 15 16 19 18 17 16 16 14 14 14 13 13 16 17 18 19 19 19 20 19 20 20
18 20 22 24 22 19 17 18 15 14 13 13 12 11 11 11 12 13 14 14 14 12 14 18 21 21 19 18 15 16 15 14 13 15 16 18 19 19 18 19 20 19 21 20
25 26 26 23 18 15 16 15 13 12 12 12 11 11 10 11 12 11 9 10 12 14 16 19 21 21 19 15 17 16 14 16 16 18 19 18 19 19 19 19 20 21 20 20
27 26 20 15 11 10 12 11 12 12 10 10 11 11 12 11 10 11 11 11 12 13 15 17 20 21 21 21 24 24 23 22 20 17 15 18 19 19 19 19 20 20 20 19
18 15 12 10 9 8 9 9 10 10 10 10 10 10 10 10 10 10 10 11 12 12 14 17 20 22 24 25 25 25 21 18 16 14 16 17 18 19 19 19 20 20 19 18
11 10 9 9 8 8 8 8 8 9 9 9 10 10 10 10 10 10 11 11 10 12 13 15 16 18 19 20 19 18 17 15 13 14 16 18 19 19 19 19 19 19 18 18
9 9 8 8 7 7 7 7 7 7 8 9 9 9 9 10 10 11 12 10 11 12 12 12 13 15 16 16 16 16 14 12 14 15 17 18 19 19 19 19 19 18 18 18
8 8 7 7 6 6 6 6 7 7 8 9 9 10 10 11 12 13 12 10 12 12 12 11 13 16 15 14 14 14 12 14 15 16 18 19 19 19 19 19 19 18 18 17
7 7 6 5 5 6 6 6 7 7 8 9 10 11 11 12 13 14 13 12 13 14 12 13 14 13 13 14 14 13 14 15 16 17 18 19 19 19 19 19 18 18 18 17
7 6 6 6 7 7 7 7 7 8 8 8 9 10 11 11 12 12 12 13 14 12 12 13 13 14 15 15 14 15 15 16 17 18 19 19 19 19 18 18 18 18 18 17
8 8 8 8 8 8 8 8 8 8 8 9 9 10 10 11 11 11 12 12 12 11 13 13 14 15 15 15 16 16 16 17 19 19 20 19 19 19 19 19 19 19 18 18
10 10 10 10 9 9 10 10 10 10 10 10 10 10 11 11 11 11 12 13 12 11 13 13 15 16 16 16 16 17 18 19 20 20 20 20 19 19 19 19 19 19 19 19

GFSNGP_700_spd_144.txt.gz
Wind_Speed
18 24 26 24 26 30 32 23 20 23 21 25 25 22 16 18 20 21 20 24 24 26 27 24 23 23 21 16 19 21 22 25 22 20 22 22 20 18 16 15 15 16 17 17
29 28 23 18 25 26 30 33 22 21 26 29 23 14 19 21 22 21 22 24 26 27 23 25 19 18 23 22 22 21 21 23 21 21 21 20 18 16 14 14 14 16 17 17
18 17 16 18 35 30 27 20 16 19 21 18 20 20 22 24 24 24 27 24 21 21 22 21 17 16 21 25 22 23 23 20 20 20 20 18 16 13 12 12 14 16 16 15
14 11 6 19 20 14 7 13 19 23 27 27 28 26 28 28 27 27 26 25 22 19 19 17 16 17 22 24 23 21 18 19 20 19 18 17 14 12 11 11 12 14 13 13
7 12 21 38 35 17 17 34 32 28 29 30 29 29 24 23 23 22 20 21 21 20 17 18 20 19 25 24 23 19 19 21 19 18 16 13 11 10 10 10 11 11 11 12
19 12 6 48 39 25 16 28 25 22 20 21 22 22 18 19 20 24 26 25 24 16 17 19 20 23 27 26 22 19 22 21 19 15 12 10 8 8 9 8 9 9 12 15
23 19 24 39 34 31 24 42 28 24 22 20 19 17 22 25 28 28 24 21 19 18 16 17 22 26 27 24 21 23 21 18 16 11 10 9 10 9 8 8 9 12 13 14
14 13 15 16 5 15 14 14 14 19 26 28 26 28 29 29 28 26 25 19 17 19 21 21 23 25 25 21 22 21 18 16 13 11 11 10 6 6 7 8 10 12 13 15
18 24 22 18 25 31 36 36 36 36 33 30 27 27 28 29 27 23 20 16 16 18 20 23 25 25 22 21 20 18 17 15 13 12 11 11 10 9 8 9 10 13 15 16
21 28 30 30 31 30 34 32 30 29 31 27 24 25 27 26 22 17 17 16 19 21 22 24 23 21 19 19 17 16 14 13 12 12 11 10 10 9 9 9 11 13 15 17
27 27 24 24 29 17 16 14 16 18 20 22 21 20 20 17 15 16 17 19 20 22 22 21 19 17 17 17 16 14 14 13 13 11 10 9 9 8 8 9 11 14 16 17
31 23 25 24 27 9 14 16 16 17 19 18 18 20 18 18 18 18 19 20 20 20 19 16 14 14 14 14 14 14 14 14 12 11 11 8 8 9 8 10 12 15 16 17
27 21 22 18 15 21 22 23 20 21 20 21 20 20 19 18 18 19 18 19 18 17 13 11 12 12 13 13 14 14 15 14 12 11 10 9 8 9 10 10 13 16 17 17
33 24 25 22 19 24 25 23 19 19 20 22 19 19 19 17 17 17 17 16 15 12 10 10 12 12 13 14 17 18 16 14 13 12 11 9 9 9 10 11 14 17 18 17
30 27 30 27 31 25 21 17 18 19 20 20 18 17 17 16 16 16 15 13 12 10 8 9 10 11 13 17 19 18 17 16 15 12 10 10 10 10 11 16 17 16 16 16
16 17 19 21 19 16 15 17 18 20 18 17 16 17 18 16 15 13 12 11 9 7 6 7 10 11 14 18 19 18 17 16 14 12 12 12 12 13 18 18 17 16 15 16
18 20 17 12 13 15 17 18 20 20 17 15 14 14 13 13 12 10 9 8 7 7 8 10 12 14 16 19 22 22 22 21 18 15 13 15 16 20 21 18 16 16 16 17
19 15 13 15 17 20 24 22 20 17 15 13 12 11 11 10 8 8 9 8 8 8 9 10 11 13 16 18 18 17 20 19 18 16 16 17 21 22 19 15 14 16 16 16
24 24 22 21 22 22 22 19 16 14 12 11 11 10 9 9 9 9 9 8 8 8 9 10 10 11 14 17 19 21 22 21 19 19 21 21 22 20 16 14 14 16 17 17
23 24 24 24 24 21 15 14 12 11 10 10 9 9 9 9 9 9 8 8 8 9 9 10 11 11 12 16 18 19 20 21 19 18 18 20 19 16 13 13 15 16 17 17
12 17 19 16 16 13 12 10 9 8 9 8 8 9 9 9 8 8 7 7 9 9 9 10 11 11 12 13 14 16 16 14 14 16 16 17 16 13 12 14 16 17 17 17
14 14 13 13 12 10 9 8 7 7 7 7 8 8 8 8 8 8 7 7 9 9 10 10 11 12 13 13 13 14 13 14 14 14 14 15 13 13 15 16 17 17 17 18
11 10 11 11 9 8 7 5 5 5 6 7 7 8 8 9 8 8 7 10 10 11 11 11 13 14 14 13 14 14 14 13 14 14 14 13 13 15 16 17 18 18 18 18
9 10 10 9 8 7 6 6 5 6 6 6 7 7 7 8 8 8 10 11 12 12 12 13 13 14 13 13 14 13 13 14 14 15 14 14 15 16 16 17 18 19 19 18
9 9 9 9 8 8 7 7 6 6 6 6 6 6 7 7 8 9 11 12 11 11 13 13 13 13 12 13 13 13 14 15 16 15 15 15 15 16 18 18 19 20 21 20
11 11 11 10 10 8 8 8 7 6 6 6 6 7 8 7 8 10 11 11 11 12 13 13 12 12 13 13 13 14 14 15 14 15 16 16 17 18 19 20 20 20 21 22
14 13 11 10 9 8 8 8 8 8 8 8 8 8 8 8 9 10 11 11 12 13 12 12 11 11 12 13 13 13 14 14 15 16 16 17 18 19 20 21 22 22 22 22

GFSNGP_700_spd_147.txt.gz
Wind_Speed
15 15 14 17 20 22 22 23 15 24 21 32 33 28 27 24 23 18 19 20 20 22 25 25 24 23 23 23 24 22 20 22 24 25 25 22 22 22 22 22 19 18 17 17
33 33 28 20 27 24 21 24 29 31 31 28 31 28 22 17 16 16 17 18 19 21 22 20 22 21 20 20 23 21 21 25 23 24 24 22 23 22 22 21 19 17 16 16
21 21 19 13 29 26 25 24 23 22 17 18 18 17 21 20 21 21 21 21 20 20 20 20 18 18 19 19 26 25 27 23 23 22 20 22 22 22 19 17 17 15 15 15
13 11 6 19 21 18 13 8 11 15 18 22 27 24 24 21 20 20 18 18 18 17 16 17 18 17 18 21 26 27 25 21 19 19 21 21 20 19 16 15 15 13 13 14
11 17 20 33 30 20 12 24 25 30 25 19 19 22 19 18 19 18 15 16 19 21 18 20 21 20 21 24 24 23 21 22 20 21 22 21 19 14 13 14 13 12 11 12
17 7 6 33 22 13 9 27 29 17 23 19 19 19 16 16 17 20 23 24 25 22 22 20 17 25 23 24 23 26 24 20 21 23 22 19 14 11 12 11 13 11 11 13
25 16 19 38 30 21 17 29 15 7 7 10 14 19 21 22 23 24 29 29 25 22 18 17 18 22 20 22 25 27 24 22 23 22 20 16 12 13 13 12 10 10 10 12
19 17 17 26 19 20 19 20 14 16 14 19 27 31 31 30 30 31 29 28 26 22 19 17 18 19 20 24 27 26 23 22 21 20 17 13 12 10 9 8 8 9 10 11
19 23 21 22 21 21 22 25 26 34 34 33 31 29 27 27 27 27 28 26 23 20 17 18 19 21 24 25 25 23 23 21 19 18 16 14 13 12 9 8 8 10 11 13
25 27 23 25 28 29 29 30 30 30 26 27 26 25 25 26 26 26 26 23 18 16 17 19 21 24 25 24 23 22 20 18 18 16 14 14 13 11 10 9 9 9 10 12
29 25 22 25 27 29 28 25 21 16 18 17 19 21 22 21 19 18 17 16 17 18 20 22 23 24 24 21 20 19 17 18 17 15 14 13 12 10 9 8 9 10 12 13
30 27 29 29 26 26 21 14 11 14 18 18 19 21 22 21 19 18 18 18 19 20 22 22 22 22 20 19 19 18 17 17 16 15 14 13 11 10 9 7 9 10 12 14
33 31 32 34 28 22 22 14 19 20 18 21 24 23 23 24 20 18 19 19 20 21 21 20 19 18 17 17 17 18 18 17 16 15 14 13 11 10 10 8 8 10 14 16
36 35 38 35 30 22 26 24 18 19 19 20 22 24 25 22 19 18 18 18 20 20 17 17 17 16 16 17 18 19 19 18 16 16 15 13 11 10 10 10 10 15 16 15
41 38 34 36 29 30 30 27 24 18 18 20 22 24 22 19 18 18 19 19 18 17 15 15 14 15 15 17 19 19 19 18 16 16 15 13 12 11 11 10 13 18 17 14
28 26 24 28 26 25 26 23 19 17 18 20 22 20 18 18 18 20 20 17 14 11 12 13 14 15 16 17 18 20 20 18 17 17 16 14 12 12 12 17 19 20 17 13
31 27 23 23 21 19 17 14 15 17 19 21 20 18 16 15 16 15 14 13 12 12 14 15 15 15 16 17 19 21 22 22 20 19 19 21 19 17 18 19 20 18 15 13
25 20 19 16 18 17 13 13 18 20 20 19 16 14 13 12 11 11 11 11 12 13 13 13 13 13 14 16 18 21 23 23 23 21 21 19 17 19 20 20 20 16 13 13
19 22 20 19 18 14 12 16 17 19 17 14 12 12 12 12 11 10 11 11 11 11 12 12 12 12 12 13 16 19 21 21 20 18 21 20 19 19 20 20 18 14 13 13
14 19 22 23 20 15 18 20 19 15 13 11 11 10 11 11 10 10 11 11 11 12 12 11 11 11 12 13 14 16 17 19 20 21 21 18 17 20 20 18 15 13 13 15
10 14 19 18 16 17 17 13 11 10 10 10 10 10 11 10 10 10 10 10 11 11 11 11 10 11 11 12 13 14 15 17 19 18 17 17 19 18 17 16 13 13 15 17
11 10 13 13 14 13 11 10 9 9 9 8 8 8 8 9 9 10 10 11 10 10 10 10 10 12 13 13 13 14 15 16 16 17 18 17 16 17 17 14 14 15 16 18
9 9 10 11 10 10 10 10 9 9 8 8 7 7 8 8 9 9 10 12 11 11 11 11 12 12 12 13 15 16 16 17 17 17 17 17 17 18 16 15 16 16 17 19
6 7 8 10 10 11 11 10 9 8 7 7 7 7 8 9 10 10 12 12 12 11 12 14 14 13 13 13 14 16 16 17 17 17 17 18 18 17 16 16 16 17 18 19
7 9 10 11 12 12 10 9 9 8 8 8 7 8 8 9 9 11 12 13 12 12 13 14 14 13 13 14 15 16 16 17 17 17 17 18 17 17 18 17 17 18 19 20
9 11 12 13 12 11 11 10 10 9 9 9 10 10 10 9 10 11 11 11 11 12 13 13 13 13 14 15 15 16 16 16 16 16 17 18 18 18 18 18 19 20 21 21
14 14 14 13 13 12 12 12 12 12 12 11 12 11 11 11 12 11 11 12 13 13 13 14 14 14 15 15 15 16 16 16 17 17 18 18 19 19 19 20 21 21 22 22

GFSNGP_700_spd_153.txt.gz
Wind_Speed
15 13 14 17 22 22 21 24 16 23 26 27 24 26 28 25 23 17 21 21 26 23 21 19 21 25 23 24 24 25 27 26 25 25 23 25 24 22 24 23 20 20 20 20
19 13 15 20 25 21 25 29 29 27 28 20 13 14 15 13 11 15 17 16 22 23 24 25 25 24 23 23 23 25 25 24 27 26 26 27 21 23 21 18 19 19 19 18
13 14 9 12 28 19 17 17 16 20 23 15 13 11 11 14 15 18 16 18 19 20 20 21 22 21 22 22 24 24 23 25 30 25 27 23 22 19 18 18 18 18 17 15
16 10 8 14 16 14 14 14 13 18 20 17 13 15 19 20 24 25 25 25 24 24 26 26 27 26 26 27 28 27 25 30 29 25 17 19 21 18 18 18 18 17 15 13
16 15 14 29 29 23 25 25 22 22 23 23 22 26 29 30 23 20 22 24 23 24 24 22 22 23 24 26 28 26 27 31 27 19 14 17 18 19 19 19 17 14 12 12
17 5 6 33 21 16 13 27 21 20 20 24 24 24 20 16 11 8 11 15 17 20 22 23 24 25 27 26 28 26 30 29 24 19 17 17 18 19 19 17 15 12 11 12
28 19 19 30 17 8 11 14 12 9 13 12 16 22 21 21 17 14 16 18 21 24 28 28 26 24 25 27 26 24 27 22 22 21 19 18 18 19 18 15 15 14 12 10
17 14 17 21 14 14 12 14 14 14 14 17 19 20 21 24 25 26 25 31 28 26 25 24 24 24 25 25 19 22 21 21 21 21 20 19 19 19 17 15 13 12 11 10
20 25 17 15 16 20 23 18 15 18 22 27 29 32 35 38 35 32 32 27 25 25 24 24 23 22 20 22 26 21 23 21 21 22 22 20 19 19 17 15 13 11 10 10
27 34 31 30 29 23 20 18 18 18 22 22 24 28 31 32 29 28 25 24 22 22 21 22 22 20 22 21 22 21 24 24 24 24 22 20 20 19 17 16 15 13 11 11
29 31 25 25 26 21 19 23 23 29 26 24 24 25 23 24 18 18 18 19 19 19 18 16 16 17 21 21 23 26 26 26 25 23 21 20 21 19 18 17 17 15 12 12
37 28 23 22 20 22 26 28 29 30 27 24 22 20 22 20 21 21 21 20 20 20 19 18 16 17 20 22 24 25 27 25 23 21 20 20 19 19 18 17 16 14 13 13
29 22 23 26 27 26 27 27 28 31 29 25 23 26 28 25 23 21 22 21 21 20 20 20 19 20 21 22 24 25 25 22 21 20 19 19 20 18 17 17 15 14 14 14
27 27 22 24 27 29 31 29 31 32 29 26 27 30 31 29 25 21 22 22 22 21 19 20 20 21 23 24 24 24 21 20 20 19 20 21 20 18 17 16 16 14 14 13
22 25 28 30 31 31 34 34 30 29 30 30 31 31 28 24 24 23 24 24 21 19 19 19 20 22 23 22 21 20 19 19 18 19 21 21 19 18 18 17 16 15 14 15
20 27 32 32 29 30 31 31 30 28 26 27 25 23 23 22 21 22 23 20 18 18 18 19 21 21 20 19 18 17 17 17 18 19 20 19 18 18 18 18 16 15 15 19
24 26 27 29 28 28 29 26 23 21 20 19 18 18 19 18 20 22 19 18 18 18 19 19 18 18 16 16 15 14 15 16 17 18 20 20 20 19 19 19 17 18 22 22
24 25 26 29 29 27 22 19 18 18 17 16 15 15 17 19 20 17 15 14 13 14 14 14 14 14 14 14 13 14 14 15 16 17 20 21 21 20 21 21 22 24 24 21
24 27 23 19 22 22 16 15 15 15 16 13 15 15 17 17 14 12 11 11 11 11 11 11 11 11 11 12 13 13 13 13 15 17 19 20 20 21 22 23 24 24 21 20
22 21 21 21 20 18 15 15 15 15 16 15 16 17 15 13 11 11 11 11 11 11 9 9 10 10 11 12 12 13 13 14 15 16 18 19 21 23 24 23 22 21 20 20
18 18 20 19 19 17 16 17 19 17 18 19 18 15 14 12 11 10 10 10 10 9 9 9 10 11 11 12 12 12 13 14 15 16 17 18 20 22 21 21 21 21 20 20
18 18 15 15 17 18 18 21 21 20 19 15 13 12 10 10 10 10 10 10 8 8 9 10 11 11 12 12 12 12 13 14 15 17 17 18 19 20 20 20 20 20 20 19
14 14 14 14 17 21 22 22 19 18 15 14 13 12 12 12 12 12 11 10 10 9 10 10 11 11 11 12 12 13 13 14 15 16 17 19 20 19 19 20 20 20 20 20
10 9 10 12 14 16 17 17 16 14 14 13 12 11 11 12 12 12 11 9 9 10 11 12 11 12 12 13 14 14 15 15 16 17 18 19 18 19 19 19 19 20 20 20
10 9 8 10 11 12 12 13 13 13 13 12 12 13 13 13 13 12 11 10 10 11 12 12 12 12 13 14 15 15 16 16 16 17 17 18 18 19 19 19 19 20 20 20
12 11 10 10 11 12 12 12 12 13 13 13 13 14 14 13 13 12 12 11 11 12 12 12 12 13 14 14 15 15 16 16 16 17 17 17 18 18 19 20 20 20 20 21
15 14 13 13 13 13 13 13 13 13 13 14 14 14 14 13 13 13 13 13 13 13 13 13 13 13 14 14 15 15 15 16 16 16 16 17 18 19 20 19 19 20 21 22

GFSNGP_700_spd_156.txt.gz
Wind_Speed
18 20 16 17 18 19 20 21 16 16 21 25 18 19 24 23 22 22 20 20 22 20 21 23 25 26 28 31 31 23 23 30 28 29 29 26 25 24 23 23 22 23 22 20
14 13 14 20 23 20 24 24 26 22 27 20 14 15 21 22 17 16 15 20 24 28 33 33 28 28 28 23 26 29 27 27 26 26 26 31 27 21 21 21 21 21 20 20
15 10 10 17 25 26 23 20 17 22 23 16 17 16 18 16 16 17 14 14 20 24 22 25 25 23 21 22 25 25 26 26 24 27 28 32 28 22 22 20 20 19 18 19
16 11 11 21 18 14 16 17 20 21 19 16 17 14 15 17 19 21 24 28 26 27 25 25 24 24 24 25 25 25 25 25 26 28 32 31 23 19 18 19 18 18 18 18
20 20 22 26 22 18 15 19 19 20 20 19 18 23 20 23 27 30 30 25 22 23 23 24 25 26 24 22 21 22 24 24 24 29 29 25 19 17 19 18 17 20 17 16
19 18 15 32 10 11 9 22 14 14 15 15 19 20 16 17 19 21 21 19 16 15 15 17 20 22 24 25 26 27 26 22 23 31 27 20 17 17 19 18 20 18 16 15
31 29 25 26 18 12 13 6 11 11 11 15 15 15 18 18 19 21 21 19 18 19 20 24 26 29 29 28 26 24 23 22 26 27 23 20 20 19 19 20 19 16 16 17
29 24 22 19 17 21 14 11 14 14 12 12 13 15 19 22 24 25 25 25 29 29 28 28 27 26 26 26 26 25 25 24 25 23 22 23 22 21 20 20 18 17 16 15
19 27 13 16 13 10 13 20 20 17 16 16 16 16 19 22 25 28 34 38 34 26 29 26 25 24 25 26 23 24 26 25 24 23 23 24 23 22 21 21 19 17 16 15
20 25 26 23 20 24 24 21 19 19 19 19 19 22 23 21 24 26 25 26 25 24 23 22 22 23 24 26 28 26 32 28 24 23 23 25 25 24 22 22 19 17 16 15
29 22 20 20 20 20 25 22 24 24 23 23 27 26 26 26 23 23 22 21 19 17 19 21 21 21 22 22 25 28 24 24 22 23 25 27 26 24 24 22 20 18 17 16
29 20 23 17 19 22 22 22 21 26 30 31 30 27 27 24 23 21 18 18 24 22 21 20 20 19 16 19 22 21 22 24 26 26 27 26 24 23 23 21 20 18 19 17
32 22 23 24 23 25 24 24 26 30 31 31 30 31 29 26 26 26 23 22 21 21 21 21 20 20 18 20 22 25 27 28 27 26 25 23 22 22 22 22 19 19 18 16
22 27 28 27 27 24 24 25 28 30 32 32 32 30 29 30 30 30 25 22 20 20 21 20 19 19 19 22 23 25 26 25 25 24 22 21 21 22 22 19 19 20 19 18
21 17 21 24 28 25 26 28 29 30 31 32 30 28 30 31 31 31 25 22 21 21 20 18 18 18 19 21 22 23 23 23 21 20 19 20 21 22 21 20 20 20 19 19
23 24 28 30 31 28 27 27 28 28 28 26 27 26 28 32 27 22 22 20 19 20 18 17 18 18 19 20 20 20 20 19 18 18 18 19 20 21 20 19 19 19 19 19
17 24 25 25 23 24 26 27 30 29 26 24 22 23 22 21 19 18 19 19 19 18 17 16 17 17 17 16 16 16 16 16 16 17 18 19 20 20 20 19 19 19 19 19
13 16 19 21 22 23 24 27 27 26 20 19 18 15 14 15 17 19 18 16 14 12 11 11 11 11 11 11 12 12 13 13 14 14 16 18 19 20 20 20 20 20 20 23
17 16 19 23 24 23 24 23 22 19 15 14 14 15 15 17 18 16 13 12 11 10 9 9 9 9 9 10 11 11 12 12 13 14 15 17 19 20 21 21 22 24 24 24
19 21 22 23 24 25 26 21 20 16 14 13 13 15 17 18 17 14 12 11 11 9 7 8 8 8 9 9 10 10 11 12 13 14 15 16 17 18 19 20 21 22 23 23
20 22 23 24 23 25 21 18 17 15 16 16 14 17 18 17 14 12 11 11 10 9 8 8 9 9 9 10 10 10 11 12 13 14 14 16 17 18 20 21 22 23 23 23
14 15 16 17 18 15 15 17 16 16 17 18 17 16 14 13 13 13 13 11 9 10 10 10 9 9 9 10 10 10 11 12 13 14 15 15 16 18 19 21 22 22 22 21
13 11 11 11 11 13 16 19 19 18 18 19 17 14 14 14 14 13 12 11 11 11 11 10 9 10 10 10 11 11 12 13 13 14 15 16 17 18 19 20 20 20 20 21
12 11 11 10 12 14 16 18 18 17 17 15 14 14 14 13 12 12 11 10 10 11 11 10 11 11 11 11 12 13 13 13 14 15 16 17 17 18 18 19 19 20 20 20
13 12 12 11 12 14 15 16 16 16 15 14 14 14 13 12 12 12 11 11 12 12 12 12 12 12 12 13 13 14 14 14 15 16 16 17 17 18 18 18 18 19 20 20
15 13 13 12 11 10 10 11 12 14 14 14 14 14 13 13 13 13 13 13 13 13 13 13 13 13 13 14 14 14 14 15 15 16 16 17 17 17 17 18 18 19 20 20
17 16 15 14 12 11 12 12 14 14 14 15 14 14 14 15 15 15 14 14 14 14 13 13 14 14 14 14 15 15 15 15 15 16 16 16 17 17 18 18 19 19 20 20